[[{"header":{"parameterUnit":"m.s-1","parameterCategory":1,"la1":30.6,"la2":29.2853,"lo1":-89.7004,"lo2":-87.6739,"dx":0.0162,"dy":0.0183,"nx":112,"ny":82,"refTime":"2022-11-02T18:00:00:Z","depth":0,"parameterNumber":2,"parameterNumberName":"U-component_of_WINDS"},"data":[0.0,0.0,0.0,0.0,0.0,0.0,0.0,0.0,0.0,0.0,0.0,0.0,0.0,0.0,0.0,0.0,0.0,0.0,0.0,0.0,0.0,0.0,0.0,0.0,0.0,0.0,0.0,0.0,0.0,0.0,0.0,0.0,0.0,0.0,0.0,0.0,0.0,0.0,0.0,0.0,0.0,0.0,0.0,0.0,0.0,0.0,0.0,0.0,0.0,0.0,0.0,0.0,0.0,0.0,0.0,0.0,0.0,0.0,0.0,0.0,0.0,0.0,0.0,0.0,0.0,0.0,0.0,0.0,0.0,0.0,0.0,0.0,0.0,0.0,0.0,0.0,0.0,0.0,0.0,0.0,0.0,0.0,0.0,0.0,0.0,0.0,0.0,0.0,0.0,0.0,1.251,1.2824,1.3053,1.3193,1.3193,1.2992,1.2851,1.2851,0.0,0.0,0.0,0.0,0.0,0.0,0.0,0.0,0.0,0.0,0.0,0.0,0.0,0.0,0.0,0.0,0.0,0.0,0.0,0.0,0.0,0.0,0.0,0.0,0.0,0.0,0.0,0.0,0.0,0.0,0.0,0.0,0.0,0.0,0.0,0.0,0.0,0.0,0.0,0.0,0.0,0.0,0.0,0.0,0.0,0.0,0.0,0.0,0.0,0.0,0.0,0.0,0.0,0.0,0.0,0.0,0.0,0.0,0.0,0.0,0.0,0.0,0.0,0.0,0.0,0.0,0.0,0.0,0.0,0.0,0.0,0.0,0.0,0.0,0.0,0.0,0.0,0.0,0.0,0.0,0.0,0.0,0.0,0.0,0.0,0.0,0.0,0.0,0.0,0.0,0.0,0.0,0.0,0.0,0.0,0.0,0.0,0.0,0.0,0.0,0.0,0.0,0.0,0.0,1.2837,1.3106,1.3186,1.3193,1.3193,1.3173,1.3133,1.3133,0.0,0.0,0.0,0.0,0.0,0.0,0.0,0.0,0.0,0.0,0.0,0.0,0.0,0.0,0.0,0.0,0.0,0.0,0.0,0.0,0.0,0.0,0.0,0.0,0.0,0.0,0.0,0.0,0.0,0.0,0.0,0.0,0.0,0.0,0.0,0.0,0.0,0.0,0.0,0.0,0.0,0.0,0.0,0.0,0.0,0.0,0.0,0.0,0.0,0.0,0.0,0.0,0.0,0.0,0.0,0.0,0.0,0.0,0.0,0.0,0.0,0.0,0.0,0.0,0.0,0.0,0.0,0.0,0.0,0.0,0.0,0.0,0.0,0.0,0.0,0.0,0.0,0.0,0.0,0.0,0.0,0.0,0.0,0.0,0.0,0.0,0.0,0.0,0.0,0.0,0.0,0.0,0.0,0.0,0.0,0.0,0.0,0.0,0.0,0.0,0.0,0.0,0.0,1.2965,1.3293,1.3407,1.3587,1.3681,1.3681,1.3514,1.342,1.342,1.1468,0.0,0.0,0.0,0.0,0.0,0.0,0.0,0.0,0.0,0.0,0.0,0.0,0.0,0.0,0.0,0.0,0.0,0.0,0.0,0.0,0.0,0.0,0.0,0.0,0.0,0.0,0.0,0.0,0.0,0.0,0.0,0.0,0.0,0.0,0.0,0.0,0.0,0.0,0.0,0.0,0.0,0.0,0.0,0.0,0.0,0.0,0.0,0.0,0.0,0.0,0.0,0.0,0.0,0.0,0.0,0.0,0.0,0.0,0.0,0.0,0.0,0.0,0.0,0.0,0.0,0.0,0.0,0.0,0.0,0.0,0.0,0.0,0.0,0.0,0.0,0.0,0.0,0.0,0.0,0.0,0.0,0.0,0.0,0.0,0.0,0.0,0.0,0.0,0.0,0.0,0.0,0.0,0.0,0.0,0.0,0.0,0.0,0.0,0.0,0.0,0.0,0.0,1.332,1.3626,1.3714,1.3948,1.4103,1.4103,1.386,1.3727,1.3727,1.2283,0.0,0.0,0.0,0.0,0.0,0.0,0.0,0.0,0.0,0.0,0.0,0.0,0.0,0.0,0.0,0.0,0.0,0.0,0.0,0.0,0.0,0.0,0.0,0.0,0.0,0.0,0.0,0.0,0.0,0.0,0.0,0.0,0.0,0.0,0.0,0.0,0.0,0.0,0.0,0.0,0.0,0.0,0.0,0.0,0.0,0.0,0.0,0.0,0.0,0.0,0.0,0.0,0.0,0.0,0.0,0.0,0.0,0.0,0.0,0.0,0.0,0.0,0.0,0.0,0.0,0.0,0.0,0.0,0.0,0.0,0.0,0.0,0.0,0.0,0.0,0.0,0.0,0.0,0.0,0.0,0.0,0.0,0.0,0.0,0.0,0.0,0.0,0.0,0.0,0.0,0.0,0.0,0.0,0.0,0.0,0.0,0.0,0.0,0.0,0.0,0.0,0.0,1.3433,1.3727,1.4028,1.4103,1.4103,1.4103,1.4089,1.4055,1.4055,1.2783,0.0,0.0,0.0,0.0,0.0,0.0,0.0,0.0,0.0,0.0,0.0,0.0,0.0,0.0,0.0,0.0,0.0,0.0,0.0,0.0,0.0,0.0,0.0,0.0,0.0,0.0,0.0,0.0,0.0,0.0,0.0,0.0,0.0,0.0,0.0,0.0,0.0,0.0,0.0,0.0,0.0,0.0,0.0,0.0,0.0,0.0,0.0,0.0,0.0,0.0,0.0,0.0,0.0,0.0,0.0,0.0,0.0,0.0,0.0,0.0,0.0,0.0,0.0,0.0,0.0,0.0,0.0,0.0,0.0,0.0,0.0,0.0,0.0,0.0,0.0,0.0,0.0,0.0,0.0,0.0,0.0,0.0,0.0,0.0,0.0,0.0,0.0,0.0,0.0,0.0,0.0,0.0,0.0,0.0,0.0,0.0,0.0,0.0,0.0,0.0,0.0,0.0,1.3874,1.4207,0.0,1.4544,1.4651,1.4651,1.4469,1.4362,1.4362,0.0,0.0,0.0,0.0,0.0,0.0,0.0,0.0,0.0,0.0,0.0,0.0,0.0,0.0,0.0,0.0,0.0,0.0,0.0,0.0,0.0,0.0,0.0,0.0,0.0,0.0,0.0,0.0,0.0,0.0,0.0,0.0,0.0,0.0,0.0,0.0,0.0,0.0,0.0,0.0,0.0,0.0,0.0,0.0,0.0,0.0,0.0,0.0,0.0,0.0,0.0,0.0,0.0,0.0,0.0,0.0,0.0,0.0,0.0,0.0,0.0,0.0,0.0,0.0,0.0,0.0,0.0,0.0,0.0,0.0,0.0,0.0,0.0,0.0,0.0,0.0,0.0,0.0,0.0,0.0,0.0,0.0,0.0,0.0,0.0,0.0,0.0,0.0,0.0,0.0,0.0,0.0,0.0,0.0,0.0,0.0,0.0,0.0,0.0,0.0,0.0,0.0,1.3714,1.4194,1.4541,0.0,1.4865,1.5008,1.5008,1.4798,1.4616,1.4501,0.0,0.0,0.0,0.0,0.0,0.0,0.0,0.0,0.0,0.0,0.0,0.0,0.0,0.0,0.0,0.0,0.0,0.0,0.0,0.0,0.0,0.0,0.0,0.0,0.0,0.0,0.0,0.0,0.0,0.0,0.0,0.0,0.0,0.0,0.0,0.0,0.0,0.0,0.0,0.0,0.0,0.0,0.0,0.0,0.0,0.0,0.0,0.0,0.0,0.0,0.0,0.0,0.0,0.0,0.0,0.0,0.0,0.0,0.0,0.0,0.0,0.0,0.0,0.0,0.0,0.0,0.0,0.0,0.0,0.0,0.0,0.0,0.0,0.0,0.0,0.0,0.0,0.0,0.0,0.0,0.0,0.0,0.0,0.0,0.0,0.0,0.0,0.0,0.0,0.0,0.0,0.0,0.0,0.0,0.0,0.0,0.0,0.0,0.0,0.0,0.0,0.0,1.4036,1.4349,1.4643,1.4959,1.5022,1.5022,1.5022,1.5022,1.4865,0.0,0.0,0.0,0.0,0.0,0.0,0.0,0.0,0.0,0.0,0.0,0.0,0.0,0.0,0.0,0.0,0.0,0.0,0.0,0.0,0.0,0.0,0.0,0.0,0.0,0.0,0.0,0.0,0.0,0.0,0.0,0.0,0.0,0.0,0.0,0.0,0.0,0.0,0.0,0.0,0.0,0.0,0.0,0.0,0.0,0.0,0.0,0.0,0.0,0.0,0.0,0.0,0.0,0.0,0.0,0.0,0.0,0.0,0.0,0.0,0.0,0.0,0.0,0.0,0.0,0.0,0.0,0.0,0.0,0.0,0.0,0.0,0.0,0.0,0.0,0.0,0.0,0.0,0.0,0.0,0.0,0.0,0.0,0.0,0.0,0.0,0.0,0.0,0.0,0.0,0.0,0.0,0.0,0.0,0.0,0.0,0.0,0.0,0.0,0.0,0.0,0.0,0.0,1.4327,1.483,1.5164,1.5257,1.5444,1.5555,1.5555,1.5391,1.5231,1.515,0.0,0.0,0.0,0.0,0.0,0.0,0.0,0.0,0.0,0.0,0.0,0.0,0.0,0.0,0.0,0.0,0.0,0.0,0.0,0.0,0.0,0.0,0.0,0.0,0.0,0.0,0.0,0.0,0.0,0.0,0.0,0.0,0.0,0.0,0.0,0.0,0.0,0.0,0.0,0.0,0.0,0.0,0.0,0.0,0.0,0.0,0.0,0.0,0.0,0.0,0.0,0.0,0.0,0.0,0.0,0.0,0.0,0.0,0.0,0.0,0.0,0.0,0.0,0.0,0.0,0.0,0.0,0.0,0.0,0.0,0.0,0.0,0.0,0.0,0.0,0.0,0.0,0.0,0.0,0.0,0.0,0.0,0.0,0.0,0.0,0.0,0.0,0.0,0.0,0.0,0.0,0.0,0.0,0.0,0.0,0.0,0.0,0.0,0.0,0.0,0.0,0.0,1.4781,1.5284,1.5618,1.5738,1.6005,1.6155,1.6155,1.5912,1.5698,1.5578,0.0,0.0,0.0,0.0,0.0,0.0,0.0,0.0,0.0,0.0,0.0,0.0,0.0,0.0,0.0,0.0,0.0,0.0,0.0,0.0,0.0,0.0,0.0,0.0,0.0,0.0,0.0,0.0,0.0,0.0,0.0,0.0,0.0,0.0,0.0,0.0,0.0,0.0,0.0,0.0,0.0,0.0,0.0,0.0,0.0,0.0,0.0,0.0,0.0,0.0,0.0,0.0,0.0,0.0,0.0,0.0,0.0,0.0,0.0,0.0,0.0,0.0,0.0,0.0,0.0,0.0,0.0,0.0,0.0,0.0,0.0,0.0,0.0,0.0,0.0,0.0,0.0,0.0,0.0,0.0,0.0,0.0,0.0,0.0,0.0,0.0,0.0,0.0,0.0,0.0,0.0,0.0,0.0,0.0,0.0,0.0,0.0,0.0,0.0,0.0,0.0,0.0,1.5337,1.5688,1.5995,1.631,1.654,1.67,1.67,1.6484,1.6192,1.5901,0.0,0.0,0.0,0.0,0.0,0.0,0.0,0.0,0.0,0.0,0.0,0.0,0.0,0.0,0.0,0.0,0.0,0.0,0.0,0.0,0.0,0.0,0.0,0.0,0.0,0.0,0.0,0.0,0.0,0.0,0.0,0.0,0.0,0.0,0.0,0.0,0.0,0.0,0.0,0.0,0.0,0.0,0.0,0.0,0.0,0.0,0.0,0.0,0.0,0.0,0.0,0.0,0.0,0.0,0.0,0.0,0.0,0.0,0.0,0.0,1.3801,1.2826,0.0,0.0,0.0,0.0,0.0,0.0,0.0,0.0,0.0,0.0,0.0,0.0,0.0,0.0,0.0,0.0,0.0,0.0,0.0,0.0,0.0,0.0,0.0,0.0,0.0,0.0,0.0,0.0,0.0,0.0,0.0,0.0,0.0,0.0,0.0,0.0,0.0,0.0,0.0,0.0,1.5688,1.6168,1.654,1.6607,1.6673,1.67,1.67,1.6647,1.658,1.6502,1.6008,0.0,0.0,0.0,0.0,0.0,0.0,0.0,0.0,0.0,0.0,0.0,0.0,0.0,0.0,0.0,0.0,0.0,0.0,0.0,0.0,0.0,0.0,0.0,0.0,0.0,0.0,0.0,0.0,0.0,0.0,0.0,0.0,0.0,0.0,0.0,0.0,0.0,0.0,0.0,0.0,0.0,0.0,0.0,0.0,0.0,0.0,0.0,0.0,0.0,0.0,0.0,0.0,0.0,0.0,0.0,0.0,0.0,0.0,0.0,1.4394,1.3393,0.0,0.0,0.0,0.0,0.0,0.0,0.0,0.0,0.0,0.0,0.0,0.0,0.0,0.0,0.0,0.0,0.0,0.0,0.0,0.0,0.0,0.0,0.0,0.0,0.0,0.0,0.0,0.0,0.0,0.0,0.0,0.0,0.0,0.0,0.0,0.0,0.0,0.0,0.0,0.0,1.6195,1.6647,1.6939,1.6939,1.7073,1.7128,1.7128,1.6994,1.6939,1.6939,1.65,0.0,0.0,0.0,0.0,0.0,0.0,0.0,0.0,0.0,0.0,0.0,0.0,0.0,0.0,0.0,0.0,0.0,0.0,0.0,0.0,0.0,0.0,0.0,0.0,0.0,0.0,0.0,0.0,0.0,0.0,0.0,0.0,0.0,0.0,0.0,0.0,0.0,0.0,0.0,0.0,0.0,0.0,0.0,0.0,0.0,0.0,0.0,0.0,0.0,0.0,0.0,0.0,0.0,2.0368,2.0711,2.0487,2.028,1.9106,1.7064,1.5149,1.4129,1.3874,1.4135,0.0,0.0,0.0,0.0,0.0,0.0,0.0,0.0,0.0,0.0,0.0,0.0,0.0,0.0,0.0,0.0,0.0,0.0,0.0,0.0,0.0,0.0,1.5294,1.5294,1.5467,1.5565,1.5347,0.0,0.0,0.0,0.0,0.0,0.0,0.0,0.0,0.0,0.0,0.0,1.6727,1.7073,1.7273,1.7273,1.7461,1.7608,1.7608,1.7394,1.7273,1.7273,1.6966,1.678,0.0,0.0,0.0,0.0,0.0,0.0,0.0,0.0,0.0,0.0,0.0,0.0,0.0,0.0,0.0,0.0,0.0,0.0,0.0,0.0,0.0,0.0,0.0,0.0,0.0,0.0,0.0,0.0,0.0,0.0,0.0,0.0,1.4031,1.4179,0.0,0.0,0.0,0.0,0.0,0.0,0.0,0.0,0.0,0.0,0.0,0.0,0.0,1.9785,1.9178,2.0639,2.0928,2.0092,2.1207,2.1716,2.1647,2.0634,1.9608,1.857,1.7576,0.0,1.4812,1.4852,0.0,0.0,0.0,0.0,0.0,0.0,0.0,0.0,0.0,0.0,0.0,0.0,0.0,0.0,0.0,0.0,0.0,0.0,0.0,0.0,0.0,0.0,1.6473,1.6473,1.65,1.6526,1.6486,1.6048,1.5688,1.5688,1.5688,1.5805,0.0,0.0,0.0,0.0,0.0,0.0,1.7125,1.7367,1.7555,1.7555,1.7582,1.7608,1.7608,1.7568,1.7555,1.7555,1.7274,1.7139,1.7139,1.6832,0.0,0.0,0.0,0.0,0.0,0.0,0.0,0.0,0.0,0.0,0.0,0.0,0.0,0.0,0.0,0.0,0.0,0.0,0.0,0.0,0.0,0.0,0.0,0.0,0.0,0.0,0.0,0.0,0.0,1.4246,1.5087,1.5546,1.6175,1.6848,0.0,0.0,0.0,0.0,0.0,0.0,0.0,0.0,0.0,2.1016,2.1231,2.1184,2.0907,2.1783,2.2111,2.1895,2.2638,2.2695,2.2173,2.1644,2.044,1.8651,1.8306,1.7309,1.5963,1.5963,1.5963,1.5963,0.0,0.0,0.0,0.0,1.5963,1.5963,1.5963,1.5963,1.5936,1.5775,0.0,0.0,0.0,0.0,0.0,0.0,0.0,1.6353,1.6486,1.6607,1.67,1.67,1.6834,1.6979,1.6979,1.6887,1.6714,1.6355,1.6302,1.6342,1.6486,1.6513,0.0,0.0,0.0,1.7259,1.7394,1.7528,1.7608,1.7608,1.7608,1.7608,1.7608,1.7608,1.7608,1.7608,1.7488,1.7421,1.7421,1.714,1.6632,0.0,0.0,0.0,0.0,0.0,0.0,0.0,0.0,0.0,0.0,0.0,0.0,0.0,0.0,0.0,0.0,0.0,0.0,0.0,0.0,0.0,0.0,0.0,0.0,0.0,0.0,0.0,0.0,1.5392,1.6528,1.6829,1.788,1.8864,0.0,0.0,0.0,0.0,0.0,0.0,2.1347,2.1386,2.162,2.2187,2.2207,2.2305,2.2539,2.2852,2.3164,2.3518,2.3809,2.3599,2.2887,2.2557,2.1213,1.9106,1.8775,1.7964,1.6914,1.6767,1.67,1.67,1.67,1.67,1.67,1.67,1.67,1.67,1.67,1.67,1.6673,1.6484,1.6404,1.6404,1.6404,0.0,0.0,0.0,0.0,1.6834,1.6914,1.6927,1.6927,1.6927,1.7127,1.7313,1.7313,1.7461,1.7474,1.7021,1.6927,1.6927,1.6927,1.6927,0.0,1.7247,1.7313,1.7394,1.7662,1.7702,1.7729,1.7809,1.7836,1.7836,1.7836,1.7836,1.7836,1.7836,1.7742,1.7702,1.7702,1.7448,1.7273,1.7206,0.0,0.0,0.0,0.0,0.0,0.0,0.0,0.0,0.0,0.0,0.0,0.0,0.0,0.0,0.0,0.0,0.0,0.0,0.0,0.0,0.0,0.0,0.0,0.0,0.0,0.0,0.0,0.0,0.0,1.7749,1.9316,0.0,0.0,0.0,0.0,2.1817,2.1817,2.1817,2.1855,2.1855,2.2227,2.3003,2.3042,2.3435,2.4254,2.4293,2.4336,2.4332,2.4352,2.4348,2.4252,2.2981,2.183,2.081,1.9531,1.842,1.7515,1.6941,1.67,1.67,1.67,1.67,1.67,1.67,1.67,1.67,1.67,1.67,1.67,1.6687,1.6687,1.6687,1.6687,1.67,0.0,0.0,1.7179,1.722,1.7488,1.7542,1.7542,1.7542,1.7582,1.7582,1.7582,1.7595,1.7595,1.7568,1.7542,1.7542,1.7542,0.0,1.7568,1.7582,1.7582,1.7675,1.7956,1.7969,1.8103,1.841,1.8437,1.8437,1.8437,1.8437,1.8437,1.8437,1.8156,1.7969,1.7969,1.7729,1.7461,1.7206,1.7192,0.0,0.0,0.0,0.0,0.0,0.0,0.0,0.0,0.0,0.0,0.0,0.0,0.0,0.0,0.0,0.0,0.0,0.0,0.0,0.0,0.0,0.0,0.0,0.0,0.0,0.0,0.0,0.0,1.8775,2.0305,0.0,2.1446,2.172,2.2109,2.2635,2.2695,2.2971,2.3477,2.3516,2.3652,2.3923,2.3942,2.4079,2.4391,2.4687,2.4867,2.4867,2.5093,2.478,2.3942,2.3438,2.2092,2.0071,1.9576,1.8712,1.7569,1.7381,1.7275,1.7275,1.7275,1.7275,1.7275,1.7275,1.7275,1.7275,1.7275,1.7275,1.7275,1.7275,1.7275,1.7275,1.7275,1.7275,1.7328,1.7635,1.7702,1.7796,1.809,1.817,1.817,1.817,1.817,1.817,1.817,1.817,1.817,1.817,1.8009,1.7943,1.813,1.817,1.817,1.817,1.817,1.821,1.8317,1.833,1.837,1.8477,1.849,1.849,1.849,1.849,1.849,1.849,1.8397,1.833,1.833,1.8223,1.8116,1.8036,1.7822,1.7424,0.0,0.0,0.0,0.0,0.0,0.0,0.0,0.0,0.0,0.0,0.0,0.0,0.0,0.0,0.0,0.0,0.0,0.0,0.0,0.0,0.0,0.0,0.0,0.0,0.0,0.0,2.0678,1.9657,2.118,2.2305,2.2345,2.2578,2.2969,2.3513,2.3574,2.3828,2.4371,2.4391,2.4449,2.4629,2.4629,2.4707,2.484,2.5156,2.5293,2.5317,2.5581,2.5216,2.4344,2.3924,2.2692,2.0938,2.0136,1.9258,1.8418,1.8049,1.7889,1.7862,1.7689,1.7608,1.7608,1.7608,1.7649,1.7756,1.7849,1.7889,1.7889,1.7889,1.7889,1.7889,1.7889,1.7889,1.7929,1.8116,1.8169,1.8209,1.8437,1.849,1.849,1.849,1.849,1.849,1.849,1.8571,1.8664,1.8771,1.8464,1.8236,1.8464,1.849,1.849,1.849,1.849,1.8531,1.8624,1.8637,1.8718,1.8918,1.8931,1.8971,1.9078,1.9078,1.9038,1.8931,1.8838,1.8744,1.8637,1.8544,1.849,1.849,1.8276,1.8169,1.8169,0.0,0.0,0.0,0.0,0.0,0.0,0.0,0.0,0.0,0.0,0.0,0.0,0.0,0.0,0.0,0.0,0.0,0.0,0.0,0.0,0.0,0.0,0.0,1.7762,2.0108,2.1521,2.0418,2.1973,2.3162,2.3225,2.3945,2.4391,2.441,2.441,2.443,2.443,2.443,2.4648,2.5102,2.5121,2.5317,2.5718,2.5693,2.5693,2.5693,2.5693,2.5737,2.5689,2.4381,2.3744,2.3538,2.119,2.0136,1.9953,1.8933,1.849,1.8437,1.7862,1.7635,1.7635,1.7635,1.7796,1.8049,1.8397,1.849,1.849,1.849,1.849,1.849,1.849,1.849,1.849,1.8517,1.8517,1.8517,1.8544,1.8544,1.8544,1.8544,1.8544,1.8544,1.8544,1.8771,1.9052,1.9361,1.896,1.8544,1.8544,1.8544,1.8544,1.8544,1.8544,0.0,1.8903,1.893,1.9156,1.9746,1.9813,1.992,2.0184,2.0197,2.0077,1.9826,1.9575,1.9265,1.8943,1.8691,1.8544,1.8531,1.8531,1.8531,1.8517,0.0,0.0,0.0,0.0,0.0,0.0,0.0,0.0,0.0,0.0,0.0,0.0,0.0,0.0,0.0,0.0,0.0,0.0,0.0,0.0,0.0,0.0,1.9565,1.9459,2.1363,2.2664,2.2342,2.3335,2.404,2.4082,2.4277,2.4551,2.4887,2.4906,2.5019,2.5328,2.5347,2.5406,2.5523,2.5523,2.5581,2.5693,2.5693,2.5693,2.5693,2.603,2.6211,2.6186,2.6127,2.4952,2.2949,2.226,2.083,1.8906,1.8616,1.849,1.8477,1.8331,1.8237,1.8237,1.8237,1.829,1.8384,1.8464,1.849,1.849,1.849,1.849,1.849,1.849,1.849,1.8584,1.904,1.916,1.9254,1.961,1.973,1.973,1.973,1.973,1.973,1.973,1.9783,1.9863,1.9943,1.9867,1.973,1.973,1.973,1.973,1.973,1.973,1.9757,1.9837,1.9837,1.9903,2.0064,2.0077,2.0117,2.0197,2.0197,2.017,2.009,2.001,1.993,1.985,1.977,1.9623,1.9439,1.9439,1.9332,0.0,0.0,0.0,0.0,0.0,0.0,0.0,0.0,0.0,0.0,0.0,0.0,0.0,0.0,0.0,0.0,0.0,0.0,0.0,0.0,0.0,0.0,2.0522,2.1167,2.1857,2.2942,2.3649,2.3649,2.4277,2.4687,2.4687,2.484,2.5054,2.5332,2.5352,2.5445,2.5698,2.5693,2.5693,2.5693,2.5893,2.5991,2.5991,2.6167,2.6245,2.6245,2.6523,2.6641,2.666,2.6894,2.6076,2.4429,2.3368,2.1981,2.0386,1.9318,1.8931,1.8998,0.0,0.0,0.0,0.0,1.8758,1.8906,1.8998,1.9118,1.9225,1.9225,1.9225,1.9225,1.9225,1.9225,1.9292,1.9639,1.9733,1.9813,2.0117,2.0197,2.0197,2.0197,2.0197,2.0197,2.0197,2.0304,2.0414,2.0414,2.0521,0.0,2.057,2.037,2.0197,2.0197,2.0197,2.0197,2.0197,2.0197,2.025,2.037,2.0414,2.0437,2.0557,2.057,0.0,0.0,0.0,2.0361,2.021,2.0197,0.0,0.0,0.0,1.9893,1.9733,1.9733,0.0,0.0,1.8538,1.8457,0.0,0.0,0.0,0.0,0.0,0.0,0.0,0.0,0.0,0.0,0.0,0.0,0.0,0.0,0.0,0.0,2.138,2.2936,2.4307,2.4508,2.4528,2.4469,2.4906,2.516,2.516,2.5484,2.5693,2.5693,2.5693,2.5713,2.5776,2.5776,0.0,0.0,0.0,2.6465,2.6465,2.6836,2.6986,2.6986,2.707,2.709,2.709,2.7129,2.7085,2.684,2.4576,2.3415,2.2957,2.0702,1.9789,1.9773,1.8998,1.8691,1.8718,1.8943,1.9239,1.9535,1.976,0.0,0.0,2.0197,2.0197,2.0197,2.0197,2.0197,2.021,2.0237,2.025,2.0264,2.029,2.0304,2.0304,2.0344,2.0357,2.0357,2.0397,2.0641,2.086,2.086,2.1029,2.1203,2.1203,2.0691,2.0304,2.0304,2.033,2.0357,2.0357,2.0384,2.0535,2.0802,2.086,0.0,2.1189,2.1203,2.1096,2.0873,2.086,2.0708,2.041,2.0397,2.0397,2.0397,2.0397,2.0397,2.0397,2.0397,2.0397,2.0384,1.976,1.9655,0.0,0.0,0.0,0.0,0.0,0.0,0.0,0.0,0.0,0.0,0.0,0.0,0.0,0.0,0.0,2.1497,2.1652,2.2309,2.4639,2.523,2.5328,2.5004,2.5332,2.5581,2.5581,2.5659,2.5693,2.5693,2.5693,2.5874,2.625,2.6269,2.6426,2.6732,2.6855,2.6869,2.6869,2.6947,2.6986,2.6986,2.7363,0.0,2.7585,2.7891,2.7561,2.6747,2.6222,2.4788,2.2743,2.226,2.1309,2.0104,1.993,1.9863,1.9877,1.993,1.9983,2.0037,2.0104,2.0157,2.0197,2.0197,2.0197,2.0197,2.0197,2.0197,0.0,2.0521,2.0588,2.0641,2.0882,2.0935,2.1002,2.1274,2.1328,2.1395,2.159,2.1697,2.177,2.177,2.1777,2.1817,2.1817,2.1323,2.0935,2.0935,2.1149,2.1328,2.1328,2.1529,2.167,2.1724,2.177,2.175,2.1804,2.1817,2.179,2.1737,2.177,2.171,2.1643,2.1643,2.1643,2.1643,2.1643,2.1643,2.1643,2.1643,2.1643,2.1617,2.0561,2.0227,0.0,0.0,0.0,0.0,0.0,0.0,0.0,0.0,0.0,0.0,0.0,1.692,0.0,0.0,2.0418,2.2518,2.319,2.3926,2.5222,2.5581,2.564,2.543,2.5581,2.5693,2.5693,2.5913,2.603,2.603,2.6225,2.644,2.6699,2.6699,2.6797,2.6986,2.7226,2.7344,2.7344,2.7559,2.7656,2.7656,2.8086,2.8301,2.832,2.8758,2.8639,2.808,2.6477,2.5035,2.3683,2.2286,2.1205,2.0468,2.0615,2.0464,2.0197,2.0197,2.029,2.0454,2.0454,2.0548,2.0637,2.0637,2.0637,2.0637,2.0637,2.0775,2.0922,2.11,2.1248,2.1395,2.151,2.155,2.159,2.177,2.1796,2.1836,2.1984,2.1991,2.1991,2.1991,2.1991,2.1991,2.1991,2.1737,2.155,2.155,2.1703,2.1796,2.1796,2.193,2.1991,2.1991,2.1991,2.1991,2.1991,2.1991,2.1991,2.1991,2.1991,2.1991,2.1991,2.1991,2.1991,2.1991,2.1991,2.1991,2.1991,2.1991,2.1991,2.201,2.1376,2.1189,0.0,0.0,0.0,0.0,0.0,0.0,0.0,1.516,1.532,1.5848,1.644,1.7173,1.8213,2.0203,2.1955,2.2848,2.4305,2.5406,2.5669,2.5776,2.5835,2.5835,2.5835,2.5835,2.5835,2.625,2.6504,2.6504,2.6816,2.7051,2.7129,2.7148,2.7187,2.7266,2.7624,2.7858,2.7936,2.8242,2.8457,2.8562,2.8887,2.9043,2.9062,2.9442,2.9637,2.9547,2.6782,2.5403,2.4891,2.2335,2.1059,2.082,2.1082,2.0909,2.045,2.0397,2.0561,2.0806,2.086,2.1034,2.1203,2.1269,2.1283,2.1283,2.1283,2.1443,2.1662,2.1662,2.1836,2.1991,2.1991,2.1991,2.2004,2.2058,2.2071,2.2084,2.2171,2.2151,2.2151,2.2151,2.2151,2.2151,2.2151,2.2151,2.2158,2.2004,2.2031,2.2071,2.2071,2.2124,2.2151,2.2151,2.2151,2.2151,2.2151,2.2151,2.2151,2.2151,2.2151,2.2151,2.2151,2.2151,2.2151,2.2151,2.2151,2.2151,2.2151,2.2151,2.2151,2.2151,2.2151,2.2124,1.4009,1.4384,1.4812,1.4879,1.4919,1.5079,0.0,0.0,1.5875,1.6486,1.8736,1.9939,1.7763,2.0669,2.3089,2.2047,2.3025,2.4344,2.5528,2.6074,2.6309,2.6309,2.6309,2.6309,2.6309,2.6699,2.6928,2.6928,2.6967,2.7187,2.7604,2.7624,2.78,2.8144,2.823,2.8398,2.8742,2.8801,2.9043,2.9461,2.95,2.952,2.952,2.9579,2.9794,3.0051,2.8638,2.7193,2.5748,2.3978,2.2409,2.1096,2.1422,2.1502,2.1408,2.1109,2.1029,2.1096,2.1395,2.1502,2.1582,2.1804,2.1884,2.1884,2.1884,2.1943,2.197,2.197,2.1997,2.1991,2.1991,2.1991,2.2044,2.2311,2.2378,2.2445,2.2746,2.28,2.28,2.28,2.28,2.28,2.28,2.28,2.2626,2.2071,2.2205,2.2378,2.2378,2.2639,2.28,2.28,2.28,2.28,2.28,2.28,2.28,2.28,2.28,2.28,2.28,2.28,2.28,2.28,2.28,2.28,2.28,2.28,2.28,2.28,2.28,2.2653,1.4625,1.5039,1.5471,1.5471,1.5725,1.6046,1.6262,1.6315,1.646,1.6899,1.8,1.9067,1.9704,2.1291,2.2868,0.0,2.474,2.5475,2.6039,2.6484,2.6758,2.6758,2.6973,2.7057,2.6777,2.7148,2.7428,2.7428,2.7617,2.7832,2.8054,2.8262,2.8476,2.8652,2.8906,2.9149,2.9297,2.9297,2.9422,2.9598,2.9852,2.997,2.9941,3.0215,2.992,2.9093,2.7789,2.6329,2.4719,2.3273,2.2249,2.163,2.1796,2.1836,2.1823,2.167,2.1617,2.163,2.1796,2.1836,2.185,2.1951,2.1991,2.1991,2.1991,2.2111,2.2231,2.2231,2.2365,2.2532,2.2532,2.2532,2.2559,2.2645,2.2672,2.2746,2.2867,2.2893,2.2893,2.2893,2.2893,2.2893,2.2893,2.2893,2.2813,2.2572,2.2626,2.2672,2.2672,2.2813,2.2893,2.2893,2.2893,2.2893,2.2893,2.2893,2.2893,2.2893,2.2893,2.2893,2.2893,2.2893,2.2893,2.2893,2.2893,2.2893,2.2893,2.2893,2.2893,2.2893,2.2893,2.2827,1.5427,1.5752,1.6048,1.6048,1.6393,1.6727,1.6807,1.6834,1.7041,1.7709,1.8175,1.9114,2.129,2.2316,2.3345,2.503,2.5924,2.6426,2.6543,2.6934,2.7187,2.7187,2.7604,2.778,2.7559,2.7715,2.7917,2.8034,2.8301,2.8516,2.8633,2.8926,2.9101,2.9101,2.9422,2.9657,2.9774,2.9774,2.9833,2.997,3.0234,3.0391,3.041,3.0859,3.0398,2.9223,2.8376,2.7083,2.5455,2.4004,2.3145,2.27,2.2269,2.2111,2.2111,2.2191,2.2124,2.1991,2.2071,2.2111,2.2124,2.2238,2.2265,2.2265,2.2265,2.2378,2.2539,2.2539,2.2699,2.2893,2.2893,2.2893,2.2893,2.2893,2.2893,2.2893,2.2893,2.2893,2.2893,2.2893,2.2893,2.2893,2.2893,2.2893,2.2893,2.2893,2.2893,2.2893,2.2893,2.2893,2.2893,2.2893,2.2893,2.2893,2.2893,2.2893,2.2893,2.2893,2.2893,2.2893,2.2893,2.2893,2.2893,2.2893,2.2893,2.2893,2.2893,2.2893,2.2893,2.2893,2.2893,2.2947,1.65,1.666,1.6673,1.6673,1.6687,1.678,1.71,1.7192,1.762,1.9192,2.0625,2.1592,2.1668,2.385,2.5301,2.4466,2.5503,2.6523,2.6934,2.7363,2.7682,2.7682,2.8054,2.8437,0.0,2.8496,2.8437,2.882,2.8859,2.9082,2.954,2.9579,2.9579,2.9579,2.9598,2.9794,3.0176,3.0176,3.041,3.0859,3.0859,3.0859,3.0879,3.1309,3.1444,3.1434,3.1832,3.1084,2.9395,2.7643,2.5977,2.4381,2.2937,2.2405,2.2445,2.276,2.2505,2.2031,2.2311,2.2405,2.2458,2.2773,2.2867,2.2867,2.2867,2.288,2.288,2.288,2.2893,2.2893,2.2893,2.2893,2.2893,2.2893,2.2893,2.2893,2.2893,2.2893,2.2893,2.2893,2.2893,2.2893,2.2893,2.2893,2.2893,2.2893,2.2893,2.2893,2.2893,2.2893,2.2893,2.2893,2.2893,2.2893,2.2893,2.2893,2.2893,2.2893,2.2893,2.2893,2.2893,2.2893,2.2893,2.2893,2.2893,2.2893,2.2893,2.2893,2.2893,2.2893,2.2893,2.302,1.6647,1.6847,1.7033,1.7033,1.7167,1.7341,1.7434,1.7461,1.7866,1.9302,2.0208,2.1324,2.3098,2.4423,2.54,2.6002,2.675,2.7311,2.7448,2.7839,2.821,2.8457,2.8633,0.0,0.0,0.0,0.0,2.9316,2.9355,2.9442,2.9598,2.9852,2.998,2.998,3.0293,3.0508,3.0644,3.0664,3.0742,3.0898,3.1172,3.1465,3.1768,3.1894,3.1953,3.1912,3.1176,2.987,2.8126,2.666,2.5022,2.3428,2.2944,2.2712,2.276,2.2853,2.2773,2.2612,2.2706,2.2712,2.276,2.2867,2.2893,2.2893,2.2893,2.2893,2.2893,2.2893,2.2893,2.2893,2.2893,2.2893,2.2893,2.2893,2.2893,2.2893,2.2893,2.2893,2.2893,2.2893,2.2893,2.2893,2.2893,2.2893,2.2893,2.2893,2.2893,2.2893,2.2893,2.2893,2.2893,2.2893,2.2893,2.2893,2.2893,2.2893,2.2893,2.2893,2.2893,2.2893,2.2893,2.2893,2.2893,2.2893,2.306,2.3166,2.3166,2.3402,2.3496,2.3496,2.3496,2.3562,1.6994,1.718,1.7327,1.7327,1.7474,1.774,1.8199,1.8304,1.8838,2.0692,2.1399,2.2411,2.4652,2.5417,2.6036,2.7078,2.7506,2.7741,2.7897,2.8262,2.8613,2.8859,2.9062,2.9316,0.0,0.0,0.0,2.9794,2.9813,2.9891,3.0067,3.0293,3.0449,3.0449,3.0742,3.0898,3.0898,3.1035,3.1191,3.1377,3.1621,3.1894,3.2198,3.2355,3.2413,3.2341,3.1006,2.9754,2.8515,2.638,2.4844,2.3754,2.3133,2.2893,2.2893,2.2893,2.2893,2.2893,2.2893,2.2893,2.2893,2.2893,2.2893,2.2893,2.2893,2.2893,2.2893,2.2893,2.2893,2.2893,2.2893,2.2893,2.2893,2.2893,2.2893,2.2893,2.2893,2.2893,2.2893,2.2893,2.2893,2.2893,2.2893,2.2893,2.2893,2.2893,2.2893,2.2893,2.2893,2.2893,2.2893,2.2893,2.2893,2.2893,2.2893,2.3,2.3033,2.3033,2.3161,2.3215,2.3215,2.3215,2.3215,2.3215,2.338,2.3487,2.3487,2.3674,2.3803,2.3803,2.3803,2.3857,1.7528,1.7608,1.7608,1.7608,1.7661,1.8042,1.9317,1.9653,2.0477,2.3178,2.405,2.4771,0.0,0.0,2.7207,2.7663,2.7721,2.7878,2.8262,2.8672,2.8918,0.0,0.0,0.0,0.0,0.0,0.0,3.0234,3.0234,3.043,3.0859,3.0898,3.0898,3.0898,3.0918,3.0918,3.0918,3.1348,3.1777,3.2237,3.2237,3.2237,3.2276,3.2656,3.2832,3.2758,3.1508,3.0868,3.0545,2.7056,2.5584,2.5315,2.3597,2.2893,2.2893,2.2893,2.2893,2.2893,2.2893,2.2893,2.2893,2.2893,2.2893,2.2893,2.2893,2.2893,2.2893,2.2893,2.2893,2.2893,2.2893,2.2893,2.2893,2.2893,2.2893,2.2893,2.2893,2.2893,2.2893,2.2893,2.2893,2.2893,2.292,2.292,2.292,2.2934,2.2947,2.2934,2.292,2.292,2.292,2.2934,2.2947,2.2947,2.2947,2.318,2.3319,2.3319,2.3621,2.3803,2.3803,2.3803,2.3803,2.3803,2.3817,2.383,2.383,2.3843,2.3843,2.3843,2.3843,2.3968,1.7582,1.7608,1.7608,1.7608,1.8356,1.9176,1.9524,2.041,2.1725,2.3715,2.4517,2.5338,2.7059,2.7702,0.0,2.8151,2.8151,0.0,2.8711,2.8848,0.0,2.9805,0.0,3.0215,3.0664,3.0703,0.0,0.0,3.0703,3.0762,3.0879,3.0898,3.0898,3.0898,3.1191,3.1367,3.1367,3.1797,3.2207,3.2637,3.2637,3.2793,3.3105,3.3203,3.3262,3.323,3.2885,3.1995,3.0642,2.8427,2.6706,2.5315,2.3597,2.2893,2.2893,2.2893,2.2893,2.2893,2.2893,2.2893,2.2893,2.2893,2.2893,2.2893,2.2893,2.2893,2.2893,2.2893,2.2893,2.2893,2.2893,2.2893,2.2893,2.2893,2.2893,2.2893,2.2893,2.2893,2.2893,2.2893,2.2893,2.2974,2.3166,2.3207,2.3287,2.3536,2.3576,2.3496,2.3233,2.3207,2.33,2.3549,2.3576,2.3576,2.3576,2.3607,2.3661,2.3661,2.3763,2.3803,2.3803,2.3803,2.3803,2.3803,2.3981,2.4088,2.4102,2.4315,2.4422,2.4422,2.4422,2.4412,1.7608,1.7608,1.7608,1.7608,1.8603,1.9757,2.0385,2.1583,2.3073,2.4856,2.557,2.626,2.7474,2.8034,2.8301,0.0,0.0,0.0,2.884,2.9082,2.9453,0.0,3.0371,0.0,3.0859,3.0898,3.0898,0.0,3.0898,3.0898,3.0898,3.1074,3.1172,3.1172,3.1582,3.1894,3.207,3.2324,3.2687,3.3066,3.3066,3.3184,3.3386,3.3386,3.3386,3.3355,3.2587,3.1272,2.9507,2.7768,2.5987,2.4249,2.329,2.2893,2.2893,2.2893,2.2893,2.2893,2.2893,2.2893,2.2893,2.2893,2.2893,2.2893,2.2893,2.2893,2.2893,2.2893,2.2893,2.2893,2.2893,2.2893,2.2893,2.2893,2.2893,2.2893,2.2893,2.2893,2.2934,2.3046,2.3166,2.3348,2.3487,2.3527,2.3581,2.3777,2.3803,2.3754,2.3714,2.3607,2.3581,2.379,2.3803,2.3803,2.3803,2.3924,2.3968,2.3968,2.4075,2.4155,2.4155,2.4155,2.4155,2.4155,2.4315,2.4396,2.4396,2.4519,2.4599,2.4599,2.4599,2.4599,1.7608,1.7608,1.7635,1.7819,1.889,2.0256,2.1643,2.2993,2.4424,2.6065,2.6719,2.7148,2.7604,2.8034,2.8301,2.8301,0.0,2.8457,2.8945,2.9336,2.9774,3.0234,3.0644,3.0898,3.0898,3.0898,3.0918,3.0976,3.0976,3.0976,3.0976,3.1367,3.1621,3.165,3.2081,3.2492,3.2871,3.2871,3.3066,3.3386,3.3386,3.3386,3.3386,3.3386,3.3386,3.3292,3.1561,2.993,2.8394,2.6339,2.4622,2.3222,2.2996,2.2893,2.2893,2.2893,2.2893,2.2893,2.2893,2.2893,2.2893,2.2893,2.2893,2.2893,2.2893,2.2893,2.2893,2.2893,2.2893,2.2893,2.2893,2.2893,2.2893,2.2893,2.2934,2.296,2.296,2.2987,2.3094,2.3327,2.3594,2.3817,2.3857,2.387,2.3884,2.391,2.3924,2.3981,2.4222,2.4008,2.3884,2.3888,2.3924,2.3924,2.3924,2.4115,2.4262,2.4262,2.4452,2.4599,2.4599,2.4599,2.4599,2.4599,2.4599,2.4599,2.4599,2.4599,2.4599,2.4599,2.4599,2.4599,1.7608,1.7608,1.7871,1.8994,2.0308,2.1693,2.3043,2.4387,2.5546,2.6239,2.6719,2.7148,2.7604,2.8034,2.8301,2.8301,2.8301,2.8601,2.9383,2.9559,2.9891,0.0,3.084,3.0898,3.0898,3.0898,0.0,0.0,3.1406,3.1406,3.1406,3.1816,3.2207,3.2559,3.2637,3.2891,3.3269,3.332,3.3308,3.3386,3.3386,3.3386,3.3386,3.3386,3.3386,3.3292,3.1561,3.0642,3.0092,2.6823,2.5315,2.4911,2.3461,2.2893,2.2893,2.2893,2.2893,2.2893,2.2893,2.2893,2.2893,2.2893,2.2893,2.2893,2.2893,2.2893,2.2893,2.2893,2.2893,2.2893,2.2893,2.2893,2.2893,2.2893,2.306,2.3247,2.3247,2.3447,2.3669,2.3688,2.3763,2.3884,2.4088,2.4128,2.4209,2.4412,2.4452,2.4466,2.4519,2.4302,2.4222,2.4426,2.4452,2.4452,2.4452,2.4492,2.4519,2.4519,2.4572,2.4599,2.4599,2.4599,2.4599,2.4599,2.4599,2.4599,2.4599,2.4599,2.4599,2.4599,2.4599,2.4599,1.7608,1.7608,1.791,1.9265,2.0102,2.1151,2.3235,2.4196,2.4987,2.6165,2.6719,2.7148,2.7604,2.8034,2.8301,2.8301,2.8476,2.8848,2.952,2.9794,3.0165,3.082,3.0898,3.0898,3.0898,3.1094,3.1309,3.1504,3.1934,3.209,3.1875,3.2296,3.2695,3.3105,3.3125,3.3223,3.3386,3.3386,3.3386,3.3386,3.3386,3.3386,3.3386,3.3386,3.3386,3.3292,3.1561,3.0287,2.9246,2.6606,2.4993,2.406,2.3236,2.2893,2.2893,2.2893,2.2893,2.2893,2.2893,2.2893,2.2893,2.2893,2.2893,2.2893,2.2893,2.2893,2.2893,2.2893,2.2893,2.2934,2.306,2.31,2.314,2.3335,2.3482,2.3554,2.3554,2.3794,2.3995,2.3995,2.4115,2.4262,2.4409,2.4422,2.4439,2.4572,2.4599,2.4599,2.4599,2.4479,2.4439,2.4586,2.4599,2.4599,2.4599,2.4599,2.4599,2.4599,2.4599,2.4599,2.4599,2.4599,2.4599,2.4599,2.4599,2.4599,2.4599,2.4599,2.4599,2.4599,2.4599,2.4599,1.7608,1.7819,1.8277,1.9343,1.9834,2.0692,2.3135,2.3683,2.4189,2.5899,2.6582,2.7012,2.7467,2.7897,2.8184,2.8281,2.8652,2.9062,2.954,2.995,3.0371,3.084,3.0898,0.0,3.1016,3.1328,0.0,3.1747,3.25,3.2793,3.2492,3.2754,3.3086,3.3386,3.3386,3.3386,3.3386,3.3386,3.3386,3.3386,3.3386,3.3386,3.3386,3.3386,3.3197,3.2765,3.1015,2.9246,2.747,2.5685,2.4128,2.2893,2.2893,2.2893,2.2893,2.2893,2.2893,2.2893,2.2893,2.2893,2.2907,2.2974,2.2947,2.2893,2.2893,2.2947,2.3,2.3,2.3041,2.3148,2.3354,2.342,2.35,2.3794,2.3897,2.391,2.3941,2.4142,2.4302,2.4302,2.4439,2.4599,2.4599,2.4599,2.4599,2.4599,2.4599,2.4599,2.4599,2.4599,2.4599,2.4599,2.4599,2.4599,2.4599,2.4599,2.4599,2.4599,2.4599,2.4599,2.4599,2.4599,2.4599,2.4599,2.4599,2.4599,2.4599,2.4599,2.4599,2.4599,2.4599,2.4599,1.7608,1.8473,1.9446,1.9576,2.0564,2.1887,2.3359,2.3683,2.4091,2.5488,2.6128,2.6582,2.6992,2.7422,2.7878,2.8223,2.8652,2.9062,2.954,2.995,3.0371,3.084,0.0,0.0,3.1426,3.1474,3.1836,3.2617,3.3105,3.3308,3.3269,3.3308,3.3347,3.3386,3.3386,3.3386,3.3386,3.3386,3.3386,3.3386,3.3386,3.3386,3.3386,3.3386,3.2524,3.0932,2.9213,2.7404,2.5618,2.3856,2.303,2.2893,2.2893,2.2893,2.2893,2.2893,2.2893,2.2893,2.2893,2.2893,2.2947,2.3193,2.31,2.2893,2.2893,2.306,2.3252,2.3252,2.3474,2.3723,2.3763,2.3763,2.3808,2.4102,2.4168,2.4235,2.4466,2.4546,2.4559,2.4559,2.4586,2.4599,2.4599,2.4599,2.4599,2.4599,2.4599,2.4599,2.4599,2.4599,2.4599,2.4599,2.4599,2.4599,2.4599,2.4599,2.4599,2.4599,2.4599,2.4599,2.4599,2.4599,2.4599,2.4599,2.4599,2.4599,2.4599,2.4599,2.4599,2.4599,2.4599,2.4599,1.7608,1.7989,1.8577,1.9395,2.0014,2.1024,2.321,2.3683,2.4072,2.543,2.6069,2.6523,2.6934,2.7363,2.7839,2.8223,2.8867,2.9403,2.9579,3.0204,3.0684,3.0859,3.0898,3.1055,0.0,0.0,3.2266,3.3105,3.332,3.3386,3.3386,3.3386,3.3386,3.3386,3.3386,3.3386,3.3386,3.3386,3.3386,3.3386,3.3386,3.3386,3.3355,3.2333,3.1465,3.0642,2.7784,2.6172,2.5349,2.3631,2.2893,2.2893,2.2893,2.2893,2.2893,2.2893,2.2893,2.2893,2.2893,2.3014,2.3166,2.3252,2.3367,2.3442,2.3442,2.3536,2.3594,2.3594,2.371,2.3843,2.3981,2.4155,2.4329,2.4436,2.4426,2.4452,2.4572,2.4599,2.4599,2.4599,2.4599,2.4599,2.4599,2.4599,2.4599,2.4599,2.4599,2.4599,2.4599,2.4599,2.4599,2.4599,2.4599,2.4599,2.4599,2.4599,2.4599,2.4599,2.4599,2.4599,2.4599,2.4599,2.4599,2.4599,2.4599,2.4599,2.4599,2.4599,2.4599,2.4599,2.4599,2.4693,1.8068,1.8199,1.8434,1.9343,1.9911,2.0717,2.2667,2.3409,2.4072,2.543,2.5952,2.6367,2.6914,2.7266,2.7682,2.8203,2.9031,2.9598,2.9598,3.0361,3.0898,3.0898,0.0,3.125,3.166,3.2207,3.2793,3.3347,3.3386,3.3386,3.3386,3.3386,3.3386,3.3386,3.3386,3.3386,3.3386,3.3386,3.3386,3.3386,3.3386,3.3386,3.3323,3.1593,3.0513,2.9865,2.6823,2.5214,2.4655,2.3393,2.2893,2.2893,2.2893,2.2893,2.2893,2.2893,2.296,2.3027,2.3027,2.3207,2.3474,2.3554,2.3728,2.3915,2.3995,2.3968,2.3937,2.3937,2.3968,2.4075,2.4275,2.4452,2.4599,2.4599,2.4599,2.4599,2.4599,2.4599,2.4599,2.4599,2.4599,2.4599,2.4599,2.4599,2.4599,2.4599,2.4599,2.4599,2.4599,2.4599,2.4599,2.4599,2.4599,2.4599,2.4599,2.4599,2.4599,2.4599,2.4599,2.4599,2.4599,2.4599,2.4599,2.4599,2.4599,2.4599,2.4599,2.4599,2.4639,2.477,2.477,2.493,1.9213,1.9576,1.9576,1.9602,2.0641,2.1693,2.1719,2.2742,2.4072,2.543,2.5693,2.5971,2.683,2.6986,2.7305,2.8144,2.9031,2.9598,2.9598,3.0361,3.0898,3.0898,3.125,3.168,3.2159,3.293,3.3386,3.3386,3.3386,3.3386,3.3386,3.3386,3.3386,3.3386,3.3386,3.3386,3.3386,3.3386,3.3386,3.3386,3.3386,3.3386,3.3323,3.1593,2.9865,2.8131,2.6273,2.452,2.2928,2.2893,2.2893,2.2893,2.2893,2.2893,2.2893,2.2893,2.306,2.3292,2.3292,2.3514,2.3843,2.4102,2.4195,2.4249,2.4506,2.4422,2.4195,2.4195,2.4409,2.4586,2.4599,2.4599,2.4599,2.4599,2.4599,2.4599,2.4599,2.4599,2.4599,2.4599,2.4599,2.4599,2.4599,2.4599,2.4599,2.4599,2.4599,2.4599,2.4599,2.4599,2.4599,2.4599,2.4599,2.4599,2.4599,2.4599,2.4599,2.4599,2.4599,2.4599,2.4599,2.4599,2.4599,2.4599,2.4599,2.4599,2.4599,2.4599,2.4783,2.5077,2.5077,2.5237,1.9239,1.9602,1.9602,1.9602,2.1355,2.2818,2.1912,2.3459,2.5191,2.5601,2.5693,2.5971,2.683,2.6986,2.7305,2.8144,2.9031,2.9598,2.9598,3.0361,3.0898,3.0898,3.1523,3.2129,0.0,3.3105,3.3386,3.3386,3.3386,3.3386,3.3386,3.3386,3.3386,3.3386,3.3386,3.3386,3.3386,3.3386,3.3386,3.3386,3.3386,3.2797,3.1561,2.9832,2.8065,2.6239,2.4486,2.3427,2.2893,2.2893,2.2893,2.2893,2.2893,2.2893,2.292,2.31,2.3247,2.3319,2.3554,2.3821,2.4075,2.4168,2.4342,2.4479,2.4572,2.4532,2.4466,2.4466,2.4532,2.4599,2.4599,2.4599,2.4599,2.4599,2.4599,2.4599,2.4599,2.4599,2.4599,2.4599,2.4599,2.4599,2.4599,2.4599,2.4599,2.4599,2.4599,2.4599,2.4599,2.4599,2.4599,2.4599,2.4599,2.4599,2.4599,2.4599,2.4599,2.4599,2.4599,2.4599,2.4599,2.4599,2.4599,2.4599,2.4836,2.4943,2.4943,2.5144,2.5277,2.5384,2.5623,2.577,1.9239,1.9602,1.9731,2.0256,2.2064,2.3484,2.2642,2.4146,2.5693,2.5693,2.5835,2.6167,2.6869,2.7148,2.7539,2.8398,2.9149,2.9657,2.9813,3.0458,3.1016,3.1358,3.2022,0.0,0.0,3.323,3.3386,3.3386,3.3386,3.3386,3.3386,3.3386,3.3386,3.3386,3.3386,3.3386,3.3386,3.3386,3.3386,3.3386,3.3386,3.2492,3.0739,2.8984,2.7205,2.5416,2.3665,2.2893,0.0,2.2893,2.2893,2.2893,2.2893,2.2974,2.306,2.326,2.3425,2.3688,2.3875,2.4128,2.4369,2.4369,2.4452,2.4599,2.4599,2.4599,2.4599,2.4599,2.4599,2.4599,2.4599,2.4599,2.4599,2.4599,2.4599,2.4599,2.4599,2.4599,2.4599,2.4599,2.4599,2.4599,2.4599,2.4599,2.4599,2.4599,2.4599,2.4599,2.4599,2.4599,2.4599,2.4599,2.4599,2.4599,2.4599,2.4599,2.4599,2.4599,2.4599,2.4599,2.4599,2.4706,2.4796,2.4796,2.509,2.5237,2.5237,2.5531,2.5678,2.5692,2.6024,2.6158,0.0,1.9524,1.9963,2.1465,2.2767,2.3683,2.3683,2.4732,0.0,2.5732,2.6113,2.6523,2.6973,2.7428,2.7956,2.8789,2.9277,2.9755,3.0137,3.0625,3.125,3.2101,3.257,3.2969,3.3347,3.3386,3.3386,3.3386,3.3386,3.3386,3.3386,3.3386,3.3386,3.3386,3.3386,3.3386,3.3386,3.3386,3.3386,3.3386,3.326,3.2301,3.0545,2.8788,2.7005,2.5214,2.3597,2.2893,2.2893,2.2893,2.2893,2.2893,2.292,2.3073,2.3292,2.3345,2.3741,2.4209,2.4222,2.4372,2.4599,2.4599,2.4599,2.4599,2.4599,2.4599,2.4599,2.4599,2.4599,2.4599,2.4599,2.4599,2.4599,2.4599,2.4599,2.4599,2.4599,2.4599,2.4599,2.4599,2.4599,2.4599,2.4599,2.4599,2.4599,2.4599,2.4599,2.4599,2.4599,2.4599,2.4599,2.4599,2.4613,2.4639,2.4639,2.4613,2.4613,2.4626,2.4639,2.4639,2.4666,2.497,2.5117,2.5117,2.5398,2.5558,2.5571,2.5891,2.6024,2.6038,2.6266,2.6386,1.8251,0.0,2.0179,2.2617,2.3484,2.3683,0.0,2.4732,2.5815,2.6172,2.6309,2.6621,2.7409,2.7624,2.7956,2.8789,2.9277,2.9755,3.0137,3.0879,3.1562,3.214,3.257,3.2969,3.3347,3.3386,3.3386,3.3386,3.3386,3.3386,3.3386,3.3386,3.3386,3.3386,3.3386,3.3386,3.3386,3.3386,3.3386,3.3386,3.2059,3.0481,2.8755,2.6939,2.5181,2.3495,2.3065,2.2893,2.2893,2.2893,2.2893,2.292,2.3126,2.3225,2.3345,2.3834,2.4088,2.4235,2.4412,2.4546,2.4599,2.4599,2.4599,2.4599,2.4599,2.4599,2.4599,2.4599,2.4599,2.4599,2.4599,2.4599,2.4599,2.4599,2.4599,2.4599,2.4599,2.4599,2.4599,2.4599,2.4599,2.4599,2.4599,2.4599,2.4599,2.4599,2.4599,2.4599,2.4599,2.4599,2.4599,2.4599,2.4836,2.497,2.497,2.477,2.4693,2.4957,2.497,2.5077,2.5291,2.5371,2.5411,2.5411,2.5705,2.5959,2.6186,2.6253,2.6332,2.6332,2.636,2.6386,1.8708,1.9973,2.1684,2.2567,2.3707,2.4609,2.4609,2.5167,2.5835,2.6289,2.6543,2.6875,2.7565,2.8015,2.8457,2.9121,2.957,3.0078,3.0723,3.1387,3.1973,3.2402,3.2832,3.3164,3.3367,3.3386,3.3386,3.3386,3.3386,3.3386,3.3386,3.3386,3.3386,3.3386,3.3386,3.3386,3.3386,3.3386,3.3386,3.3386,3.1625,2.9897,2.8147,2.6339,2.4554,2.2893,2.2893,2.2893,2.2893,2.2893,2.2893,2.2934,2.3207,2.3372,2.3581,2.4035,2.4289,2.4386,2.4546,2.4599,2.4599,2.4599,2.4599,2.4599,2.4599,2.4599,2.4599,2.4599,2.4599,2.4599,2.4599,2.4599,2.4599,2.4599,2.4599,2.4599,2.4599,2.4599,2.4599,2.4599,2.4599,2.4599,2.4599,2.4599,2.4599,2.4599,2.4599,2.4599,2.4599,2.4719,2.4836,2.4836,2.5104,2.5277,2.5277,2.513,2.5104,2.5264,2.5277,2.5344,2.5504,2.5638,2.5772,2.5905,2.6079,2.6265,2.6386,2.6386,2.6386,2.6386,2.6386,2.6386,1.9343,2.1456,2.3434,2.229,2.3707,2.5455,2.5669,2.5776,2.5932,2.6406,2.6816,2.7266,2.78,2.8437,2.9082,2.9618,3.0019,3.0586,3.1406,3.1894,3.2355,3.2734,3.3164,3.3386,3.3386,3.3386,3.3386,3.3386,3.3386,3.3386,3.3386,3.3386,3.3386,3.3386,3.3386,3.3386,3.3386,3.3386,3.326,3.2987,3.124,2.9474,2.7735,2.592,2.4297,2.2893,2.2893,2.2893,2.2893,2.2893,2.292,2.3,2.3273,2.3567,2.391,2.4168,2.4386,2.4599,2.4599,2.4599,2.4599,2.4599,2.4599,2.4599,2.4599,2.4599,2.4599,2.4599,2.4599,2.4599,2.4599,2.4599,2.4599,2.4599,2.4599,2.4599,2.4599,2.4599,2.4599,2.4599,2.4599,2.4599,2.4599,2.4599,2.4599,2.4599,2.4639,2.4666,2.4666,2.497,2.5144,2.5144,2.5411,2.5585,2.5585,2.5625,2.5651,2.5651,2.5598,2.5598,2.5638,2.5931,2.6172,2.6386,2.6386,2.6386,2.6386,2.6386,2.6386,2.6386,2.6386,2.6386,1.8225,2.0743,2.3658,2.3434,2.3683,2.4295,2.543,2.5991,2.6406,2.6836,2.7266,2.7839,2.8574,2.8801,2.918,2.998,3.0488,3.0957,3.1416,3.1894,3.2355,3.2734,3.3164,3.3386,3.3386,3.3386,3.3386,3.3386,3.3386,3.3386,3.3386,3.3386,3.3386,3.3386,3.3386,3.3386,3.3386,3.3386,3.2651,3.1176,2.9442,2.7668,2.5838,2.4094,2.3167,2.2893,2.2893,2.2893,2.2893,2.2893,2.302,2.3287,2.3581,2.3875,2.4168,2.4426,2.4559,2.4599,2.4599,2.4599,2.4599,2.4599,2.4599,2.4599,2.4599,2.4599,2.4599,2.4599,2.4599,2.4599,2.4599,2.4599,2.4599,2.4599,2.4599,2.4599,2.4599,2.4599,2.4599,2.4599,2.4599,2.4599,2.4599,2.4599,2.4599,2.4599,2.485,2.501,2.501,2.5264,2.5451,2.5451,2.5718,2.5931,2.5931,2.6119,2.6253,2.6253,2.6065,2.6038,2.6239,2.6293,2.6346,2.6386,2.6386,2.6386,2.6386,2.6386,2.6386,2.6386,2.6386,2.6386,1.8838,2.1151,2.3683,2.3683,2.4245,2.5004,2.5887,2.625,2.6607,2.7226,2.7545,2.7956,2.8742,2.9121,2.9551,3.043,3.0937,3.1387,3.1816,3.2246,3.2656,0.0,0.0,3.3386,3.3386,3.3386,3.3386,3.3386,3.3386,3.3386,3.3386,3.3386,3.3386,3.3386,3.3386,3.3386,3.3386,3.246,3.1593,3.0771,2.9017,2.7238,2.545,2.3686,2.2893,2.2893,2.2893,2.2893,2.2907,2.3046,2.3193,2.3332,2.3821,2.4088,2.4235,2.4492,2.4599,2.4599,2.4599,2.4599,2.4599,2.4599,2.4599,2.4599,2.4599,2.4599,2.4599,2.4599,2.4599,2.4599,2.4599,2.4599,2.4599,2.4599,2.4599,2.4599,2.4599,2.4599,2.4599,2.4599,2.4599,2.4599,2.4599,2.4733,2.4877,2.4877,2.513,2.5317,2.5317,2.5571,2.5758,2.5758,2.6051,2.6225,2.6225,2.6319,2.6386,2.6386,2.6266,2.6292,2.6386,2.6386,2.6386,2.6386,2.6386,2.6386,2.6386,2.6386,2.6386,2.6386,2.6386,2.6386,1.9498,2.138,2.3327,2.3741,2.4857,2.5952,2.6309,2.6568,2.69,2.7565,2.7839,2.821,2.8926,2.9512,3.0165,3.0918,3.1309,3.1699,3.2276,3.2628,3.2949,3.3347,3.3386,3.3386,3.3386,3.3386,3.3386,3.3386,3.3386,3.3386,3.3386,3.3386,3.3386,3.3386,3.3386,3.3386,3.3386,3.1657,3.061,3.0189,2.8427,2.6639,2.4858,2.3495,2.2893,2.2893,2.2893,2.2934,2.3027,2.3233,2.3372,2.3581,2.4022,2.4249,2.4329,2.4519,2.4599,2.4599,2.4599,2.4599,2.4599,2.4599,2.4599,2.4599,2.4599,2.4599,2.4599,2.4599,2.4599,2.4599,2.4599,2.4599,2.4599,2.4599,2.4599,2.4599,2.4599,2.4599,2.4599,2.4599,2.4653,2.4706,2.4706,2.4983,2.5184,2.5184,2.5438,2.5611,2.5611,2.5917,2.6091,2.6091,2.6292,2.6386,2.6386,2.6386,2.6386,2.6386,2.6386,2.6386,2.6386,2.6386,2.6386,2.6386,2.6386,2.6386,2.6386,2.6386,2.6386,2.6386,2.6386,2.6386,1.9265,2.0692,2.2232,2.3855,2.5315,2.6348,2.6387,2.7037,2.7624,2.7682,2.8281,2.8965,2.9461,3.0243,3.0937,3.1406,3.1474,3.1767,3.2637,0.0,3.2949,3.3347,3.3386,3.3386,3.3386,3.3386,3.3386,3.3386,3.3386,3.3386,3.3386,3.3386,3.3386,3.3386,3.3386,3.3386,3.3386,3.1657,2.9995,2.8361,2.6539,2.4791,2.3065,2.2962,2.2893,2.2893,2.2893,2.3033,2.3265,2.3278,2.3612,2.4142,2.4182,2.4332,2.4572,2.4586,2.4599,2.4599,2.4599,2.4599,2.4599,2.4599,2.4599,2.4599,2.4599,2.4599,2.4599,2.4599,2.4599,2.4599,2.4599,2.4599,2.4599,2.4599,2.4599,2.4599,2.4599,2.4599,2.4599,2.4599,2.4863,2.505,2.505,2.5291,2.5478,2.5478,2.5732,2.5957,2.5957,2.6225,2.636,2.636,2.6373,2.6386,2.6386,2.6386,2.6386,2.6386,2.6386,2.6386,2.6386,2.6386,2.6386,2.6386,2.6386,2.6386,2.6386,2.6386,2.6386,2.6386,2.6386,2.6386,2.0538,2.1912,2.3373,2.5139,2.6185,2.6855,2.7154,2.7467,2.7839,2.834,2.8691,2.9113,2.9824,3.0684,3.1328,3.1484,3.1973,3.2422,3.2754,3.3027,3.3242,3.3367,3.3386,3.3386,3.3386,3.3386,3.3386,3.3386,3.3386,3.3386,3.3386,3.3386,3.3386,3.3386,3.3386,3.3386,3.3386,3.0595,2.8853,2.8163,2.6373,2.4588,2.2893,2.2893,2.2893,2.2907,2.3073,2.322,2.3319,2.3679,2.4008,2.4222,2.4359,2.4506,2.4599,2.4599,2.4599,2.4599,2.4599,2.4599,2.4599,2.4599,2.4599,2.4599,2.4599,2.4599,2.4599,2.4599,2.4599,2.4599,2.4599,2.4599,2.4599,2.4599,2.4599,2.4599,2.4599,2.4746,2.4917,2.4917,2.5144,2.5344,2.5344,2.5598,2.5824,2.5824,2.6078,2.6265,2.6265,2.6319,2.6386,2.6386,2.6386,2.6386,2.6386,2.6386,2.6386,2.6386,2.6386,2.6386,2.6386,2.6386,2.6386,2.6386,2.6386,2.6386,2.6386,2.6386,2.6386,2.6386,2.6386,2.6386,2.1313,2.2779,2.4322,2.6139,2.6914,2.7324,2.78,2.7995,2.8249,2.8809,2.9113,2.9551,3.0273,3.1016,3.1562,3.1699,3.2324,3.2832,3.2969,3.3242,3.3386,3.3386,3.3386,3.3386,3.3386,3.3386,3.3386,3.3386,3.3386,3.3386,3.3386,3.3386,3.3386,3.3386,3.3386,3.3133,3.2587,2.967,2.79,2.7337,2.5517,2.406,2.2893,2.2893,2.2893,2.292,2.3193,2.3345,2.35,2.3995,2.4262,2.4356,2.4519,2.4599,2.4599,2.4599,2.4599,2.4599,2.4599,2.4599,2.4599,2.4599,2.4599,2.4599,2.4599,2.4599,2.4599,2.4599,2.4666,2.4783,2.4783,2.4666,2.4626,2.4719,2.4783,2.4759,2.4853,2.5077,2.5224,2.5224,2.5451,2.5651,2.5651,2.5944,2.6131,2.6131,2.6266,2.6386,2.6386,2.6386,2.6386,2.6386,2.6386,2.6386,2.6386,2.6386,2.6386,2.6386,2.6386,2.6386,2.6386,2.6386,2.6386,2.6386,2.6386,2.6386,2.6386,2.6386,2.6386,2.6386,2.6386,2.6386,2.1338,2.2994,2.475,2.6564,2.7344,2.78,2.8203,2.8613,2.8898,2.8898,2.9609,3.0351,3.082,3.125,3.166,3.214,3.2519,3.2949,3.3328,3.3386,3.3386,3.3386,3.3386,3.3386,3.3386,3.3386,3.3386,3.3386,3.3386,3.3386,3.3386,3.3386,3.3386,3.3386,3.3386,3.2556,3.0836,2.9083,2.7304,2.5517,2.372,2.2893,2.2893,2.2893,2.2893,2.292,2.3193,2.35,2.383,2.4088,2.4382,2.4599,2.4599,2.4599,2.4599,2.4599,2.4599,2.4599,2.4599,2.4599,2.4599,2.4599,2.4599,2.4599,2.4599,2.4599,2.4599,2.4613,2.4863,2.5077,2.5077,2.4863,2.4679,2.501,2.5077,2.5157,2.5451,2.5518,2.5518,2.5518,2.5758,2.5998,2.5998,2.6238,2.6386,2.6386,2.6386,2.6386,2.6386,2.6386,2.6386,2.6386,2.6386,2.6386,2.6386,2.6386,2.6386,2.6386,2.6386,2.6386,2.6386,2.6386,2.6386,2.6386,2.6386,2.6386,2.6386,2.6386,2.6386,2.6386,2.6386,2.6386,2.2742,2.4415,2.5988,2.6812,2.7344,2.7878,2.8574,2.8801,2.9054,2.9687,3.0273,3.082,3.125,3.168,3.2109,3.2539,3.2969,3.325,3.3367,3.3386,3.3386,3.3386,3.3386,3.3386,3.3386,3.3386,3.3386,3.3386,3.3386,3.3386,3.3386,3.3386,3.3386,3.3386,3.3386,3.3146,3.2619,2.967,2.7933,2.737,2.4331,2.2893,2.2893,2.2893,2.3014,2.3207,2.3514,2.3808,2.4102,2.4382,2.4519,2.4599,2.4599,2.4599,2.4599,2.4599,2.4599,2.4599,2.4599,2.4599,2.4599,2.4599,2.4599,2.4639,2.489,2.4943,2.4983,2.5197,2.5317,2.5384,2.5384,2.5317,2.5277,2.5371,2.5384,2.5411,2.5491,2.5678,2.5864,2.5864,2.6105,2.6305,2.6305,2.6333,2.6386,2.6386,2.6386,2.6386,2.6386,2.6386,2.6386,2.6386,2.6386,2.6386,2.6386,2.6386,2.6386,2.6386,2.6386,2.6386,2.6386,2.6386,2.6386,2.6386,2.6386,2.6386,2.6386,2.6386,2.6386,2.6386,2.6386,2.6386,2.3335,2.5139,2.6699,2.6953,2.7461,2.8171,2.8984,2.9297,2.9629,3.0332,3.084,3.1211,3.1465,3.2012,3.2531,3.2754,3.3144,3.3386,3.3386,3.3386,3.3386,3.3386,3.3386,3.3386,3.3386,3.3386,3.3386,3.3386,3.3386,3.3386,3.3386,3.3386,3.3386,3.3386,3.3386,3.3051,3.2365,3.0287,2.8525,2.7105,2.4959,2.3563,2.2893,2.3027,2.3153,2.3319,2.3768,2.4102,2.4382,2.4532,2.4599,2.4599,2.4599,2.4599,2.4599,2.4599,2.4599,2.4599,2.4599,2.4599,2.4599,2.4599,2.4679,2.485,2.5024,2.5157,2.5291,2.5464,2.5598,2.5692,2.5692,2.5772,2.5825,2.5718,2.5692,2.5718,2.5838,2.5999,2.6172,2.6172,2.6266,2.6386,2.6386,2.6386,2.6386,2.6386,2.6386,2.6386,2.6386,2.6386,2.6386,2.6386,2.6386,2.6386,2.6386,2.6386,2.6386,2.6386,2.6386,2.6386,2.6386,2.6386,2.6386,2.6386,2.6386,2.6386,2.6386,2.6386,2.6386,2.6386,2.6386,2.6386,2.3509,2.5409,2.6986,2.6986,2.7715,2.864,2.9422,2.9922,3.0371,3.0801,3.123,3.1494,3.1562,3.2246,3.2812,3.2851,3.3164,3.3386,3.3386,3.3386,3.3386,3.3386,3.3386,3.3386,3.3386,3.3386,3.3386,3.3386,3.3386,3.3386,3.3386,3.3386,3.3386,3.3386,3.3386,3.2619,3.1029,3.0707,2.8935,2.5737,2.5416,2.4433,2.2947,2.3193,2.3319,2.3399,2.3995,2.4359,2.4599,2.4599,2.4599,2.4599,2.4599,2.4599,2.4599,2.4599,2.4599,2.4599,2.4599,2.4599,2.4599,2.4639,2.4863,2.5128,2.5181,2.5344,2.5558,2.5585,2.5785,2.6038,2.6038,2.6225,2.6319,2.6091,2.6038,2.6105,2.6333,2.6386,2.6386,2.6386,2.6386,2.6386,2.6386,2.6386,2.6386,2.6386,2.6386,2.6386,2.6386,2.6386,2.6386,2.6386,2.6386,2.6386,2.6386,2.6386,2.6386,2.6386,2.6386,2.6386,2.6386,2.6386,2.6386,2.6386,2.6386,2.6386,2.6386,2.6386,2.6386,2.6386,2.6386,2.6386,2.4922,2.6123,2.6986,2.6986,2.8164,2.9364,2.9559,3.0204,3.0762,3.0859,3.123,3.1621,3.1973,3.2441,3.291,3.3242,3.3328,3.3386,3.3386,3.3386,3.3386,3.3386,3.3386,3.3386,3.3386,3.3386,3.3386,3.3386,3.3386,3.3386,3.3386,3.3386,3.3386,3.3386,3.3386,3.3228,3.2829,3.0125,2.8394,2.7602,2.4791,2.3358,2.3233,2.3265,2.3545,2.4035,2.4359,2.4546,2.4599,2.4599,2.4599,2.4599,2.4599,2.4599,2.4599,2.4599,2.4599,2.4599,2.4599,2.4599,2.4639,2.4917,2.5024,2.5208,2.5663,2.585,2.5944,2.6132,2.6253,2.6293,2.6293,2.6346,2.6373,2.6306,2.6293,2.6319,2.6373,2.6386,2.6386,2.6386,2.6386,2.6386,2.6386,2.6386,2.6386,2.6386,2.6386,2.6386,2.6386,2.6386,2.6386,2.6386,2.6386,2.6386,2.6386,2.6386,2.6386,2.6386,2.6386,2.6386,2.6386,2.6386,2.6386,2.6386,2.6386,2.6386,2.6386,2.6386,2.6386,2.6386,2.6386,2.6386,2.5333,2.6342,2.7084,2.7519,2.864,2.9598,2.9598,3.0282,3.0937,3.1152,3.1523,3.1953,3.2413,3.2812,3.3164,3.3347,3.3386,3.3386,3.3386,3.3386,3.3386,3.3386,3.3386,3.3386,3.3386,3.3386,3.3386,3.3386,3.3386,3.3386,3.3386,3.3386,3.3386,3.3386,3.3386,3.2987,3.2155,3.0351,2.8591,2.6872,2.5173,2.4157,2.3741,2.3741,2.3959,2.4386,2.4532,2.4599,2.4599,2.4599,2.4599,2.4599,2.4599,2.4599,2.4599,2.4599,2.4599,2.4599,2.4599,2.4693,2.4877,2.5024,2.5302,2.5596,2.5904,2.6091,2.6238,2.6346,2.6386,2.6386,2.6386,2.6386,2.6386,2.6386,2.6386,2.6386,2.6386,2.6386,2.6386,2.6386,2.6386,2.6386,2.6386,2.6386,2.6386,2.6386,2.6386,2.6386,2.6386,2.6386,2.6386,2.6386,2.6386,2.6386,2.6386,2.6386,2.6386,2.6386,2.6386,2.6386,2.6386,2.6386,2.6386,2.6386,2.6386,2.6386,2.6386,2.6386,2.6386,2.6386,2.6386,2.6386,2.5406,2.6342,2.7207,2.7988,2.8914,2.9598,2.9598,3.0282,3.1016,3.1426,3.1875,3.2335,3.2715,3.3144,3.3386,3.3386,3.3386,3.3386,3.3386,3.3386,3.3386,3.3386,3.3386,3.3386,3.3386,3.3386,3.3386,3.3386,3.3386,3.3386,3.3386,3.3386,3.3386,3.3386,3.3386,3.2556,3.0803,3.0513,2.8705,2.5484,2.5579,2.5115,2.4209,2.4249,2.4372,2.4599,2.4599,2.4599,2.4599,2.4599,2.4599,2.4599,2.4599,2.4599,2.4599,2.4599,2.4599,2.4613,2.4653,2.4877,2.5141,2.5235,2.5596,2.6011,2.6051,2.6238,2.6386,2.6386,2.6386,2.6386,2.6386,2.6386,2.6386,2.6386,2.6386,2.6386,2.6386,2.6386,2.6386,2.6386,2.6386,2.6386,2.6386,2.6386,2.6386,2.6386,2.6386,2.6386,2.6386,2.6386,2.6386,2.6386,2.6386,2.6386,2.6386,2.6386,2.6386,2.6386,2.6386,2.6386,2.6386,2.6386,2.6386,2.6386,2.6386,2.6386,2.6386,2.6386,2.6386,2.6386,2.6386,2.6386,2.5669,2.6342,2.7129,2.7663,2.8699,2.9598,2.9598,3.0282,3.1016,3.1426,3.1875,3.2335,3.2715,3.3144,3.3386,3.3386,3.3386,3.3386,3.3386,3.3386,3.3386,3.3386,3.3386,3.3386,3.3386,3.3386,3.3386,3.3386,3.3386,3.3386,3.3386,3.3386,3.3386,3.3386,3.3386,3.2556,3.0803,2.9311,2.7536,2.5484,2.4526,2.4125,2.4209,2.4426,2.4559,2.4599,2.4599,2.4599,2.4599,2.4599,2.4599,2.4599,2.4599,2.4599,2.4599,2.4599,2.4599,2.4639,2.493,2.505,2.5208,2.5717,2.5931,2.6038,2.6292,2.636,2.6386,2.6386,2.6386,2.6386,2.6386,2.6386,2.6386,2.6386,2.6386,2.6386,2.6386,2.6386,2.6386,2.6386,2.6386,2.6386,2.6386,2.6386,2.6386,2.6386,2.6386,2.6386,2.6386,2.6386,2.6386,2.6386,2.6386,2.6386,2.6386,2.6386,2.6386,2.6386,2.6386,2.6386,2.6386,2.6386,2.6386,2.6386,2.6386,2.6386,2.6386,2.6386,2.6386,2.6386,2.6386,2.6386,2.601,2.6543,2.7129,2.7585,2.8464,2.9277,2.954,3.0087,3.0703,3.1357,3.1875,3.2335,3.2715,3.3144,3.3386,3.3386,3.3386,3.3386,3.3386,3.3386,3.3386,3.3386,3.3386,3.3386,3.3386,3.3386,3.3386,3.3386,3.3386,3.3386,3.3386,3.3386,3.3386,3.3386,3.246,3.1111,2.9376,2.7569,2.5982,2.4525,2.4186,2.4168,2.4412,2.4546,2.4599,2.4599,2.4599,2.4599,2.4599,2.4599,2.4599,2.4599,2.4599,2.4599,2.4599,2.4599,2.4706,2.4903,2.5037,2.5329,2.565,2.5917,2.6105,2.6265,2.6346,2.6386,2.6386,2.6386,2.6386,2.6386,2.6386,2.6386,2.6386,2.6386,2.6386,2.6386,2.6386,2.6386,2.6386,2.6386,2.6386,2.6386,2.6386,2.6386,2.6386,2.6386,2.6386,2.6386,2.6386,2.6386,2.6386,2.6386,2.6386,2.6386,2.6386,2.6386,2.6386,2.6386,2.6386,2.6386,2.6386,2.6386,2.6386,2.6386,2.6386,2.6386,2.6386,2.6386,2.6386,2.6386,2.6386,2.6386,2.6133,2.6621,2.709,2.7448,2.8223,2.9023,2.95,2.9931,3.041,3.1191,3.1699,3.2159,3.2559,3.3066,3.3386,3.3386,3.3386,3.3386,3.3386,3.3386,3.3386,3.3386,3.3386,3.3386,3.3386,3.3386,3.3386,3.3386,3.3386,3.3386,3.3386,3.3386,3.3386,3.3386,3.1707,2.9962,2.8196,2.6029,2.4557,2.3803,2.4062,2.4356,2.4599,2.4599,2.4599,2.4599,2.4599,2.4599,2.4599,2.4599,2.4599,2.4599,2.4599,2.4599,2.4613,2.4679,2.489,2.5104,2.5288,2.5623,2.6011,2.6078,2.6252,2.6386,2.6386,2.6386,2.6386,2.6386,2.6386,2.6386,2.6386,2.6386,2.6386,2.6386,2.6386,2.6386,2.6386,2.6386,2.6386,2.6386,2.6386,2.6386,2.6386,2.6386,2.6386,2.6386,2.6386,2.6386,2.6386,2.6386,2.6386,2.6386,2.6386,2.6386,2.6386,2.6386,2.6386,2.6386,2.6386,2.6386,2.6386,2.6386,2.6386,2.6386,2.6386,2.6386,2.6386,2.6386,2.6386,2.6386,2.6386,2.6109,2.5713,2.6362,2.7031,2.7025,2.7988,2.9023,2.95,2.9931,3.0332,3.082,3.125,3.168,3.2159,3.2871,3.3386,3.3386,3.3386,3.3386,3.3386,3.3386,3.3386,3.3386,3.3386,3.3386,3.3386,3.3386,3.3386,3.3386,3.3386,3.3386,3.3386,3.3386,3.3386,3.3386,3.1707,2.9962,2.8196,2.5007,2.3531,2.3803,2.4062,2.4356,2.4599,2.4599,2.4599,2.4599,2.4599,2.4599,2.4599,2.4599,2.4599,2.4599,2.4599,2.4599,2.4639,2.4957,2.5101,2.5195,2.5757,2.5971,2.6038,2.6319,2.6373,2.6386,2.6386,2.6386,2.6386,2.6386,2.6386,2.6386,2.6386,2.6386,2.6386,2.6386,2.6386,2.6386,2.6386,2.6386,2.6386,2.6386,2.6386,2.6386,2.6386,2.6386,2.6386,2.6386,2.6386,2.6386,2.6386,2.6386,2.6386,2.6386,2.6386,2.6386,2.6386,2.6386,2.6386,2.6386,2.6386,2.6386,2.6386,2.6386,2.6386,2.6386,2.6386,2.6386,2.6386,2.6386,2.6386,2.6386,2.6386,2.529,2.5693,2.6147,2.668,2.6953,2.7578,2.8301,2.8984,2.952,2.995,3.0351,3.1016,3.1562,3.1719,3.2441,3.3105,3.3347,3.3386,3.3386,3.3386,3.3386,3.3386,3.3386,3.3386,3.3386,3.3386,3.3386,3.3386,3.3386,3.3386,3.3386,3.3386,3.3386,3.2892,3.1771,3.0027,2.7815,2.5076,2.4113,2.3754,2.4048,2.4342,2.4492,2.4599,2.4599,2.4599,2.4599,2.4599,2.4599,2.4599,2.4599,2.4599,2.4599,2.4599,2.4599,2.4639,2.497,2.5197,2.5411,2.585,2.6118,2.6253,2.636,2.6386,2.6386,2.6386,2.6386,2.6386,2.6386,2.6386,2.6386,2.6386,2.6386,2.6386,2.6386,2.6386,2.6386,2.6386,2.6386,2.6386,2.6386,2.6386,2.6386,2.6386,2.6386,2.6386,2.6386,2.6386,2.6386,2.6386,2.6386,2.6386,2.6386,2.6386,2.6386,2.6386,2.6386,2.6386,2.6386,2.6386,2.6386,2.6386,2.6386,2.6386,2.6386,2.6386,2.6386,2.6386,2.6386,2.6386,2.6386,2.492,2.3872,2.5693,2.603,2.6465,2.6738,2.7246,2.7878,2.8555,2.9043,2.9512,3.0078,3.0664,3.1142,3.1465,3.1973,3.2559,3.3125,3.3289,3.3386,3.3386,3.3386,3.3386,3.3386,3.3386,3.3386,3.3386,3.3386,3.3386,3.3386,3.3386,0.0,3.3386,3.3386,3.2333,2.9995,2.8229,2.6019,2.3327,2.3621,2.3915,2.4209,2.4466,2.4599,2.4599,2.4599,2.4599,2.4599,2.4599,2.4599,2.4599,2.4599,2.4599,2.4599,2.4599,2.4666,2.4823,2.5117,2.5411,2.5705,2.6038,2.6265,2.6386,2.6386,2.6386,2.6386,2.6386,2.6386,2.6386,2.6386,2.6386,2.6386,2.6386,2.6386,2.6386,2.6386,2.6386,2.6386,2.6386,2.6386,2.6386,2.6386,2.6386,2.6386,2.6386,2.6386,2.6386,2.6386,2.6386,2.6386,2.6386,2.6386,2.6386,2.6386,2.6386,2.6386,2.6386,2.6386,2.6386,2.6386,2.6386,2.6386,2.6386,2.6386,2.6386,2.6386,2.6386,2.6386,2.6386,2.6386,2.6017,2.5251,2.3792,2.2327,0.0,0.0,0.0,2.6412,2.7037,2.7761,2.821,2.8594,2.9141,2.998,3.0176,3.0469,3.1328,3.1474,3.1797,3.2617,3.3125,3.3367,3.3367,3.3386,3.3386,3.3386,3.3386,3.3386,3.3386,3.3386,3.3386,3.3386,3.3386,3.3386,3.3386,3.3292,3.1675,2.8229,2.6373,2.4746,2.334,2.3621,2.3928,2.4222,2.4466,2.4599,2.4599,2.4599,2.4599,2.4599,2.4599,2.4599,2.4599,2.4599,2.4599,2.4599,2.4599,2.4823,2.5117,2.5411,2.5705,2.6038,2.6332,2.6386,2.6386,2.6386,2.6386,2.6386,2.6386,2.6386,2.6386,2.6386,2.6386,2.6386,2.6386,2.6386,2.6386,2.6386,2.6386,2.6386,2.6386,2.6386,2.6386,2.6386,2.6386,2.6386,2.6386,2.6386,2.6386,2.6386,2.6386,2.6386,2.6386,2.6386,2.6386,2.6386,2.6386,2.6386,2.6386,2.6386,2.6386,2.6386,2.6386,2.6386,2.6386,2.6386,2.6386,2.6386,2.6386,2.6386,2.6386,2.6386,2.5251,2.31,2.298,2.0625,2.5693,0.0,0.0,0.0,0.0,0.0,0.0,0.0,2.8613,2.916,2.9766,3.0273,3.0527,3.1064,3.1601,3.1836,3.248,3.2969,3.2969,3.3223,3.3386,3.3386,3.3386,3.3386,3.3386,3.3386,3.3386,0.0,3.3386,3.3386,3.3386,3.1015,2.8591,2.6306,2.4554,2.3618,2.3683,2.3763,2.4022,2.4479,2.4559,2.4599,2.4599,2.4599,2.4599,2.4599,2.4599,2.4599,2.4599,2.4599,2.4599,2.4599,2.4599,2.4823,2.5117,2.5411,2.5705,2.6038,2.6332,2.6386,2.6386,2.6386,2.6386,2.6386,2.6386,2.6386,2.6386,2.6386,2.6386,2.6386,2.6386,2.6386,2.6386,2.6386,2.6386,2.6386,2.6386,2.6386,2.6386,2.6386,2.6386,2.6386,2.6386,2.6386,2.6386,2.6386,2.6386,2.6386,2.6386,2.6386,2.6386,2.6386,2.6386,2.6386,2.6386,2.6386,2.6386,2.6386,2.6386,2.6386,2.6386,2.6386,2.6386,2.6386,2.6386,2.6386,2.6386,2.6386,2.5251,2.302,1.9856,1.6934,2.5693,2.5693,2.5776,2.6055,0.0,0.0,2.7246,2.7741,2.8203,0.0,2.9316,2.9726,2.9902,3.0508,3.0976,3.0976,3.1699,3.2383,3.2734,3.3008,3.3191,3.3367,3.3386,3.3386,3.3386,3.3386,3.3386,3.3386,3.2734,3.1995,3.129,2.8591,2.6573,2.5517,2.3822,2.3188,2.3803,2.3803,2.4062,2.4599,2.4599,2.4599,2.4599,2.4599,2.4599,2.4599,2.4599,2.4599,2.4599,2.4599,2.4599,2.4613,2.4733,2.4997,2.5291,2.5585,2.5879,2.6198,2.6333,2.6386,2.6386,2.6386,2.6386,2.6386,2.6386,2.6386,2.6386,2.6386,2.6386,2.6386,2.6386,2.6386,2.6386,2.6386,2.6386,2.6386,2.6386,2.6386,2.6386,2.6386,2.6386,2.6386,2.6386,2.6386,2.6386,2.6386,2.6386,2.6386,2.6386,2.6386,2.6386,2.6386,2.6386,2.6386,2.6386,2.6386,2.6386,2.6386,2.6386,2.6386,2.6386,2.6386,2.6386,2.6386,2.6386,2.5938,2.5012,2.5012,2.342,2.0301,1.6852,1.4623,2.5693,2.5693,2.5693,2.5693,2.601,0.0,2.6855,2.7246,2.778,0.0,2.8789,2.8965,2.9383,2.9833,3.0137,3.0137,3.082,3.168,3.2539,3.2695,3.2871,3.3301,3.3328,3.3347,3.3386,3.3386,3.3323,3.3133,3.1497,2.9767,2.7999,2.6373,2.5416,2.5214,2.37,2.3188,2.3803,2.3803,2.4062,2.4599,2.4599,2.4599,2.4599,2.4599,2.4599,2.4599,2.4599,2.4599,2.4599,2.4599,2.4599,2.4626,2.497,2.5251,2.5545,2.5891,2.6185,2.6386,2.6386,2.6386,2.6386,2.6386,2.6386,2.6386,2.6386,2.6386,2.6386,2.6386,2.6386,2.6386,2.6386,2.6386,2.6386,2.6386,2.6386,2.6386,2.6386,2.6386,2.6386,2.6386,2.6386,2.6386,2.6386,2.6386,2.6386,2.6386,2.6386,2.6386,2.6386,2.6386,2.6386,2.6386,2.6386,2.6386,2.6386,2.6386,2.6386,2.6386,2.6386,2.6386,2.6386,2.6386,2.6386,2.6386,2.6386,2.5211,2.274,2.274,2.0625,1.6565,1.4417,1.3403,2.5693,2.5693,2.5693,2.5693,0.0,0.0,2.6406,2.6582,2.6777,0.0,2.793,2.8437,2.8562,2.9207,2.9715,2.9715,3.0117,3.0762,3.1641,3.207,3.2472,3.2871,3.291,3.3047,3.3347,3.3386,3.2829,3.14,2.9702,2.7933,2.6105,2.567,2.4858,2.3461,2.3065,2.3188,2.3803,2.3803,2.4062,2.4599,2.4599,2.4599,2.4599,2.4599,2.4599,2.4599,2.4599,2.4599,2.4599,2.4599,2.4599,2.4626,2.497,2.5251,2.5545,2.5891,2.6185,2.6386,2.6386,2.6386,2.6386,2.6386,2.6386,2.6386,2.6386,2.6386,2.6386,2.6386,2.6386,2.6386,2.6386,2.6386,2.6386,2.6386,2.6386,2.6386,2.6386,2.6386,2.6386,2.6386,2.6386,2.6386,2.6386,2.6386,2.6386,2.6386,2.6386,2.6386,2.6386,2.6386,2.6386,2.6386,2.6386,2.6386,2.6386,2.6386,2.6386,2.6386,2.6386,2.6386,2.6386,2.6386,2.6386,2.6386,2.6386,2.4442,2.0514,2.0514,1.9167,1.6565,1.4417,1.3403,2.5693,2.5693,0.0,2.5693,0.0,0.0,0.0,2.6387,2.6504,2.6934,2.7363,2.7715,2.7956,2.8523,2.9031,2.9219,2.9637,3.0039,3.0488,3.1289,0.0,0.0,0.0,0.0,3.3086,3.2505,3.1015,2.8377,2.737,2.6087,2.4297,2.4196,2.3788,2.2928,2.2893,2.3188,2.3803,2.3803,2.4062,2.4599,2.4599,2.4599,2.4599,2.4599,2.4599,2.4599,2.4599,2.4599,2.4599,2.4599,2.4693,2.489,2.5184,2.5478,2.5772,2.6105,2.6266,2.6386,2.6386,2.6386,2.6386,2.6386,2.6386,2.6386,2.6386,2.6386,2.6386,2.6386,2.6386,2.6386,2.6386,2.6386,2.6386,2.6386,2.6386,2.6386,2.6386,2.6386,2.6386,2.6386,2.6386,2.6386,2.6386,2.6386,2.6386,2.6386,2.6386,2.6386,2.6386,2.6386,2.6386,2.6386,2.6386,2.6386,2.6386,2.6386,2.6386,2.6386,2.537,2.5251,2.6347,2.533,2.4761,2.4761,2.4761,2.2608,1.8241,1.8241,1.7138,1.4987,1.3887,1.3403,0.0,0.0,0.0,0.0,0.0,2.5815,0.0,0.0,0.0,0.0,0.0,0.0,0.0,0.0,0.0,0.0,0.0,0.0,0.0,0.0,0.0,0.0,0.0,0.0,3.2656,3.1481,2.9241,2.5771,2.5517,2.4757,2.2996,2.2893,2.2893,2.2893,2.2893,2.3188,2.3803,2.3803,2.4062,2.4599,2.4599,2.4599,2.4599,2.4599,2.4599,2.4599,2.4599,2.4599,2.4599,2.4599,2.485,2.5184,2.5424,2.5692,2.6038,2.6279,2.6386,2.6386,2.6386,2.6386,2.6386,2.6386,2.6386,2.6386,2.6386,2.6386,2.6386,2.6386,2.6386,2.6386,2.6386,2.6386,2.6386,2.6386,2.6386,2.6386,2.6386,2.6386,2.6386,2.6386,2.6386,2.6386,2.6386,2.6386,2.6386,2.6386,2.6386,2.6386,2.6386,2.6386,2.6386,2.6386,2.6386,2.6386,2.6386,2.6386,2.6386,2.6386,2.4721,2.4562,2.6347,2.4271,2.31,2.31,2.2688,2.0544,1.6606,1.6606,1.5514,1.3403,1.3403,1.3403,0.0,0.0,0.0,0.0,2.5693,0.0,0.0,0.0,2.5796,2.5854,0.0,0.0,0.0,0.0,0.0,0.0,0.0,0.0,0.0,0.0,0.0,0.0,0.0,0.0,0.0,3.1071,2.8933,2.5755,2.5517,2.4757,2.2996,2.2893,2.2893,2.2893,2.2893,2.3188,2.3803,2.3803,2.4062,2.4599,2.4599,2.4599,2.4599,2.4599,2.4599,2.4599,2.4599,2.4599,2.4599,2.4599,2.4919,2.5464,2.5504,2.5692,2.6038,2.6279,2.6386,2.6386,2.6386,2.6386,2.6386,2.6386,2.6386,2.6386,2.6386,2.6386,2.6386,2.6386,2.6386,2.6386,2.6386,2.6386,2.6386,2.6386,2.6386,2.6386,2.6386,2.6386,2.6386,2.6386,2.6386,2.6386,2.6386,2.6386,2.6386,2.6386,2.6386,2.6386,2.6386,2.6386,2.6386,2.6386,2.6386,2.6386,2.6386,2.6386,2.6386,2.6386,2.6149,2.6149,2.6386,2.4271,2.31,2.31,2.1241,1.9055,1.6606,1.6606,1.5514,1.3403,1.3403,1.3403,0.0,0.0,0.0,0.0,0.0,0.0,2.5776,0.0,2.5693,0.0,0.0,0.0,0.0,0.0,0.0,0.0,2.6038,0.0,0.0,0.0,0.0,0.0,0.0,0.0,0.0,0.0,0.0,0.0,2.3992,2.3652,2.2928,2.2893,2.2893,2.2893,2.2893,2.3188,2.3803,2.3803,2.4062,2.4599,2.4599,2.4599,2.4599,2.4599,2.4599,2.4599,2.4599,2.4599,2.4613,2.4823,2.5144,2.5531,2.5705,2.5984,2.6265,2.6346,2.6386,2.6386,2.6386,2.6386,2.6386,2.6386,2.6386,2.6386,2.6386,2.6386,2.6386,2.6386,2.6386,2.6386,2.6386,2.6386,2.6386,2.6386,2.6386,2.6386,2.6386,2.6386,2.6386,2.6386,2.6386,2.6386,2.6386,2.6386,2.6386,2.6386,2.6386,2.6386,2.6386,2.6386,2.6386,2.6386,2.6386,2.6386,2.6386,2.6386,2.6386,2.6386,2.6386,2.5251,2.274,2.294,2.1925,1.936,1.8435,1.6942,1.4739,1.4739,1.4293,1.3403,1.3403,1.3403,2.2978,0.0,0.0,0.0,0.0,0.0,0.0,0.0,0.0,0.0,0.0,0.0,0.0,0.0,0.0,0.0,0.0,2.4687,0.0,0.0,0.0,0.0,0.0,0.0,0.0,0.0,0.0,0.0,0.0,2.3393,2.2928,2.2893,2.2893,2.2893,2.2893,2.3188,2.3803,2.3803,2.4062,2.4599,2.4599,2.4599,2.4599,2.4599,2.4599,2.4599,2.4599,2.4599,2.4626,2.4957,2.5251,2.5545,2.5877,2.6172,2.6386,2.6386,2.6386,2.6386,2.6386,2.6386,2.6386,2.6386,2.6386,2.6386,2.6386,2.6386,2.6386,2.6386,2.6386,2.6386,2.6386,2.6386,2.6386,2.6386,2.6386,2.6386,2.6386,2.6386,2.6386,2.6386,2.6386,2.6386,2.6386,2.6386,2.6386,2.6386,2.6386,2.6386,2.6386,2.6386,2.6386,2.6386,2.6386,2.6386,2.6386,2.6386,2.6386,2.6386,2.5819,2.4071,2.0918,2.1109,1.9816,1.6647,1.604,1.4946,1.3403,1.3403,1.3403,1.3403,1.3403,1.3403,0.0,0.0,0.0,2.2546,0.0,0.0,0.0,0.0,2.4122,0.0,0.0,0.0,0.0,0.0,2.1636,2.1213,0.0,0.0,0.0,0.0,0.0,0.0,0.0,0.0,0.0,0.0,0.0,0.0,0.0,0.0,2.2996,2.2893,2.2893,2.2893,2.2893,2.3188,2.3803,2.3803,2.4062,2.4599,2.4599,2.4599,2.4599,2.4599,2.4599,2.4599,2.4599,2.4599,2.4626,2.4957,2.5251,2.5545,2.5877,2.6172,2.6386,2.6386,2.6386,2.6386,2.6386,2.6386,2.6386,2.6386,2.6386,2.6386,2.6386,2.6386,2.6386,2.6386,2.6386,2.6386,2.6386,2.6386,2.6386,2.6386,2.6386,2.6386,2.6386,2.6386,2.6386,2.6386,2.6386,2.6386,2.6386,2.6386,2.6386,2.6386,2.6386,2.6386,2.6386,2.6386,2.6386,2.6386,2.6386,2.6386,2.6386,2.6386,2.6386,2.6386,2.4402,2.314,2.302,1.9004,1.6729,1.6606,1.4582,1.348,1.3403,1.3403,1.3403,1.3403,1.3403,1.3403,0.0,0.0,2.2058,2.1558,0.0,0.0,0.0,0.0,0.0,0.0,0.0,0.0,0.0,2.0615,2.0251,2.0102,2.0313,0.0,0.0,0.0,0.0,0.0,0.0,0.0,0.0,0.0,0.0,0.0,0.0,0.0,0.0,2.2893,2.2893,2.2893,2.2893,2.3094,2.3474,2.371,2.3968,2.4356,2.4506,2.4599,2.4599,2.4599,2.4599,2.4599,2.4599,2.4599,2.4639,2.5157,2.5424,2.5558,2.6052,2.6306,2.6386,2.6386,2.6386,2.6386,2.6386,2.6386,2.6386,2.6386,2.6386,2.6386,2.6386,2.6386,2.6386,2.6386,2.6386,2.6386,2.6386,2.6386,2.6386,2.6386,2.6386,2.6386,2.6386,2.6386,2.6386,2.6386,2.6386,2.6386,2.6386,2.6386,2.6386,2.6386,2.6386,2.6386,2.6386,2.6386,2.6386,2.6386,2.6386,2.6386,2.6386,2.5052,2.4231,2.4231,2.2166,2.0342,1.8882,1.7375,1.5917,1.4499,1.3769,1.3403,1.3403,1.3403,1.3403,1.3403,1.3403,1.3403,2.1522,2.105,0.0,2.0758,2.1253,0.0,2.2076,0.0,2.1884,0.0,0.0,0.0,0.0,0.0,1.9036,1.9036,1.8936,0.0,0.0,0.0,0.0,0.0,0.0,0.0,0.0,0.0,0.0,0.0,0.0,0.0,0.0,0.0,2.2893,2.2893,2.2893,2.3041,2.3292,2.3621,2.3915,2.4209,2.4466,2.4599,2.4599,2.4599,2.4599,2.4599,2.4599,2.4599,2.4639,2.5239,2.5518,2.5571,2.6159,2.6386,2.6386,2.6386,2.6386,2.6386,2.6386,2.6386,2.6386,2.6386,2.6386,2.6386,2.6386,2.6386,2.6373,2.6266,2.6306,2.636,2.6266,2.6319,2.6386,2.6386,2.6386,2.6386,2.6386,2.6386,2.6386,2.6386,2.6386,2.6386,2.6386,2.6386,2.6386,2.6386,2.6386,2.6386,2.6386,2.6386,2.6386,2.6386,2.6386,2.607,2.529,2.322,2.1965,2.1965,1.9937,1.8078,1.6647,1.5876,1.4822,1.3438,1.3403,1.3403,1.3403,1.3403,1.3403,1.3403,1.3403,1.3431]},{"header":{"parameterUnit":"m.s-1","parameterCategory":1,"la1":30.6,"la2":29.2853,"lo1":-89.7004,"lo2":-87.6739,"dx":0.0162,"dy":0.0183,"nx":112,"ny":82,"refTime":"2022-11-02T18:00:00:Z","depth":0,"parameterNumber":3,"parameterNumberName":"V-component_of_WINDS"},"data":[0.0,0.0,0.0,0.0,0.0,0.0,0.0,0.0,0.0,0.0,0.0,0.0,0.0,0.0,0.0,0.0,0.0,0.0,0.0,0.0,0.0,0.0,0.0,0.0,0.0,0.0,0.0,0.0,0.0,0.0,0.0,0.0,0.0,0.0,0.0,0.0,0.0,0.0,0.0,0.0,0.0,0.0,0.0,0.0,0.0,0.0,0.0,0.0,0.0,0.0,0.0,0.0,0.0,0.0,0.0,0.0,0.0,0.0,0.0,0.0,0.0,0.0,0.0,0.0,0.0,0.0,0.0,0.0,0.0,0.0,0.0,0.0,0.0,0.0,0.0,0.0,0.0,0.0,0.0,0.0,0.0,0.0,0.0,0.0,0.0,0.0,0.0,0.0,0.0,0.0,3.4314,3.5114,3.5862,3.631,3.631,3.5635,3.5188,3.5188,0.0,0.0,0.0,0.0,0.0,0.0,0.0,0.0,0.0,0.0,0.0,0.0,0.0,0.0,0.0,0.0,0.0,0.0,0.0,0.0,0.0,0.0,0.0,0.0,0.0,0.0,0.0,0.0,0.0,0.0,0.0,0.0,0.0,0.0,0.0,0.0,0.0,0.0,0.0,0.0,0.0,0.0,0.0,0.0,0.0,0.0,0.0,0.0,0.0,0.0,0.0,0.0,0.0,0.0,0.0,0.0,0.0,0.0,0.0,0.0,0.0,0.0,0.0,0.0,0.0,0.0,0.0,0.0,0.0,0.0,0.0,0.0,0.0,0.0,0.0,0.0,0.0,0.0,0.0,0.0,0.0,0.0,0.0,0.0,0.0,0.0,0.0,0.0,0.0,0.0,0.0,0.0,0.0,0.0,0.0,0.0,0.0,0.0,0.0,0.0,0.0,0.0,0.0,0.0,3.5151,3.6009,3.6229,3.631,3.631,3.6193,3.6083,3.6083,0.0,0.0,0.0,0.0,0.0,0.0,0.0,0.0,0.0,0.0,0.0,0.0,0.0,0.0,0.0,0.0,0.0,0.0,0.0,0.0,0.0,0.0,0.0,0.0,0.0,0.0,0.0,0.0,0.0,0.0,0.0,0.0,0.0,0.0,0.0,0.0,0.0,0.0,0.0,0.0,0.0,0.0,0.0,0.0,0.0,0.0,0.0,0.0,0.0,0.0,0.0,0.0,0.0,0.0,0.0,0.0,0.0,0.0,0.0,0.0,0.0,0.0,0.0,0.0,0.0,0.0,0.0,0.0,0.0,0.0,0.0,0.0,0.0,0.0,0.0,0.0,0.0,0.0,0.0,0.0,0.0,0.0,0.0,0.0,0.0,0.0,0.0,0.0,0.0,0.0,0.0,0.0,0.0,0.0,0.0,0.0,0.0,0.0,0.0,0.0,0.0,0.0,0.0,3.5562,3.6523,3.6898,3.7331,3.7588,3.7588,3.7191,3.6934,3.6934,3.5826,0.0,0.0,0.0,0.0,0.0,0.0,0.0,0.0,0.0,0.0,0.0,0.0,0.0,0.0,0.0,0.0,0.0,0.0,0.0,0.0,0.0,0.0,0.0,0.0,0.0,0.0,0.0,0.0,0.0,0.0,0.0,0.0,0.0,0.0,0.0,0.0,0.0,0.0,0.0,0.0,0.0,0.0,0.0,0.0,0.0,0.0,0.0,0.0,0.0,0.0,0.0,0.0,0.0,0.0,0.0,0.0,0.0,0.0,0.0,0.0,0.0,0.0,0.0,0.0,0.0,0.0,0.0,0.0,0.0,0.0,0.0,0.0,0.0,0.0,0.0,0.0,0.0,0.0,0.0,0.0,0.0,0.0,0.0,0.0,0.0,0.0,0.0,0.0,0.0,0.0,0.0,0.0,0.0,0.0,0.0,0.0,0.0,0.0,0.0,0.0,0.0,0.0,3.6597,3.7566,3.7742,3.8322,3.8681,3.8681,3.8146,3.7779,3.7779,3.671,0.0,0.0,0.0,0.0,0.0,0.0,0.0,0.0,0.0,0.0,0.0,0.0,0.0,0.0,0.0,0.0,0.0,0.0,0.0,0.0,0.0,0.0,0.0,0.0,0.0,0.0,0.0,0.0,0.0,0.0,0.0,0.0,0.0,0.0,0.0,0.0,0.0,0.0,0.0,0.0,0.0,0.0,0.0,0.0,0.0,0.0,0.0,0.0,0.0,0.0,0.0,0.0,0.0,0.0,0.0,0.0,0.0,0.0,0.0,0.0,0.0,0.0,0.0,0.0,0.0,0.0,0.0,0.0,0.0,0.0,0.0,0.0,0.0,0.0,0.0,0.0,0.0,0.0,0.0,0.0,0.0,0.0,0.0,0.0,0.0,0.0,0.0,0.0,0.0,0.0,0.0,0.0,0.0,0.0,0.0,0.0,0.0,0.0,0.0,0.0,0.0,0.0,3.6971,3.7779,3.8542,3.8681,3.8681,3.8681,3.8644,3.8615,3.8615,3.8067,0.0,0.0,0.0,0.0,0.0,0.0,0.0,0.0,0.0,0.0,0.0,0.0,0.0,0.0,0.0,0.0,0.0,0.0,0.0,0.0,0.0,0.0,0.0,0.0,0.0,0.0,0.0,0.0,0.0,0.0,0.0,0.0,0.0,0.0,0.0,0.0,0.0,0.0,0.0,0.0,0.0,0.0,0.0,0.0,0.0,0.0,0.0,0.0,0.0,0.0,0.0,0.0,0.0,0.0,0.0,0.0,0.0,0.0,0.0,0.0,0.0,0.0,0.0,0.0,0.0,0.0,0.0,0.0,0.0,0.0,0.0,0.0,0.0,0.0,0.0,0.0,0.0,0.0,0.0,0.0,0.0,0.0,0.0,0.0,0.0,0.0,0.0,0.0,0.0,0.0,0.0,0.0,0.0,0.0,0.0,0.0,0.0,0.0,0.0,0.0,0.0,0.0,3.8182,3.91,0.0,3.9892,4.0186,4.0186,3.9753,3.946,3.946,0.0,0.0,0.0,0.0,0.0,0.0,0.0,0.0,0.0,0.0,0.0,0.0,0.0,0.0,0.0,0.0,0.0,0.0,0.0,0.0,0.0,0.0,0.0,0.0,0.0,0.0,0.0,0.0,0.0,0.0,0.0,0.0,0.0,0.0,0.0,0.0,0.0,0.0,0.0,0.0,0.0,0.0,0.0,0.0,0.0,0.0,0.0,0.0,0.0,0.0,0.0,0.0,0.0,0.0,0.0,0.0,0.0,0.0,0.0,0.0,0.0,0.0,0.0,0.0,0.0,0.0,0.0,0.0,0.0,0.0,0.0,0.0,0.0,0.0,0.0,0.0,0.0,0.0,0.0,0.0,0.0,0.0,0.0,0.0,0.0,0.0,0.0,0.0,0.0,0.0,0.0,0.0,0.0,0.0,0.0,0.0,0.0,0.0,0.0,0.0,0.0,0.0,3.7742,3.9064,4.0018,0.0,4.0773,4.1095,4.1095,4.0589,4.0157,3.9908,0.0,0.0,0.0,0.0,0.0,0.0,0.0,0.0,0.0,0.0,0.0,0.0,0.0,0.0,0.0,0.0,0.0,0.0,0.0,0.0,0.0,0.0,0.0,0.0,0.0,0.0,0.0,0.0,0.0,0.0,0.0,0.0,0.0,0.0,0.0,0.0,0.0,0.0,0.0,0.0,0.0,0.0,0.0,0.0,0.0,0.0,0.0,0.0,0.0,0.0,0.0,0.0,0.0,0.0,0.0,0.0,0.0,0.0,0.0,0.0,0.0,0.0,0.0,0.0,0.0,0.0,0.0,0.0,0.0,0.0,0.0,0.0,0.0,0.0,0.0,0.0,0.0,0.0,0.0,0.0,0.0,0.0,0.0,0.0,0.0,0.0,0.0,0.0,0.0,0.0,0.0,0.0,0.0,0.0,0.0,0.0,0.0,0.0,0.0,0.0,0.0,0.0,3.8498,3.9423,4.023,4.103,4.1132,4.1132,4.1132,4.1132,4.0773,0.0,0.0,0.0,0.0,0.0,0.0,0.0,0.0,0.0,0.0,0.0,0.0,0.0,0.0,0.0,0.0,0.0,0.0,0.0,0.0,0.0,0.0,0.0,0.0,0.0,0.0,0.0,0.0,0.0,0.0,0.0,0.0,0.0,0.0,0.0,0.0,0.0,0.0,0.0,0.0,0.0,0.0,0.0,0.0,0.0,0.0,0.0,0.0,0.0,0.0,0.0,0.0,0.0,0.0,0.0,0.0,0.0,0.0,0.0,0.0,0.0,0.0,0.0,0.0,0.0,0.0,0.0,0.0,0.0,0.0,0.0,0.0,0.0,0.0,0.0,0.0,0.0,0.0,0.0,0.0,0.0,0.0,0.0,0.0,0.0,0.0,0.0,0.0,0.0,0.0,0.0,0.0,0.0,0.0,0.0,0.0,0.0,0.0,0.0,0.0,0.0,0.0,0.0,3.9431,4.0744,4.1662,4.1919,4.2433,4.2808,4.2808,4.2286,4.1846,4.1625,0.0,0.0,0.0,0.0,0.0,0.0,0.0,0.0,0.0,0.0,0.0,0.0,0.0,0.0,0.0,0.0,0.0,0.0,0.0,0.0,0.0,0.0,0.0,0.0,0.0,0.0,0.0,0.0,0.0,0.0,0.0,0.0,0.0,0.0,0.0,0.0,0.0,0.0,0.0,0.0,0.0,0.0,0.0,0.0,0.0,0.0,0.0,0.0,0.0,0.0,0.0,0.0,0.0,0.0,0.0,0.0,0.0,0.0,0.0,0.0,0.0,0.0,0.0,0.0,0.0,0.0,0.0,0.0,0.0,0.0,0.0,0.0,0.0,0.0,0.0,0.0,0.0,0.0,0.0,0.0,0.0,0.0,0.0,0.0,0.0,0.0,0.0,0.0,0.0,0.0,0.0,0.0,0.0,0.0,0.0,0.0,0.0,0.0,0.0,0.0,0.0,0.0,4.0679,4.1992,4.291,4.324,4.3975,4.4461,4.4461,4.3718,4.313,4.28,0.0,0.0,0.0,0.0,0.0,0.0,0.0,0.0,0.0,0.0,0.0,0.0,0.0,0.0,0.0,0.0,0.0,0.0,0.0,0.0,0.0,0.0,0.0,0.0,0.0,0.0,0.0,0.0,0.0,0.0,0.0,0.0,0.0,0.0,0.0,0.0,0.0,0.0,0.0,0.0,0.0,0.0,0.0,0.0,0.0,0.0,0.0,0.0,0.0,0.0,0.0,0.0,0.0,0.0,0.0,0.0,0.0,0.0,0.0,0.0,0.0,0.0,0.0,0.0,0.0,0.0,0.0,0.0,0.0,0.0,0.0,0.0,0.0,0.0,0.0,0.0,0.0,0.0,0.0,0.0,0.0,0.0,0.0,0.0,0.0,0.0,0.0,0.0,0.0,0.0,0.0,0.0,0.0,0.0,0.0,0.0,0.0,0.0,0.0,0.0,0.0,0.0,4.2139,4.3176,4.402,4.4737,4.5443,4.5883,4.5883,4.5214,4.4488,4.3763,0.0,0.0,0.0,0.0,0.0,0.0,0.0,0.0,0.0,0.0,0.0,0.0,0.0,0.0,0.0,0.0,0.0,0.0,0.0,0.0,0.0,0.0,0.0,0.0,0.0,0.0,0.0,0.0,0.0,0.0,0.0,0.0,0.0,0.0,0.0,0.0,0.0,0.0,0.0,0.0,0.0,0.0,0.0,0.0,0.0,0.0,0.0,0.0,0.0,0.0,0.0,0.0,0.0,0.0,0.0,0.0,0.0,0.0,0.0,0.0,3.5204,3.5238,0.0,0.0,0.0,0.0,0.0,0.0,0.0,0.0,0.0,0.0,0.0,0.0,0.0,0.0,0.0,0.0,0.0,0.0,0.0,0.0,0.0,0.0,0.0,0.0,0.0,0.0,0.0,0.0,0.0,0.0,0.0,0.0,0.0,0.0,0.0,0.0,0.0,0.0,0.0,0.0,4.3176,4.4497,4.5443,4.5626,4.581,4.5883,4.5883,4.5736,4.5553,4.5415,4.4057,0.0,0.0,0.0,0.0,0.0,0.0,0.0,0.0,0.0,0.0,0.0,0.0,0.0,0.0,0.0,0.0,0.0,0.0,0.0,0.0,0.0,0.0,0.0,0.0,0.0,0.0,0.0,0.0,0.0,0.0,0.0,0.0,0.0,0.0,0.0,0.0,0.0,0.0,0.0,0.0,0.0,0.0,0.0,0.0,0.0,0.0,0.0,0.0,0.0,0.0,0.0,0.0,0.0,0.0,0.0,0.0,0.0,0.0,0.0,3.7195,3.6861,0.0,0.0,0.0,0.0,0.0,0.0,0.0,0.0,0.0,0.0,0.0,0.0,0.0,0.0,0.0,0.0,0.0,0.0,0.0,0.0,0.0,0.0,0.0,0.0,0.0,0.0,0.0,0.0,0.0,0.0,0.0,0.0,0.0,0.0,0.0,0.0,0.0,0.0,0.0,0.0,4.4571,4.5736,4.6461,4.6461,4.6828,4.7058,4.7058,4.6691,4.6461,4.6461,4.5333,0.0,0.0,0.0,0.0,0.0,0.0,0.0,0.0,0.0,0.0,0.0,0.0,0.0,0.0,0.0,0.0,0.0,0.0,0.0,0.0,0.0,0.0,0.0,0.0,0.0,0.0,0.0,0.0,0.0,0.0,0.0,0.0,0.0,0.0,0.0,0.0,0.0,0.0,0.0,0.0,0.0,0.0,0.0,0.0,0.0,0.0,0.0,0.0,0.0,0.0,0.0,0.0,0.0,3.623,3.6888,3.848,3.8545,3.9227,4.02,3.8955,3.8297,3.8182,3.8836,0.0,0.0,0.0,0.0,0.0,0.0,0.0,0.0,0.0,0.0,0.0,0.0,0.0,0.0,0.0,0.0,0.0,0.0,0.0,0.0,0.0,0.0,4.1947,4.1947,4.2424,4.2763,4.2094,0.0,0.0,0.0,0.0,0.0,0.0,0.0,0.0,0.0,0.0,0.0,4.5957,4.6828,4.7296,4.7296,4.7893,4.8296,4.8296,4.7709,4.7296,4.7296,4.6535,4.6104,0.0,0.0,0.0,0.0,0.0,0.0,0.0,0.0,0.0,0.0,0.0,0.0,0.0,0.0,0.0,0.0,0.0,0.0,0.0,0.0,0.0,0.0,0.0,0.0,0.0,0.0,0.0,0.0,0.0,0.0,0.0,0.0,2.992,2.9937,0.0,0.0,0.0,0.0,0.0,0.0,0.0,0.0,0.0,0.0,0.0,0.0,0.0,3.6017,3.7137,3.733,3.7706,3.8291,3.7819,3.7755,3.8019,3.8401,3.9328,4.0689,4.1595,0.0,4.0626,4.0736,0.0,0.0,0.0,0.0,0.0,0.0,0.0,0.0,0.0,0.0,0.0,0.0,0.0,0.0,0.0,0.0,0.0,0.0,0.0,0.0,0.0,0.0,4.5259,4.5259,4.5333,4.5406,4.5296,4.4167,4.3176,4.3176,4.3176,4.3424,0.0,0.0,0.0,0.0,0.0,0.0,4.6892,4.7636,4.815,4.815,4.8223,4.8296,4.8296,4.8186,4.815,4.815,4.7379,4.6929,4.6929,4.6168,0.0,0.0,0.0,0.0,0.0,0.0,0.0,0.0,0.0,0.0,0.0,0.0,0.0,0.0,0.0,0.0,0.0,0.0,0.0,0.0,0.0,0.0,0.0,0.0,0.0,0.0,0.0,0.0,0.0,3.0768,3.1321,3.1096,3.2091,3.2845,0.0,0.0,0.0,0.0,0.0,0.0,0.0,0.0,0.0,3.64,3.6727,3.7159,3.7718,3.8257,3.8834,3.9448,3.9658,4.0164,4.0944,4.1138,4.1966,4.3217,4.3788,4.394,4.3782,4.3782,4.3782,4.3782,0.0,0.0,0.0,0.0,4.3782,4.3782,4.3782,4.3782,4.3709,4.3269,0.0,0.0,0.0,0.0,0.0,0.0,0.0,4.4929,4.5296,4.5626,4.5883,4.5883,4.625,4.6571,4.6571,4.6397,4.592,4.5011,4.4864,4.4975,4.5296,4.5369,0.0,0.0,0.0,4.7259,4.7709,4.8076,4.8296,4.8296,4.8296,4.8296,4.8296,4.8296,4.8296,4.8296,4.7966,4.7783,4.7783,4.7012,4.6323,0.0,0.0,0.0,0.0,0.0,0.0,0.0,0.0,0.0,0.0,0.0,0.0,0.0,0.0,0.0,0.0,0.0,0.0,0.0,0.0,0.0,0.0,0.0,0.0,0.0,0.0,0.0,0.0,3.1955,3.2613,3.2415,3.3628,3.434,0.0,0.0,0.0,0.0,0.0,0.0,3.7021,3.7088,3.7494,3.843,3.8464,3.8633,3.9039,3.958,4.0121,4.0684,4.1238,4.2031,4.3044,4.3217,4.3979,4.5147,4.5328,4.5823,4.6471,4.6067,4.5883,4.5883,4.5883,4.5883,4.5883,4.5883,4.5883,4.5883,4.5883,4.5883,4.581,4.5214,4.4993,4.4993,4.4993,0.0,0.0,0.0,0.0,4.625,4.6471,4.6507,4.6507,4.6507,4.6975,4.7406,4.7406,4.7893,4.7929,4.6764,4.6507,4.6507,4.6507,4.6507,0.0,4.7305,4.7406,4.7709,4.8526,4.8636,4.871,4.893,4.892,4.892,4.892,4.892,4.892,4.892,4.8746,4.8636,4.8636,4.7856,4.7296,4.7113,0.0,0.0,0.0,0.0,0.0,0.0,0.0,0.0,0.0,0.0,0.0,0.0,0.0,0.0,0.0,0.0,0.0,0.0,0.0,0.0,0.0,0.0,0.0,0.0,0.0,0.0,0.0,0.0,0.0,3.4006,3.4937,0.0,0.0,0.0,0.0,3.7741,3.7741,3.7741,3.7855,3.7855,3.8497,3.9943,4.0011,4.0641,4.2063,4.213,4.2151,4.2198,4.2232,4.2279,4.2379,4.2994,4.4025,4.5335,4.5943,4.6987,4.8039,4.6544,4.5883,4.5883,4.5883,4.5883,4.5883,4.5883,4.5883,4.5883,4.5883,4.5883,4.5883,4.5847,4.5847,4.5847,4.5847,4.5883,0.0,0.0,4.7039,4.7232,4.7966,4.8196,4.8196,4.8196,4.8223,4.8223,4.8223,4.826,4.826,4.8186,4.8196,4.8196,4.8196,0.0,4.8186,4.8223,4.8223,4.8563,4.9417,4.9537,4.9821,5.0582,5.0655,5.0655,5.0655,5.0655,5.0655,5.0655,4.9968,4.9537,4.9537,4.871,4.7893,4.7113,4.7076,0.0,0.0,0.0,0.0,0.0,0.0,0.0,0.0,0.0,0.0,0.0,0.0,0.0,0.0,0.0,0.0,0.0,0.0,0.0,0.0,0.0,0.0,0.0,0.0,0.0,0.0,0.0,0.0,3.5497,3.6444,0.0,3.7099,3.7572,3.8294,3.9254,3.9309,3.9737,4.0663,4.073,4.0967,4.1487,4.1521,4.1758,4.23,4.276,4.3017,4.3017,4.3518,4.3966,4.4384,4.4608,4.542,4.6646,4.6899,4.7502,4.8269,4.7672,4.7462,4.7462,4.7462,4.7462,4.7462,4.7462,4.7462,4.7462,4.7462,4.7462,4.7462,4.7462,4.7462,4.7462,4.7462,4.7462,4.7609,4.8453,4.8719,4.8893,4.9701,4.9921,4.9921,4.9921,4.9921,4.9921,4.9921,4.9921,4.9921,4.9921,4.9481,4.9297,4.9811,4.9921,4.9921,4.9921,4.9921,5.0031,5.0325,5.0362,5.0472,5.0765,5.0802,5.0802,5.0802,5.0802,5.0802,5.0802,5.0545,5.0362,5.0362,5.0068,4.9774,4.9471,4.8967,4.8612,0.0,0.0,0.0,0.0,0.0,0.0,0.0,0.0,0.0,0.0,0.0,0.0,0.0,0.0,0.0,0.0,0.0,0.0,0.0,0.0,0.0,0.0,0.0,0.0,0.0,0.0,3.6548,3.7019,3.8013,3.8633,3.8654,3.9106,3.9783,4.0777,4.0832,4.1271,4.2266,4.23,4.2401,4.2658,4.2658,4.2794,4.3078,4.3572,4.3809,4.3795,4.4364,4.4797,4.5188,4.5412,4.5952,4.6821,4.751,4.8042,4.8453,4.8925,4.915,4.9077,4.8517,4.8296,4.8296,4.8296,4.8489,4.8783,4.904,4.915,4.915,4.915,4.915,4.915,4.915,4.915,4.926,4.9858,5.0004,5.0115,5.0655,5.0802,5.0802,5.0802,5.0802,5.0802,5.0802,5.1022,5.1279,5.1573,5.0729,5.0188,5.0729,5.0802,5.0802,5.0802,5.0802,5.0912,5.1169,5.1206,5.1426,5.1977,5.2013,5.2123,5.2417,5.2417,5.2307,5.2013,5.1756,5.1499,5.1206,5.0949,5.0802,5.0802,5.0298,5.0004,5.0004,0.0,0.0,0.0,0.0,0.0,0.0,0.0,0.0,0.0,0.0,0.0,0.0,0.0,0.0,0.0,0.0,0.0,0.0,0.0,0.0,0.0,0.0,0.0,3.7187,3.7619,3.8135,3.8605,3.9539,4.0168,4.0176,4.1474,4.23,4.2333,4.2333,4.2367,4.2367,4.2367,4.2692,4.3423,4.3457,4.3795,4.4601,4.4615,4.4615,4.4615,4.4615,4.4635,4.4663,4.5257,4.555,4.5701,4.7734,4.8612,4.8772,5.0221,5.0802,5.0655,4.8994,4.837,4.837,4.837,4.8893,4.9757,5.0545,5.0802,5.0802,5.0802,5.0802,5.0802,5.0802,5.0802,5.0802,5.0875,5.0875,5.0875,5.0949,5.0949,5.0949,5.0949,5.0949,5.0949,5.0949,5.1573,5.2344,5.3104,5.2003,5.0949,5.0949,5.0949,5.0949,5.0949,5.0949,0.0,5.2024,5.2097,5.2721,5.4252,5.4436,5.473,5.5548,5.5585,5.5254,5.4473,5.3691,5.2931,5.2134,5.1353,5.0949,5.0912,5.0912,5.0912,5.0875,0.0,0.0,0.0,0.0,0.0,0.0,0.0,0.0,0.0,0.0,0.0,0.0,0.0,0.0,0.0,0.0,0.0,0.0,0.0,0.0,0.0,0.0,4.0003,3.8397,3.8939,3.9553,3.9691,4.0879,4.169,4.1711,4.2049,4.2523,4.3051,4.3085,4.3335,4.3924,4.3958,4.4059,4.4262,4.4262,4.4364,4.4615,4.4615,4.4615,4.4615,4.5142,4.5399,4.5413,4.6121,4.6989,4.7912,4.8494,4.9295,5.0232,5.0631,5.0802,5.0765,5.0278,5.0105,5.0105,5.0105,5.0251,5.0508,5.0729,5.0802,5.0802,5.0802,5.0802,5.0802,5.0802,5.0802,5.1059,5.2223,5.2553,5.281,5.3969,5.43,5.43,5.43,5.43,5.43,5.43,5.4447,5.4667,5.4887,5.4583,5.43,5.43,5.43,5.43,5.43,5.43,5.4373,5.4594,5.4594,5.4777,5.5218,5.5254,5.5365,5.5585,5.5585,5.5511,5.5291,5.5071,5.4851,5.463,5.441,5.4006,5.3408,5.3408,5.3115,0.0,0.0,0.0,0.0,0.0,0.0,0.0,0.0,0.0,0.0,0.0,0.0,0.0,0.0,0.0,0.0,0.0,0.0,0.0,0.0,0.0,0.0,4.1273,4.1824,4.036,4.0653,4.1014,4.1014,4.2049,4.276,4.276,4.3078,4.345,4.3876,4.391,4.4127,4.4567,4.4615,4.4615,4.4615,4.4905,4.5074,4.5074,4.5379,4.5514,4.5514,4.594,4.6143,4.6177,4.6583,4.7224,4.8009,4.8924,4.9734,5.0535,5.1412,5.2013,5.2197,0.0,0.0,0.0,0.0,5.1536,5.1856,5.2197,5.2527,5.2821,5.2821,5.2821,5.2821,5.2821,5.2821,5.3004,5.3959,5.4216,5.4436,5.5365,5.5585,5.5585,5.5585,5.5585,5.5585,5.5585,5.5879,5.6088,5.6088,5.6381,0.0,5.6613,5.6062,5.5585,5.5585,5.5585,5.5585,5.5585,5.5585,5.5732,5.6062,5.6088,5.6246,5.6576,5.6613,0.0,0.0,0.0,5.5941,5.5622,5.5585,0.0,0.0,0.0,5.4656,5.4216,5.4216,0.0,0.0,5.1989,5.1852,0.0,0.0,0.0,0.0,0.0,0.0,0.0,0.0,0.0,0.0,0.0,0.0,0.0,0.0,0.0,0.0,4.2766,4.3194,4.2528,4.2503,4.2536,4.2435,4.3085,4.3524,4.3524,4.4195,4.4615,4.4615,4.4615,4.4649,4.4702,4.4702,0.0,0.0,0.0,4.5838,4.5838,4.6481,4.68,4.68,4.6887,4.6921,4.6921,4.6989,4.7149,4.7379,4.9291,5.0284,5.0667,5.2554,5.3821,5.4326,5.2197,5.1353,5.1426,5.2134,5.2858,5.3581,5.4289,0.0,0.0,5.5585,5.5585,5.5585,5.5585,5.5585,5.5622,5.5695,5.5732,5.5768,5.5842,5.5879,5.5879,5.5989,5.6025,5.6025,5.6136,5.6712,5.7214,5.7214,5.7776,5.8253,5.8253,5.6943,5.5879,5.5879,5.5952,5.6025,5.6025,5.6099,5.6418,5.7152,5.7214,0.0,5.8217,5.8253,5.796,5.7251,5.7214,5.6895,5.6172,5.6136,5.6136,5.6136,5.6136,5.6136,5.6136,5.6136,5.6136,5.6099,5.4289,5.3911,0.0,0.0,0.0,0.0,0.0,0.0,0.0,0.0,0.0,0.0,0.0,0.0,0.0,0.0,0.0,4.3057,4.4026,4.4441,4.3328,4.3755,4.3924,4.3254,4.3876,4.4364,4.4364,4.4499,4.4615,4.4615,4.4615,4.4871,4.5466,4.55,4.5771,4.636,4.6515,4.6597,4.6597,4.6733,4.68,4.68,4.7394,0.0,4.7718,4.8308,4.9214,5.037,5.0777,5.1969,5.366,5.4074,5.4707,5.5328,5.4851,5.4667,5.4704,5.4851,5.4997,5.5144,5.5328,5.5475,5.5585,5.5585,5.5585,5.5585,5.5585,5.5585,0.0,5.6381,5.6565,5.6712,5.7373,5.7519,5.7703,5.8352,5.8499,5.8682,5.9318,5.9612,5.971,5.971,5.9832,5.9942,5.9942,5.8584,5.7519,5.7519,5.8107,5.8499,5.8499,5.9049,5.9538,5.9685,5.971,5.9758,5.9905,5.9942,5.9869,5.9722,5.971,5.9648,5.9465,5.9465,5.9465,5.9465,5.9465,5.9465,5.9465,5.9465,5.9465,5.9391,5.6492,5.5574,0.0,0.0,0.0,0.0,0.0,0.0,0.0,0.0,0.0,0.0,0.0,4.275,0.0,0.0,4.4354,4.3897,4.4429,4.4703,4.4074,4.4364,4.4465,4.4045,4.4364,4.4615,4.4615,4.4939,4.5142,4.5142,4.5481,4.5853,4.6244,4.6244,4.6413,4.68,4.7158,4.7361,4.7361,4.7733,4.7902,4.7902,4.8646,4.9018,4.9052,4.9747,5.049,5.1249,5.1964,5.2933,5.4064,5.516,5.5877,5.6235,5.6638,5.6319,5.5585,5.5585,5.5842,5.6198,5.6198,5.6455,5.6796,5.6796,5.6796,5.6796,5.6796,5.7079,5.7483,5.7875,5.8279,5.8682,5.9098,5.9208,5.9318,5.971,5.9783,5.9893,6.0297,6.0419,6.0419,6.0419,6.0419,6.0419,6.0419,5.9722,5.9208,5.9208,5.9526,5.9783,5.9783,6.015,6.0419,6.0419,6.0419,6.0419,6.0419,6.0419,6.0419,6.0419,6.0419,6.0419,6.0419,6.0419,6.0419,6.0419,6.0419,6.0419,6.0419,6.0419,6.0419,6.037,5.8731,5.8217,0.0,0.0,0.0,0.0,0.0,0.0,0.0,4.158,4.2021,4.3616,4.3897,4.4161,4.522,4.5309,4.5139,4.4781,4.4765,4.4734,4.4629,4.4702,4.4804,4.4804,4.4804,4.4804,4.4804,4.5466,4.5906,4.5906,4.6447,4.6853,4.6989,4.7022,4.709,4.7225,4.7785,4.8191,4.8326,4.8917,4.9289,4.9409,5.0033,5.0304,5.0338,5.093,5.1269,5.1501,5.2991,5.371,5.3992,5.5982,5.6891,5.7104,5.7923,5.7446,5.6282,5.6136,5.6492,5.7068,5.7214,5.7691,5.8253,5.8437,5.8474,5.8474,5.8474,5.8914,5.9416,5.9416,5.9893,6.0419,6.0419,6.0419,6.0456,6.0603,6.0639,6.0676,6.0811,6.086,6.086,6.086,6.086,6.086,6.086,6.086,6.0774,6.0456,6.0529,6.0639,6.0639,6.0786,6.086,6.086,6.086,6.086,6.086,6.086,6.086,6.086,6.086,6.086,6.086,6.086,6.086,6.086,6.086,6.086,6.086,6.086,6.086,6.086,6.086,6.0786,3.8424,3.9452,4.0626,4.081,4.092,4.136,0.0,0.0,4.369,4.5296,4.5302,4.5383,4.6655,4.6085,4.5623,4.6092,4.5743,4.5188,4.4665,4.5162,4.5568,4.5568,4.5568,4.5568,4.5568,4.6244,4.6699,4.6699,4.6766,4.709,4.7752,4.7785,4.809,4.8748,4.8834,4.9187,4.9846,4.9947,5.0304,5.0964,5.1032,5.1066,5.1066,5.1167,5.1539,5.2247,5.3789,5.4839,5.5532,5.6489,5.7255,5.796,5.8756,5.8976,5.8719,5.7997,5.7776,5.796,5.8682,5.8976,5.9196,5.9905,6.0126,6.0126,6.0126,6.0187,6.026,6.026,6.0334,6.0419,6.0419,6.0419,6.0566,6.13,6.1484,6.1667,6.2389,6.2536,6.2536,6.2536,6.2536,6.2536,6.2536,6.2536,6.2059,6.0639,6.1006,6.1484,6.1484,6.2095,6.2536,6.2536,6.2536,6.2536,6.2536,6.2536,6.2536,6.2536,6.2536,6.2536,6.2536,6.2536,6.2536,6.2536,6.2536,6.2536,6.2536,6.2536,6.2536,6.2536,6.2536,6.2132,4.0112,4.125,4.2506,4.2506,4.3204,4.4085,4.4754,4.4901,4.5223,4.6351,4.6438,4.639,4.6633,4.6317,4.5865,0.0,4.5506,4.5547,4.5272,4.5872,4.6346,4.6346,4.6718,4.6805,4.638,4.7022,4.7447,4.7447,4.7834,4.8206,4.8529,4.8951,4.9323,4.9627,5.0067,5.0423,5.0744,5.0744,5.0897,5.1201,5.1641,5.1844,5.186,5.2334,5.2952,5.3722,5.5283,5.6382,5.7191,5.8426,5.9115,5.9428,5.9783,5.9893,5.9857,5.9538,5.9391,5.9428,5.9783,5.9893,5.993,6.0309,6.0419,6.0419,6.0419,6.075,6.108,6.108,6.1447,6.1802,6.1802,6.1802,6.1875,6.2218,6.2291,6.2389,6.2719,6.2793,6.2793,6.2793,6.2793,6.2793,6.2793,6.2793,6.2572,6.1912,6.2059,6.2291,6.2291,6.2572,6.2793,6.2793,6.2793,6.2793,6.2793,6.2793,6.2793,6.2793,6.2793,6.2793,6.2793,6.2793,6.2793,6.2793,6.2793,6.2793,6.2793,6.2793,6.2793,6.2793,6.2793,6.2609,4.2314,4.3277,4.4167,4.4167,4.5039,4.5957,4.6177,4.625,4.6424,4.7051,4.7041,4.6794,4.6447,4.6136,4.5756,4.5214,4.5473,4.5771,4.5974,4.665,4.709,4.709,4.7752,4.8056,4.7733,4.8003,4.8293,4.8496,4.9018,4.939,4.9593,5.0101,5.0405,5.0405,5.0897,5.1302,5.1505,5.1505,5.1607,5.1844,5.2367,5.2638,5.2672,5.345,5.4072,5.4672,5.5993,5.702,5.785,5.9227,5.9903,6.0114,6.0567,6.075,6.075,6.097,6.0786,6.0419,6.0639,6.075,6.0786,6.0994,6.1068,6.1068,6.1068,6.1484,6.1924,6.1924,6.2365,6.2793,6.2793,6.2793,6.2793,6.2793,6.2793,6.2793,6.2793,6.2793,6.2793,6.2793,6.2793,6.2793,6.2793,6.2793,6.2793,6.2793,6.2793,6.2793,6.2793,6.2793,6.2793,6.2793,6.2793,6.2793,6.2793,6.2793,6.2793,6.2793,6.2793,6.2793,6.2793,6.2793,6.2793,6.2793,6.2793,6.2793,6.2793,6.2793,6.2793,6.2793,6.2793,6.2939,4.5333,4.5773,4.581,4.581,4.5847,4.6104,4.6902,4.7076,4.7126,4.7352,4.6874,4.6436,4.6401,4.5451,4.5063,4.6318,4.6068,4.594,4.665,4.7394,4.7887,4.7887,4.8529,4.9255,0.0,4.9357,4.9255,4.9981,5.0049,5.0371,5.11,5.1167,5.1167,5.1167,5.1201,5.1539,5.2266,5.2266,5.2672,5.345,5.345,5.345,5.3484,5.4228,5.4601,5.4652,5.5414,5.615,5.692,5.7792,5.8602,5.941,6.0943,6.1557,6.1667,6.2426,6.1728,6.0529,6.13,6.1557,6.1704,6.2462,6.2719,6.2719,6.2719,6.2756,6.2756,6.2756,6.2793,6.2793,6.2793,6.2793,6.2793,6.2793,6.2793,6.2793,6.2793,6.2793,6.2793,6.2793,6.2793,6.2793,6.2793,6.2793,6.2793,6.2793,6.2793,6.2793,6.2793,6.2793,6.2793,6.2793,6.2793,6.2793,6.2793,6.2793,6.2793,6.2793,6.2793,6.2793,6.2793,6.2793,6.2793,6.2793,6.2793,6.2793,6.2793,6.2793,6.2793,6.2793,6.2793,6.3246,4.5736,4.6287,4.6718,4.6718,4.7085,4.7562,4.7819,4.7893,4.7785,4.7476,4.7607,4.7546,4.671,4.6605,4.6659,4.6729,4.6981,4.7244,4.7481,4.8157,4.88,4.9289,4.9593,0.0,0.0,0.0,0.0,5.0777,5.0845,5.093,5.1201,5.1641,5.1928,5.1928,5.2469,5.2841,5.3078,5.3112,5.3247,5.3518,5.3991,5.4499,5.4955,5.5243,5.5344,5.5413,5.6679,5.7686,5.8556,5.988,6.0878,6.1635,6.2192,6.2401,6.2426,6.2683,6.2462,6.2022,6.2279,6.2401,6.2426,6.2719,6.2793,6.2793,6.2793,6.2793,6.2793,6.2793,6.2793,6.2793,6.2793,6.2793,6.2793,6.2793,6.2793,6.2793,6.2793,6.2793,6.2793,6.2793,6.2793,6.2793,6.2793,6.2793,6.2793,6.2793,6.2793,6.2793,6.2793,6.2793,6.2793,6.2793,6.2793,6.2793,6.2793,6.2793,6.2793,6.2793,6.2793,6.2793,6.2793,6.2793,6.2793,6.2793,6.3356,6.3649,6.3649,6.4187,6.4444,6.4444,6.4444,6.4628,4.6691,4.7122,4.7526,4.7526,4.7929,4.8248,4.8035,4.7995,4.7746,4.6887,4.7298,4.7519,4.6485,4.6873,4.7335,4.7198,4.7582,4.7988,4.8259,4.8951,4.956,5.0049,5.0338,5.0777,0.0,0.0,0.0,5.1539,5.1573,5.1708,5.2013,5.2469,5.2739,5.2739,5.3247,5.3518,5.3518,5.3754,5.4025,5.4279,5.4769,5.5243,5.5699,5.5969,5.6071,5.6158,5.7705,5.8711,5.9366,6.0942,6.1879,6.2389,6.2705,6.2793,6.2793,6.2793,6.2793,6.2793,6.2793,6.2793,6.2793,6.2793,6.2793,6.2793,6.2793,6.2793,6.2793,6.2793,6.2793,6.2793,6.2793,6.2793,6.2793,6.2793,6.2793,6.2793,6.2793,6.2793,6.2793,6.2793,6.2793,6.2793,6.2793,6.2793,6.2793,6.2793,6.2793,6.2793,6.2793,6.2793,6.2793,6.2793,6.2793,6.2793,6.2793,6.3086,6.3282,6.3282,6.3527,6.3673,6.3673,6.3673,6.3673,6.3673,6.4237,6.453,6.453,6.5044,6.5288,6.5288,6.5288,6.5435,4.8076,4.8296,4.8296,4.8296,4.8277,4.8094,4.7512,4.7374,4.7024,4.5797,4.6139,4.6466,0.0,0.0,4.7124,4.7853,4.7954,4.8225,4.8951,4.9661,5.015,0.0,0.0,0.0,0.0,0.0,0.0,5.2367,5.2367,5.2706,5.345,5.3518,5.3518,5.3518,5.3551,5.3551,5.3551,5.4296,5.504,5.5767,5.5767,5.5767,5.5834,5.6562,5.6867,5.6954,5.8411,5.906,5.9228,6.0858,6.1576,6.1687,6.249,6.2793,6.2793,6.2793,6.2793,6.2793,6.2793,6.2793,6.2793,6.2793,6.2793,6.2793,6.2793,6.2793,6.2793,6.2793,6.2793,6.2793,6.2793,6.2793,6.2793,6.2793,6.2793,6.2793,6.2793,6.2793,6.2793,6.2793,6.2793,6.2793,6.2866,6.2866,6.2866,6.2903,6.2939,6.2903,6.2866,6.2866,6.2866,6.2903,6.2939,6.2939,6.2939,6.3686,6.4176,6.4176,6.4897,6.5288,6.5288,6.5288,6.5288,6.5288,6.5325,6.5362,6.5362,6.5398,6.5398,6.5398,6.5398,6.5852,4.8223,4.8296,4.8296,4.8296,4.7975,4.7611,4.7428,4.701,4.659,4.6356,4.6909,4.7403,4.7344,4.7921,0.0,4.8698,4.8698,0.0,4.9729,4.9965,0.0,5.1623,0.0,5.2334,5.3112,5.3179,0.0,0.0,5.3179,5.3281,5.3484,5.3518,5.3518,5.3518,5.4025,5.4329,5.4329,5.5074,5.5784,5.6528,5.6528,5.6799,5.734,5.7509,5.7611,5.7629,5.8051,5.8546,5.9178,6.0273,6.1055,6.1687,6.249,6.2793,6.2793,6.2793,6.2793,6.2793,6.2793,6.2793,6.2793,6.2793,6.2793,6.2793,6.2793,6.2793,6.2793,6.2793,6.2793,6.2793,6.2793,6.2793,6.2793,6.2793,6.2793,6.2793,6.2793,6.2793,6.2793,6.2793,6.2793,6.3013,6.3649,6.3759,6.398,6.4554,6.4664,6.4444,6.3833,6.3759,6.4016,6.4591,6.4664,6.4664,6.4664,6.4861,6.5007,6.5007,6.5178,6.5288,6.5288,6.5288,6.5288,6.5288,6.5888,6.6182,6.6219,6.6806,6.71,6.71,6.71,6.7187,4.8296,4.8296,4.8296,4.8296,4.7838,4.7331,4.7021,4.6484,4.6025,4.6199,4.6789,4.7435,4.7827,4.8496,4.9018,0.0,0.0,0.0,5.0015,5.0371,5.1014,0.0,5.2604,0.0,5.345,5.3518,5.3518,0.0,5.3518,5.3518,5.3518,5.3822,5.3991,5.3991,5.4702,5.5243,5.5547,5.5987,5.6544,5.7273,5.7273,5.7476,5.79,5.79,5.79,5.7918,5.8264,5.8892,5.9752,6.058,6.1407,6.2156,6.2605,6.2793,6.2793,6.2793,6.2793,6.2793,6.2793,6.2793,6.2793,6.2793,6.2793,6.2793,6.2793,6.2793,6.2793,6.2793,6.2793,6.2793,6.2793,6.2793,6.2793,6.2793,6.2793,6.2793,6.2793,6.2793,6.2903,6.3319,6.3649,6.404,6.453,6.464,6.4787,6.5215,6.5288,6.5264,6.5154,6.4861,6.4787,6.5251,6.5288,6.5288,6.5288,6.5618,6.5852,6.5852,6.6145,6.6366,6.6366,6.6366,6.6366,6.6366,6.6806,6.7026,6.7026,6.748,6.77,6.77,6.77,6.77,4.8296,4.8296,4.8287,4.8219,4.7726,4.7077,4.6413,4.5803,4.5455,4.5662,4.6278,4.7022,4.7752,4.8496,4.9018,4.9018,0.0,4.9289,5.0135,5.0811,5.1505,5.2367,5.3078,5.3518,5.3518,5.3518,5.3551,5.3653,5.3653,5.3653,5.3653,5.4329,5.4769,5.4888,5.5496,5.6206,5.6934,5.6934,5.7273,5.79,5.79,5.79,5.79,5.79,5.79,5.7954,5.8737,5.9541,6.0289,6.1214,6.2009,6.263,6.2755,6.2793,6.2793,6.2793,6.2793,6.2793,6.2793,6.2793,6.2793,6.2793,6.2793,6.2793,6.2793,6.2793,6.2793,6.2793,6.2793,6.2793,6.2793,6.2793,6.2793,6.2793,6.2903,6.2976,6.2976,6.305,6.3343,6.409,6.4824,6.5325,6.5435,6.5472,6.5508,6.5582,6.5618,6.5888,6.6549,6.5962,6.5508,6.5632,6.5618,6.5618,6.5618,6.6256,6.6659,6.6659,6.7297,6.77,6.77,6.77,6.77,6.77,6.77,6.77,6.77,6.77,6.77,6.77,6.77,6.77,4.8296,4.8296,4.82,4.7684,4.7055,4.6389,4.5778,4.5209,4.4924,4.5563,4.6278,4.7022,4.7752,4.8496,4.9018,4.9018,4.9018,4.9476,5.0829,5.1133,5.1708,0.0,5.3416,5.3518,5.3518,5.3518,0.0,0.0,5.4397,5.4397,5.4397,5.5108,5.5784,5.6393,5.6528,5.6968,5.7697,5.7712,5.7764,5.79,5.79,5.79,5.79,5.79,5.79,5.7954,5.8737,5.9178,5.9459,6.0961,6.1687,6.1851,6.2541,6.2793,6.2793,6.2793,6.2793,6.2793,6.2793,6.2793,6.2793,6.2793,6.2793,6.2793,6.2793,6.2793,6.2793,6.2793,6.2793,6.2793,6.2793,6.2793,6.2793,6.2793,6.3356,6.387,6.387,6.442,6.4921,6.5081,6.5178,6.5508,6.6182,6.6292,6.6512,6.7187,6.7297,6.7333,6.748,6.6769,6.6549,6.7223,6.7297,6.7297,6.7297,6.7407,6.748,6.748,6.7627,6.77,6.77,6.77,6.77,6.77,6.77,6.77,6.77,6.77,6.77,6.77,6.77,6.77,4.8296,4.8296,4.8143,4.7533,4.7143,4.6682,4.5724,4.5267,4.5193,4.5605,4.6278,4.7022,4.7752,4.8496,4.9018,4.9018,4.9323,4.9965,5.1066,5.1539,5.2182,5.3382,5.3518,5.3518,5.3518,5.3856,5.4228,5.4566,5.531,5.5581,5.5209,5.5868,5.663,5.734,5.7374,5.7543,5.79,5.79,5.79,5.79,5.79,5.79,5.79,5.79,5.79,5.7954,5.8737,5.9361,5.988,6.1099,6.186,6.2271,6.2667,6.2793,6.2793,6.2793,6.2793,6.2793,6.2793,6.2793,6.2793,6.2793,6.2793,6.2793,6.2793,6.2793,6.2793,6.2793,6.2793,6.2903,6.3356,6.3466,6.3576,6.4004,6.4407,6.4714,6.4714,6.5375,6.5925,6.5925,6.6256,6.6659,6.7063,6.71,6.726,6.7627,6.77,6.77,6.77,6.737,6.726,6.7664,6.77,6.77,6.77,6.77,6.77,6.77,6.77,6.77,6.77,6.77,6.77,6.77,6.77,6.77,6.77,6.77,6.77,6.77,6.77,6.77,4.8296,4.8219,4.8005,4.7502,4.7299,4.6887,4.5775,4.5494,4.5492,4.5487,4.6041,4.6786,4.7515,4.8259,4.8815,4.8984,4.9627,5.0338,5.11,5.181,5.2604,5.3416,5.3518,0.0,5.3721,5.4262,0.0,5.5057,5.6292,5.6799,5.6206,5.6731,5.7306,5.79,5.79,5.79,5.79,5.79,5.79,5.79,5.79,5.79,5.79,5.79,5.8009,5.8209,5.9027,5.988,6.0715,6.1534,6.2245,6.2793,6.2793,6.2793,6.2793,6.2793,6.2793,6.2793,6.2793,6.2793,6.2829,6.3013,6.2939,6.2793,6.2793,6.2939,6.3086,6.3086,6.3196,6.349,6.4163,6.4347,6.4567,6.5375,6.5545,6.5582,6.5778,6.6329,6.6769,6.6769,6.726,6.77,6.77,6.77,6.77,6.77,6.77,6.77,6.77,6.77,6.77,6.77,6.77,6.77,6.77,6.77,6.77,6.77,6.77,6.77,6.77,6.77,6.77,6.77,6.77,6.77,6.77,6.77,6.77,6.77,6.77,6.77,4.8296,4.7889,4.7459,4.7406,4.6943,4.6341,4.5661,4.5494,4.5368,4.4822,4.5311,4.6041,4.6752,4.7496,4.8225,4.8883,4.9627,5.0338,5.11,5.181,5.2604,5.3416,0.0,0.0,5.4431,5.4583,5.5141,5.6494,5.734,5.7764,5.7697,5.7764,5.7832,5.79,5.79,5.79,5.79,5.79,5.79,5.79,5.79,5.79,5.79,5.79,5.8299,5.9027,5.9896,6.0745,6.1562,6.235,6.2743,6.2793,6.2793,6.2793,6.2793,6.2793,6.2793,6.2793,6.2793,6.2793,6.2939,6.3723,6.3466,6.2793,6.2793,6.3356,6.3992,6.3992,6.4494,6.5068,6.5178,6.5178,6.5411,6.6219,6.6402,6.6586,6.7333,6.7554,6.759,6.759,6.7664,6.77,6.77,6.77,6.77,6.77,6.77,6.77,6.77,6.77,6.77,6.77,6.77,6.77,6.77,6.77,6.77,6.77,6.77,6.77,6.77,6.77,6.77,6.77,6.77,6.77,6.77,6.77,6.77,6.77,6.77,6.77,4.8296,4.8114,4.7848,4.7481,4.7223,4.6739,4.5737,4.5494,4.5333,4.472,4.521,4.594,4.665,4.7394,4.8157,4.8883,4.9999,5.0863,5.1167,5.2249,5.3145,5.345,5.3518,5.3788,0.0,0.0,5.5886,5.734,5.7712,5.79,5.79,5.79,5.79,5.79,5.79,5.79,5.79,5.79,5.79,5.79,5.79,5.79,5.7918,5.8405,5.8789,5.9178,6.0529,6.1286,6.1673,6.2477,6.2793,6.2793,6.2793,6.2793,6.2793,6.2793,6.2793,6.2793,6.2793,6.3123,6.3649,6.3992,6.42,6.4297,6.4297,6.4554,6.4824,6.4824,6.5031,6.5398,6.5888,6.6366,6.6843,6.7136,6.7223,6.7297,6.7627,6.77,6.77,6.77,6.77,6.77,6.77,6.77,6.77,6.77,6.77,6.77,6.77,6.77,6.77,6.77,6.77,6.77,6.77,6.77,6.77,6.77,6.77,6.77,6.77,6.77,6.77,6.77,6.77,6.77,6.77,6.77,6.77,6.77,6.77,6.7958,4.8085,4.8035,4.7945,4.7502,4.7266,4.6876,4.5965,4.5635,4.5333,4.472,4.5007,4.5669,4.6616,4.7225,4.7887,4.8849,5.022,5.1201,5.1201,5.252,5.3518,5.3518,0.0,5.4126,5.4837,5.5784,5.6799,5.7832,5.79,5.79,5.79,5.79,5.79,5.79,5.79,5.79,5.79,5.79,5.79,5.79,5.79,5.79,5.7936,5.872,5.9245,5.9574,6.0961,6.1728,6.1996,6.2567,6.2793,6.2793,6.2793,6.2793,6.2793,6.2793,6.2976,6.316,6.316,6.3759,6.4494,6.4714,6.5191,6.5705,6.5925,6.5852,6.5655,6.5655,6.5852,6.6145,6.6696,6.7297,6.77,6.77,6.77,6.77,6.77,6.77,6.77,6.77,6.77,6.77,6.77,6.77,6.77,6.77,6.77,6.77,6.77,6.77,6.77,6.77,6.77,6.77,6.77,6.77,6.77,6.77,6.77,6.77,6.77,6.77,6.77,6.77,6.77,6.77,6.77,6.77,6.7811,6.8054,6.8054,6.8495,4.7554,4.7406,4.7406,4.7396,4.691,4.6389,4.6377,4.5927,4.5333,4.472,4.4615,4.5041,4.653,4.68,4.7293,4.8748,5.022,5.1201,5.1201,5.252,5.3518,5.3518,5.4126,5.4871,5.5631,5.7036,5.79,5.79,5.79,5.79,5.79,5.79,5.79,5.79,5.79,5.79,5.79,5.79,5.79,5.79,5.79,5.79,5.7936,5.872,5.9574,6.0412,6.1243,6.2049,6.278,6.2793,6.2793,6.2793,6.2793,6.2793,6.2793,6.2793,6.3356,6.4103,6.4103,6.4604,6.5398,6.6219,6.6476,6.6623,6.7444,6.71,6.6476,6.6476,6.7063,6.7664,6.77,6.77,6.77,6.77,6.77,6.77,6.77,6.77,6.77,6.77,6.77,6.77,6.77,6.77,6.77,6.77,6.77,6.77,6.77,6.77,6.77,6.77,6.77,6.77,6.77,6.77,6.77,6.77,6.77,6.77,6.77,6.77,6.77,6.77,6.77,6.77,6.77,6.77,6.8091,6.8898,6.8898,6.9339,4.7544,4.7396,4.7396,4.7396,4.6589,4.589,4.6329,4.561,4.481,4.4623,4.4615,4.5041,4.653,4.68,4.7293,4.8748,5.022,5.1201,5.1201,5.252,5.3518,5.3518,5.46,5.5649,0.0,5.734,5.79,5.79,5.79,5.79,5.79,5.79,5.79,5.79,5.79,5.79,5.79,5.79,5.79,5.79,5.79,5.8191,5.8737,5.959,6.0443,6.1257,6.2063,6.2554,6.2793,6.2793,6.2793,6.2793,6.2793,6.2793,6.2866,6.3466,6.387,6.4176,6.4714,6.5448,6.6145,6.6402,6.688,6.737,6.7627,6.7517,6.7333,6.7333,6.7517,6.77,6.77,6.77,6.77,6.77,6.77,6.77,6.77,6.77,6.77,6.77,6.77,6.77,6.77,6.77,6.77,6.77,6.77,6.77,6.77,6.77,6.77,6.77,6.77,6.77,6.77,6.77,6.77,6.77,6.77,6.77,6.77,6.77,6.77,6.77,6.8238,6.8531,6.8531,6.9082,6.9449,6.9743,7.0279,7.0683,4.7544,4.7396,4.7342,4.7077,4.6257,4.5597,4.5977,4.5294,4.4615,4.4615,4.4804,4.5379,4.6597,4.7022,4.7699,4.9187,5.0423,5.1302,5.1573,5.2689,5.3721,5.4245,5.5395,0.0,0.0,5.7629,5.79,5.79,5.79,5.79,5.79,5.79,5.79,5.79,5.79,5.79,5.79,5.79,5.79,5.79,5.79,5.8317,5.9128,6.0007,6.0835,6.1646,6.2464,6.2793,0.0,6.2793,6.2793,6.2793,6.2793,6.3013,6.3356,6.3906,6.447,6.5081,6.5595,6.6292,6.6953,6.6953,6.7297,6.77,6.77,6.77,6.77,6.77,6.77,6.77,6.77,6.77,6.77,6.77,6.77,6.77,6.77,6.77,6.77,6.77,6.77,6.77,6.77,6.77,6.77,6.77,6.77,6.77,6.77,6.77,6.77,6.77,6.77,6.77,6.77,6.77,6.77,6.77,6.77,6.77,6.77,6.7994,6.8128,6.8128,6.8935,6.9339,6.9339,7.0146,7.055,7.0587,7.138,7.1747,0.0,4.7428,4.7244,4.6495,4.5915,4.5494,4.5494,4.5021,0.0,4.4682,4.5229,4.594,4.6718,4.7447,4.836,4.9864,5.071,5.1472,5.2198,5.3044,5.4126,5.553,5.6341,5.7103,5.7832,5.79,5.79,5.79,5.79,5.79,5.79,5.79,5.79,5.79,5.79,5.79,5.79,5.79,5.79,5.79,5.7972,5.8423,5.9228,6.0102,6.0923,6.1728,6.249,6.2793,6.2793,6.2793,6.2793,6.2793,6.2866,6.3392,6.4103,6.4249,6.5228,6.6512,6.6549,6.7076,6.77,6.77,6.77,6.77,6.77,6.77,6.77,6.77,6.77,6.77,6.77,6.77,6.77,6.77,6.77,6.77,6.77,6.77,6.77,6.77,6.77,6.77,6.77,6.77,6.77,6.77,6.77,6.77,6.77,6.77,6.77,6.77,6.7737,6.7811,6.7811,6.7737,6.7737,6.7774,6.7811,6.7811,6.7884,6.8605,6.9009,6.9009,6.9779,7.022,7.0257,7.1013,7.138,7.1417,7.2165,7.2496,4.8015,0.0,4.711,4.5989,4.5597,4.5494,0.0,4.5021,4.477,4.5331,4.5568,4.6109,4.7413,4.7785,4.836,4.9864,5.071,5.1472,5.2198,5.3484,5.4668,5.5597,5.6341,5.7103,5.7832,5.79,5.79,5.79,5.79,5.79,5.79,5.79,5.79,5.79,5.79,5.79,5.79,5.79,5.79,5.79,5.8511,5.9261,6.0117,6.0953,6.1742,6.2528,6.273,6.2793,6.2793,6.2793,6.2793,6.2866,6.3539,6.3919,6.4249,6.5485,6.6182,6.6586,6.7187,6.7554,6.77,6.77,6.77,6.77,6.77,6.77,6.77,6.77,6.77,6.77,6.77,6.77,6.77,6.77,6.77,6.77,6.77,6.77,6.77,6.77,6.77,6.77,6.77,6.77,6.77,6.77,6.77,6.77,6.77,6.77,6.77,6.77,6.8238,6.8605,6.8605,6.8054,6.7958,6.8568,6.8605,6.8898,6.9486,6.9706,6.9816,6.9816,7.0624,7.1321,7.1945,7.2129,7.2224,7.2224,7.2422,7.2496,4.7797,4.7198,4.6436,4.6014,4.5481,4.5089,4.5089,4.4824,4.4804,4.5534,4.5974,4.6549,4.7684,4.8462,4.9289,5.0439,5.1217,5.2097,5.3213,5.4363,5.5378,5.6122,5.6867,5.7442,5.7866,5.79,5.79,5.79,5.79,5.79,5.79,5.79,5.79,5.79,5.79,5.79,5.79,5.79,5.79,5.79,5.8703,5.9558,6.0448,6.1214,6.2036,6.2793,6.2793,6.2793,6.2793,6.2793,6.2793,6.2903,6.3759,6.4323,6.4787,6.6035,6.6733,6.7113,6.7554,6.77,6.77,6.77,6.77,6.77,6.77,6.77,6.77,6.77,6.77,6.77,6.77,6.77,6.77,6.77,6.77,6.77,6.77,6.77,6.77,6.77,6.77,6.77,6.77,6.77,6.77,6.77,6.77,6.77,6.77,6.8031,6.8238,6.8238,6.8972,6.9449,6.9449,6.9045,6.8972,6.9412,6.9449,6.9633,7.0073,7.044,7.0807,7.1174,7.1651,7.2041,7.2496,7.2496,7.2496,7.2496,7.2496,7.2496,4.7502,4.6542,4.5622,4.6149,4.5481,4.4706,4.4629,4.4702,4.4973,4.5737,4.6447,4.7225,4.809,4.9255,5.0371,5.1235,5.1995,5.2976,5.4397,5.5243,5.5969,5.6697,5.7442,5.79,5.79,5.79,5.79,5.79,5.79,5.79,5.79,5.79,5.79,5.79,5.79,5.79,5.79,5.79,5.7972,5.8083,5.8909,5.9768,6.0595,6.1436,6.2179,6.2793,6.2793,6.2793,6.2793,6.2793,6.2866,6.3086,6.3943,6.4751,6.5582,6.6402,6.7113,6.77,6.77,6.77,6.77,6.77,6.77,6.77,6.77,6.77,6.77,6.77,6.77,6.77,6.77,6.77,6.77,6.77,6.77,6.77,6.77,6.77,6.77,6.77,6.77,6.77,6.77,6.77,6.77,6.77,6.7811,6.7884,6.7884,6.8605,6.9082,6.9082,6.9816,7.0293,7.0293,7.0403,7.0477,7.0477,7.033,7.033,7.044,7.1123,7.1784,7.2496,7.2496,7.2496,7.2496,7.2496,7.2496,7.2496,7.2496,7.2496,4.8025,4.6864,4.5507,4.5622,4.5494,4.5214,4.472,4.5074,4.5737,4.6481,4.7225,4.8157,4.9492,4.9947,5.0541,5.1928,5.2807,5.3619,5.4482,5.5243,5.5969,5.6697,5.7442,5.79,5.79,5.79,5.79,5.79,5.79,5.79,5.79,5.79,5.79,5.79,5.79,5.79,5.79,5.79,5.8228,5.8943,5.9784,6.0625,6.1428,6.2258,6.2692,6.2793,6.2793,6.2793,6.2793,6.2793,6.3246,6.398,6.4787,6.5595,6.6402,6.7223,6.759,6.77,6.77,6.77,6.77,6.77,6.77,6.77,6.77,6.77,6.77,6.77,6.77,6.77,6.77,6.77,6.77,6.77,6.77,6.77,6.77,6.77,6.77,6.77,6.77,6.77,6.77,6.77,6.77,6.77,6.8274,6.8715,6.8715,6.9412,6.9926,6.9926,7.066,7.1123,7.1123,7.1762,7.2129,7.2129,7.149,7.1417,7.2092,7.2239,7.2386,7.2496,7.2496,7.2496,7.2496,7.2496,7.2496,7.2496,7.2496,7.2496,4.7746,4.6682,4.5494,4.5494,4.5241,4.505,4.5179,4.5466,4.6027,4.7158,4.765,4.836,4.9846,5.0439,5.1183,5.2706,5.3585,5.4363,5.5108,5.5852,5.6562,0.0,0.0,5.79,5.79,5.79,5.79,5.79,5.79,5.79,5.79,5.79,5.79,5.79,5.79,5.79,5.79,5.8335,5.872,5.9111,5.9991,6.082,6.1632,6.2415,6.2793,6.2793,6.2793,6.2793,6.2829,6.3319,6.3723,6.4213,6.5448,6.6182,6.6586,6.7407,6.77,6.77,6.77,6.77,6.77,6.77,6.77,6.77,6.77,6.77,6.77,6.77,6.77,6.77,6.77,6.77,6.77,6.77,6.77,6.77,6.77,6.77,6.77,6.77,6.77,6.77,6.77,6.8068,6.8348,6.8348,6.9045,6.9559,6.9559,7.0257,7.077,7.077,7.1454,7.1931,7.1931,7.2312,7.2496,7.2496,7.2165,7.2114,7.2496,7.2496,7.2496,7.2496,7.2496,7.2496,7.2496,7.2496,7.2496,7.2496,7.2496,7.2496,4.7438,4.6577,4.5721,4.5728,4.5309,4.5007,4.5568,4.5959,4.6534,4.7684,4.8157,4.88,5.0101,5.1116,5.2182,5.3551,5.4228,5.4905,5.5834,5.6443,5.707,5.7832,5.79,5.79,5.79,5.79,5.79,5.79,5.79,5.79,5.79,5.79,5.79,5.79,5.79,5.79,5.79,5.8686,5.9195,5.941,6.0273,6.1084,6.1915,6.2528,6.2793,6.2793,6.2793,6.2903,6.316,6.3833,6.4323,6.4787,6.5999,6.6623,6.6843,6.748,6.77,6.77,6.77,6.77,6.77,6.77,6.77,6.77,6.77,6.77,6.77,6.77,6.77,6.77,6.77,6.77,6.77,6.77,6.77,6.77,6.77,6.77,6.77,6.77,6.7847,6.7994,6.7994,6.8641,6.9192,6.9192,6.9889,7.0367,7.0367,7.1087,7.1564,7.1564,7.2114,7.2496,7.2496,7.2496,7.2496,7.2496,7.2496,7.2496,7.2496,7.2496,7.2496,7.2496,7.2496,7.2496,7.2496,7.2496,7.2496,7.2496,7.2496,7.2496,4.7533,4.6887,4.635,4.6504,4.6083,4.5635,4.5703,4.6771,4.7785,4.7887,4.8984,5.0168,5.0964,5.2317,5.3585,5.4397,5.4583,5.5091,5.6528,0.0,5.707,5.7832,5.79,5.79,5.79,5.79,5.79,5.79,5.79,5.79,5.79,5.79,5.79,5.79,5.79,5.79,5.79,5.8686,5.9509,6.0304,6.1128,6.1942,6.273,6.2768,6.2793,6.2793,6.2793,6.3282,6.4029,6.4066,6.4984,6.6329,6.6439,6.6966,6.7627,6.7664,6.77,6.77,6.77,6.77,6.77,6.77,6.77,6.77,6.77,6.77,6.77,6.77,6.77,6.77,6.77,6.77,6.77,6.77,6.77,6.77,6.77,6.77,6.77,6.77,6.8311,6.8825,6.8825,6.9486,7.0,7.0,7.0697,7.1197,7.1197,7.1931,7.2422,7.2422,7.2459,7.2496,7.2496,7.2496,7.2496,7.2496,7.2496,7.2496,7.2496,7.2496,7.2496,7.2496,7.2496,7.2496,7.2496,7.2496,7.2496,7.2496,7.2496,7.2496,4.6955,4.6329,4.5873,4.6001,4.6223,4.6515,4.6974,4.7515,4.8157,4.9086,4.9695,5.0489,5.1657,5.3145,5.4262,5.4532,5.5378,5.6156,5.6731,5.7205,5.7577,5.7866,5.79,5.79,5.79,5.79,5.79,5.79,5.79,5.79,5.79,5.79,5.79,5.79,5.79,5.79,5.79,5.9246,6.007,6.0397,6.12,6.2023,6.2793,6.2793,6.2793,6.2829,6.3392,6.3796,6.4176,6.5167,6.5962,6.6549,6.704,6.7444,6.77,6.77,6.77,6.77,6.77,6.77,6.77,6.77,6.77,6.77,6.77,6.77,6.77,6.77,6.77,6.77,6.77,6.77,6.77,6.77,6.77,6.77,6.77,6.8104,6.8458,6.8458,6.9082,6.9633,6.9633,7.033,7.083,7.083,7.1527,7.2041,7.2041,7.2312,7.2496,7.2496,7.2496,7.2496,7.2496,7.2496,7.2496,7.2496,7.2496,7.2496,7.2496,7.2496,7.2496,7.2496,7.2496,7.2496,7.2496,7.2496,7.2496,7.2496,7.2496,7.2496,4.6565,4.6127,4.5864,4.6025,4.6616,4.7327,4.809,4.8428,4.8868,4.9898,5.0489,5.1183,5.2435,5.3721,5.4668,5.4905,5.5987,5.6867,5.7103,5.7577,5.79,5.79,5.79,5.79,5.79,5.79,5.79,5.79,5.79,5.79,5.79,5.79,5.79,5.79,5.79,5.8045,5.8264,5.9671,6.0519,6.0775,6.1604,6.2271,6.2793,6.2793,6.2793,6.2866,6.3723,6.4249,6.4567,6.5925,6.6659,6.6916,6.748,6.77,6.77,6.77,6.77,6.77,6.77,6.77,6.77,6.77,6.77,6.77,6.77,6.77,6.77,6.77,6.7884,6.8091,6.8091,6.7884,6.7774,6.8031,6.8091,6.8141,6.8398,6.8898,6.9302,6.9302,6.9926,7.0477,7.0477,7.116,7.1674,7.1674,7.2165,7.2496,7.2496,7.2496,7.2496,7.2496,7.2496,7.2496,7.2496,7.2496,7.2496,7.2496,7.2496,7.2496,7.2496,7.2496,7.2496,7.2496,7.2496,7.2496,7.2496,7.2496,7.2496,7.2496,7.2496,7.2496,4.6553,4.65,4.661,4.6772,4.7361,4.809,4.8849,4.956,5.0117,5.0117,5.1285,5.257,5.3382,5.4126,5.4837,5.5597,5.6325,5.707,5.7798,5.79,5.79,5.79,5.79,5.79,5.79,5.79,5.79,5.79,5.79,5.79,5.79,5.79,5.79,5.79,5.79,5.8281,5.9077,5.996,6.079,6.1604,6.2402,6.2793,6.2793,6.2793,6.2793,6.2866,6.3723,6.4567,6.5362,6.6182,6.699,6.77,6.77,6.77,6.77,6.77,6.77,6.77,6.77,6.77,6.77,6.77,6.77,6.77,6.77,6.77,6.77,6.7737,6.8311,6.8898,6.8898,6.8311,6.7921,6.8715,6.8898,6.9119,6.9926,7.011,7.011,7.011,7.077,7.1307,7.1307,7.1967,7.2496,7.2496,7.2496,7.2496,7.2496,7.2496,7.2496,7.2496,7.2496,7.2496,7.2496,7.2496,7.2496,7.2496,7.2496,7.2496,7.2496,7.2496,7.2496,7.2496,7.2496,7.2496,7.2496,7.2496,7.2496,7.2496,7.2496,7.2496,4.5927,4.5858,4.611,4.6675,4.7361,4.8225,4.9492,4.9947,5.0387,5.142,5.2435,5.3382,5.4126,5.4871,5.5615,5.6359,5.7103,5.7663,5.7866,5.79,5.79,5.79,5.79,5.79,5.79,5.79,5.79,5.79,5.79,5.79,5.79,5.79,5.79,5.79,5.79,5.7993,5.8246,5.9671,6.0504,6.076,6.2166,6.2793,6.2793,6.2793,6.3123,6.3759,6.4604,6.5411,6.6219,6.699,6.748,6.77,6.77,6.77,6.77,6.77,6.77,6.77,6.77,6.77,6.77,6.77,6.77,6.7811,6.8385,6.8531,6.8641,6.9229,6.9559,6.9743,6.9743,6.9559,6.9449,6.9706,6.9743,6.9816,7.0036,7.055,7.094,7.094,7.16,7.2151,7.2151,7.2349,7.2496,7.2496,7.2496,7.2496,7.2496,7.2496,7.2496,7.2496,7.2496,7.2496,7.2496,7.2496,7.2496,7.2496,7.2496,7.2496,7.2496,7.2496,7.2496,7.2496,7.2496,7.2496,7.2496,7.2496,7.2496,7.2496,7.2496,7.2496,4.5673,4.5823,4.6244,4.6684,4.7564,4.8732,5.0202,5.0744,5.1319,5.2536,5.3416,5.4059,5.4499,5.5446,5.6274,5.6731,5.7408,5.79,5.79,5.79,5.79,5.79,5.79,5.79,5.79,5.79,5.79,5.79,5.79,5.79,5.79,5.79,5.79,5.79,5.79,5.8047,5.8388,5.9361,6.0227,6.0879,6.1874,6.2503,6.2793,6.316,6.3613,6.4176,6.5301,6.6219,6.699,6.7517,6.77,6.77,6.77,6.77,6.77,6.77,6.77,6.77,6.77,6.77,6.77,6.77,6.7921,6.8274,6.8752,6.9119,6.9486,6.9963,7.033,7.0587,7.0587,7.0807,7.0954,7.066,7.0587,7.066,7.0991,7.1431,7.1784,7.1784,7.2165,7.2496,7.2496,7.2496,7.2496,7.2496,7.2496,7.2496,7.2496,7.2496,7.2496,7.2496,7.2496,7.2496,7.2496,7.2496,7.2496,7.2496,7.2496,7.2496,7.2496,7.2496,7.2496,7.2496,7.2496,7.2496,7.2496,7.2496,7.2496,7.2496,7.2496,7.2496,4.5584,4.6075,4.68,4.68,4.8003,4.9544,5.0897,5.1826,5.2604,5.3348,5.4093,5.4617,5.4668,5.5852,5.6833,5.69,5.7442,5.79,5.79,5.79,5.79,5.79,5.79,5.79,5.79,5.79,5.79,5.79,5.79,5.79,5.79,5.79,5.79,5.79,5.79,5.8246,5.8976,5.9144,5.9988,6.147,6.1646,6.2126,6.2939,6.3723,6.4176,6.4396,6.5925,6.704,6.77,6.77,6.77,6.77,6.77,6.77,6.77,6.77,6.77,6.77,6.77,6.77,6.77,6.7811,6.8311,6.8921,6.9068,6.9633,7.022,7.0293,7.0844,7.1417,7.1417,7.1931,7.2312,7.1564,7.1417,7.16,7.2349,7.2496,7.2496,7.2496,7.2496,7.2496,7.2496,7.2496,7.2496,7.2496,7.2496,7.2496,7.2496,7.2496,7.2496,7.2496,7.2496,7.2496,7.2496,7.2496,7.2496,7.2496,7.2496,7.2496,7.2496,7.2496,7.2496,7.2496,7.2496,7.2496,7.2496,7.2496,7.2496,7.2496,7.2496,7.2496,4.4961,4.5764,4.68,4.68,4.8781,5.0795,5.1133,5.2249,5.3281,5.345,5.4093,5.4769,5.5378,5.619,5.7002,5.7577,5.7798,5.79,5.79,5.79,5.79,5.79,5.79,5.79,5.79,5.79,5.79,5.79,5.79,5.79,5.79,5.79,5.79,5.79,5.79,5.7991,5.8173,5.9443,6.0289,6.0655,6.1942,6.2996,6.3833,6.4029,6.48,6.6035,6.704,6.7554,6.77,6.77,6.77,6.77,6.77,6.77,6.77,6.77,6.77,6.77,6.77,6.77,6.7811,6.8458,6.8752,6.9142,7.0389,7.0903,7.116,7.1798,7.2129,7.2239,7.2239,7.2386,7.2459,7.2275,7.2239,7.2312,7.2459,7.2496,7.2496,7.2496,7.2496,7.2496,7.2496,7.2496,7.2496,7.2496,7.2496,7.2496,7.2496,7.2496,7.2496,7.2496,7.2496,7.2496,7.2496,7.2496,7.2496,7.2496,7.2496,7.2496,7.2496,7.2496,7.2496,7.2496,7.2496,7.2496,7.2496,7.2496,7.2496,7.2496,7.2496,7.2496,4.4776,4.5684,4.6969,4.7665,4.9544,5.1201,5.1201,5.2385,5.3585,5.3957,5.46,5.5344,5.6071,5.6833,5.7442,5.7832,5.79,5.79,5.79,5.79,5.79,5.79,5.79,5.79,5.79,5.79,5.79,5.79,5.79,5.79,5.79,5.79,5.79,5.79,5.79,5.8083,5.8459,5.9328,6.0196,6.0982,6.2209,6.3656,6.5228,6.5228,6.5938,6.7113,6.7517,6.77,6.77,6.77,6.77,6.77,6.77,6.77,6.77,6.77,6.77,6.77,6.77,6.7958,6.8348,6.8752,6.9398,7.0206,7.105,7.1564,7.1967,7.2386,7.2496,7.2496,7.2496,7.2496,7.2496,7.2496,7.2496,7.2496,7.2496,7.2496,7.2496,7.2496,7.2496,7.2496,7.2496,7.2496,7.2496,7.2496,7.2496,7.2496,7.2496,7.2496,7.2496,7.2496,7.2496,7.2496,7.2496,7.2496,7.2496,7.2496,7.2496,7.2496,7.2496,7.2496,7.2496,7.2496,7.2496,7.2496,7.2496,7.2496,7.2496,7.2496,7.2496,7.2496,4.4734,4.5684,4.7124,4.8477,5.0017,5.1201,5.1201,5.2385,5.3721,5.4431,5.5209,5.5936,5.6664,5.7408,5.79,5.79,5.79,5.79,5.79,5.79,5.79,5.79,5.79,5.79,5.79,5.79,5.79,5.79,5.79,5.79,5.79,5.79,5.79,5.79,5.79,5.8281,5.9094,5.9245,6.0098,6.1618,6.2719,6.4376,6.6512,6.6623,6.7076,6.77,6.77,6.77,6.77,6.77,6.77,6.77,6.77,6.77,6.77,6.77,6.77,6.7737,6.7847,6.8348,6.8958,6.9215,7.0206,7.1344,7.1454,7.1967,7.2496,7.2496,7.2496,7.2496,7.2496,7.2496,7.2496,7.2496,7.2496,7.2496,7.2496,7.2496,7.2496,7.2496,7.2496,7.2496,7.2496,7.2496,7.2496,7.2496,7.2496,7.2496,7.2496,7.2496,7.2496,7.2496,7.2496,7.2496,7.2496,7.2496,7.2496,7.2496,7.2496,7.2496,7.2496,7.2496,7.2496,7.2496,7.2496,7.2496,7.2496,7.2496,7.2496,7.2496,7.2496,7.2496,4.4629,4.5684,4.6989,4.7853,4.9645,5.1201,5.1201,5.2385,5.3721,5.4431,5.5209,5.5936,5.6664,5.7408,5.79,5.79,5.79,5.79,5.79,5.79,5.79,5.79,5.79,5.79,5.79,5.79,5.79,5.79,5.79,5.79,5.79,5.79,5.79,5.79,5.79,5.8281,5.9094,5.9848,6.0685,6.1618,6.3892,6.5503,6.6512,6.7223,6.759,6.77,6.77,6.77,6.77,6.77,6.77,6.77,6.77,6.77,6.77,6.77,6.77,6.7811,6.8495,6.8825,6.9142,7.0536,7.1123,7.1417,7.2114,7.2422,7.2496,7.2496,7.2496,7.2496,7.2496,7.2496,7.2496,7.2496,7.2496,7.2496,7.2496,7.2496,7.2496,7.2496,7.2496,7.2496,7.2496,7.2496,7.2496,7.2496,7.2496,7.2496,7.2496,7.2496,7.2496,7.2496,7.2496,7.2496,7.2496,7.2496,7.2496,7.2496,7.2496,7.2496,7.2496,7.2496,7.2496,7.2496,7.2496,7.2496,7.2496,7.2496,7.2496,7.2496,7.2496,7.2496,4.5108,4.5974,4.6989,4.7718,4.924,5.071,5.11,5.2046,5.3179,5.438,5.5209,5.5936,5.6664,5.7408,5.79,5.79,5.79,5.79,5.79,5.79,5.79,5.79,5.79,5.79,5.79,5.79,5.79,5.79,5.79,5.79,5.79,5.79,5.79,5.79,5.8335,5.8977,5.9816,6.067,6.196,6.3683,6.5231,6.6402,6.7187,6.7554,6.77,6.77,6.77,6.77,6.77,6.77,6.77,6.77,6.77,6.77,6.77,6.77,6.7994,6.8421,6.8788,6.9472,7.0353,7.1087,7.16,7.2041,7.2386,7.2496,7.2496,7.2496,7.2496,7.2496,7.2496,7.2496,7.2496,7.2496,7.2496,7.2496,7.2496,7.2496,7.2496,7.2496,7.2496,7.2496,7.2496,7.2496,7.2496,7.2496,7.2496,7.2496,7.2496,7.2496,7.2496,7.2496,7.2496,7.2496,7.2496,7.2496,7.2496,7.2496,7.2496,7.2496,7.2496,7.2496,7.2496,7.2496,7.2496,7.2496,7.2496,7.2496,7.2496,7.2496,7.2496,7.2496,4.5263,4.6109,4.6921,4.7481,4.8883,5.027,5.1032,5.1776,5.2672,5.4025,5.4905,5.5631,5.6393,5.7273,5.79,5.79,5.79,5.79,5.79,5.79,5.79,5.79,5.79,5.79,5.79,5.79,5.79,5.79,5.79,5.79,5.79,5.79,5.79,5.79,5.8703,5.9525,6.0381,6.1601,6.3251,6.5288,6.6109,6.6916,6.77,6.77,6.77,6.77,6.77,6.77,6.77,6.77,6.77,6.77,6.77,6.77,6.7737,6.7921,6.8385,6.8972,6.9362,7.0279,7.1344,7.1527,7.2004,7.2496,7.2496,7.2496,7.2496,7.2496,7.2496,7.2496,7.2496,7.2496,7.2496,7.2496,7.2496,7.2496,7.2496,7.2496,7.2496,7.2496,7.2496,7.2496,7.2496,7.2496,7.2496,7.2496,7.2496,7.2496,7.2496,7.2496,7.2496,7.2496,7.2496,7.2496,7.2496,7.2496,7.2496,7.2496,7.2496,7.2496,7.2496,7.2496,7.2496,7.2496,7.2496,7.2496,7.2496,7.2496,7.2496,7.2496,7.2496,7.2596,4.4649,4.5717,4.6819,4.6868,4.8477,5.027,5.1032,5.1776,5.2536,5.3382,5.4126,5.4871,5.5631,5.6934,5.79,5.79,5.79,5.79,5.79,5.79,5.79,5.79,5.79,5.79,5.79,5.79,5.79,5.79,5.79,5.79,5.79,5.79,5.79,5.79,5.8703,5.9525,6.0381,6.2781,6.4431,6.5288,6.6109,6.6916,6.77,6.77,6.77,6.77,6.77,6.77,6.77,6.77,6.77,6.77,6.77,6.77,6.7811,6.8568,6.8848,6.9105,7.0646,7.1233,7.1417,7.2188,7.2459,7.2496,7.2496,7.2496,7.2496,7.2496,7.2496,7.2496,7.2496,7.2496,7.2496,7.2496,7.2496,7.2496,7.2496,7.2496,7.2496,7.2496,7.2496,7.2496,7.2496,7.2496,7.2496,7.2496,7.2496,7.2496,7.2496,7.2496,7.2496,7.2496,7.2496,7.2496,7.2496,7.2496,7.2496,7.2496,7.2496,7.2496,7.2496,7.2496,7.2496,7.2496,7.2496,7.2496,7.2496,7.2496,7.2496,7.2496,7.2496,7.2803,4.4615,4.5345,4.621,4.6684,4.7767,4.9018,5.0202,5.1066,5.181,5.257,5.3721,5.4668,5.4938,5.619,5.734,5.7832,5.79,5.79,5.79,5.79,5.79,5.79,5.79,5.79,5.79,5.79,5.79,5.79,5.79,5.79,5.79,5.79,5.8137,5.8668,5.9492,6.0859,6.2753,6.4174,6.5264,6.6072,6.688,6.7407,6.77,6.77,6.77,6.77,6.77,6.77,6.77,6.77,6.77,6.77,6.77,6.77,6.7811,6.8605,6.9229,6.9816,7.0903,7.1637,7.2129,7.2422,7.2496,7.2496,7.2496,7.2496,7.2496,7.2496,7.2496,7.2496,7.2496,7.2496,7.2496,7.2496,7.2496,7.2496,7.2496,7.2496,7.2496,7.2496,7.2496,7.2496,7.2496,7.2496,7.2496,7.2496,7.2496,7.2496,7.2496,7.2496,7.2496,7.2496,7.2496,7.2496,7.2496,7.2496,7.2496,7.2496,7.2496,7.2496,7.2496,7.2496,7.2496,7.2496,7.2496,7.2496,7.2496,7.2496,7.2496,7.2496,7.2889,7.3198,4.4615,4.5142,4.5838,4.6312,4.7192,4.8225,4.9458,5.0304,5.1116,5.2097,5.3112,5.4008,5.4499,5.5378,5.6393,5.7374,5.773,5.79,5.79,5.79,5.79,5.79,5.79,5.79,5.79,5.79,5.79,5.79,5.79,0.0,5.79,5.79,5.8405,5.9509,6.0366,6.186,6.409,6.4897,6.5705,6.6512,6.7333,6.77,6.77,6.77,6.77,6.77,6.77,6.77,6.77,6.77,6.77,6.77,6.77,6.7884,6.8201,6.9009,6.9816,7.0624,7.1417,7.2041,7.2496,7.2496,7.2496,7.2496,7.2496,7.2496,7.2496,7.2496,7.2496,7.2496,7.2496,7.2496,7.2496,7.2496,7.2496,7.2496,7.2496,7.2496,7.2496,7.2496,7.2496,7.2496,7.2496,7.2496,7.2496,7.2496,7.2496,7.2496,7.2496,7.2496,7.2496,7.2496,7.2496,7.2496,7.2496,7.2496,7.2496,7.2496,7.2496,7.2496,7.2496,7.2496,7.2496,7.2496,7.2496,7.2496,7.2496,7.2496,7.2588,7.2816,7.3224,7.3602,0.0,0.0,0.0,4.5689,4.6771,4.8022,4.88,4.9526,5.0473,5.1928,5.2266,5.2773,5.4262,5.4583,5.5074,5.6494,5.7374,5.7866,5.7866,5.79,5.79,5.79,5.79,5.79,5.79,5.79,5.79,5.79,5.79,5.79,5.79,5.7954,5.872,6.0366,6.12,6.2422,6.4127,6.4897,6.5742,6.6549,6.7333,6.77,6.77,6.77,6.77,6.77,6.77,6.77,6.77,6.77,6.77,6.77,6.77,6.8201,6.9009,6.9816,7.0624,7.1417,7.2224,7.2496,7.2496,7.2496,7.2496,7.2496,7.2496,7.2496,7.2496,7.2496,7.2496,7.2496,7.2496,7.2496,7.2496,7.2496,7.2496,7.2496,7.2496,7.2496,7.2496,7.2496,7.2496,7.2496,7.2496,7.2496,7.2496,7.2496,7.2496,7.2496,7.2496,7.2496,7.2496,7.2496,7.2496,7.2496,7.2496,7.2496,7.2496,7.2496,7.2496,7.2496,7.2496,7.2496,7.2496,7.2496,7.2496,7.2496,7.2496,7.2496,7.2816,7.3404,7.3442,7.4056,4.4615,0.0,0.0,0.0,0.0,0.0,0.0,0.0,4.956,5.0507,5.1555,5.2435,5.2875,5.3873,5.4735,5.5141,5.6258,5.7103,5.7103,5.7543,5.79,5.79,5.79,5.79,5.79,5.79,5.79,0.0,5.79,5.79,5.79,5.9027,6.0196,6.1229,6.2036,6.3275,6.4958,6.5178,6.5999,6.737,6.759,6.77,6.77,6.77,6.77,6.77,6.77,6.77,6.77,6.77,6.77,6.77,6.77,6.8201,6.9009,6.9816,7.0624,7.1417,7.2224,7.2496,7.2496,7.2496,7.2496,7.2496,7.2496,7.2496,7.2496,7.2496,7.2496,7.2496,7.2496,7.2496,7.2496,7.2496,7.2496,7.2496,7.2496,7.2496,7.2496,7.2496,7.2496,7.2496,7.2496,7.2496,7.2496,7.2496,7.2496,7.2496,7.2496,7.2496,7.2496,7.2496,7.2496,7.2496,7.2496,7.2496,7.2496,7.2496,7.2496,7.2496,7.2496,7.2496,7.2496,7.2496,7.2496,7.2496,7.2496,7.2496,7.2816,7.3429,7.4266,7.5027,4.4615,4.4615,4.4702,4.5128,0.0,0.0,4.7192,4.7988,4.8849,0.0,5.0777,5.1488,5.1792,5.2841,5.3653,5.3653,5.4905,5.6089,5.6697,5.7171,5.7561,5.7866,5.79,5.79,5.79,5.79,5.79,5.79,5.8226,5.8546,5.8926,6.0196,6.1113,6.1604,6.2363,6.36,6.5288,6.5288,6.6109,6.77,6.77,6.77,6.77,6.77,6.77,6.77,6.77,6.77,6.77,6.77,6.77,6.7737,6.8068,6.8678,6.9486,7.0293,7.1101,7.1857,7.2349,7.2496,7.2496,7.2496,7.2496,7.2496,7.2496,7.2496,7.2496,7.2496,7.2496,7.2496,7.2496,7.2496,7.2496,7.2496,7.2496,7.2496,7.2496,7.2496,7.2496,7.2496,7.2496,7.2496,7.2496,7.2496,7.2496,7.2496,7.2496,7.2496,7.2496,7.2496,7.2496,7.2496,7.2496,7.2496,7.2496,7.2496,7.2496,7.2496,7.2496,7.2496,7.2496,7.2496,7.2496,7.2496,7.2496,7.2616,7.2899,7.2899,7.3302,7.4146,7.5045,7.567,4.4615,4.4615,4.4615,4.4615,4.5108,0.0,4.6515,4.7192,4.8056,0.0,4.9864,5.0168,5.0829,5.1607,5.2198,5.2198,5.3382,5.4871,5.6359,5.663,5.6934,5.7679,5.7798,5.7832,5.79,5.79,5.7936,5.8045,5.8772,5.9623,6.0473,6.12,6.1646,6.1728,6.2451,6.36,6.5288,6.5288,6.6109,6.77,6.77,6.77,6.77,6.77,6.77,6.77,6.77,6.77,6.77,6.77,6.77,6.7774,6.8605,6.9376,7.0183,7.1013,7.1821,7.2496,7.2496,7.2496,7.2496,7.2496,7.2496,7.2496,7.2496,7.2496,7.2496,7.2496,7.2496,7.2496,7.2496,7.2496,7.2496,7.2496,7.2496,7.2496,7.2496,7.2496,7.2496,7.2496,7.2496,7.2496,7.2496,7.2496,7.2496,7.2496,7.2496,7.2496,7.2496,7.2496,7.2496,7.2496,7.2496,7.2496,7.2496,7.2496,7.2496,7.2496,7.2496,7.2496,7.2496,7.2496,7.2496,7.2496,7.2496,7.283,7.3516,7.3516,7.4056,7.5109,7.571,7.6015,4.4615,4.4615,4.4615,4.4615,0.0,0.0,4.5737,4.6041,4.638,0.0,4.8376,4.9255,4.9409,5.0525,5.1404,5.1404,5.2164,5.3281,5.4803,5.5547,5.6172,5.6934,5.7002,5.7239,5.7832,5.79,5.8173,5.8823,5.9655,6.0504,6.1314,6.1498,6.1915,6.2541,6.273,6.36,6.5288,6.5288,6.6109,6.77,6.77,6.77,6.77,6.77,6.77,6.77,6.77,6.77,6.77,6.77,6.77,6.7774,6.8605,6.9376,7.0183,7.1013,7.1821,7.2496,7.2496,7.2496,7.2496,7.2496,7.2496,7.2496,7.2496,7.2496,7.2496,7.2496,7.2496,7.2496,7.2496,7.2496,7.2496,7.2496,7.2496,7.2496,7.2496,7.2496,7.2496,7.2496,7.2496,7.2496,7.2496,7.2496,7.2496,7.2496,7.2496,7.2496,7.2496,7.2496,7.2496,7.2496,7.2496,7.2496,7.2496,7.2496,7.2496,7.2496,7.2496,7.2496,7.2496,7.2496,7.2496,7.2496,7.2496,7.305,7.4128,7.4128,7.4447,7.5109,7.571,7.6015,4.4615,4.4615,0.0,4.4615,0.0,0.0,0.0,4.5703,4.5906,4.665,4.7394,4.8003,4.836,4.9341,5.022,5.0608,5.1269,5.2029,5.2807,5.4194,0.0,0.0,0.0,0.0,5.7306,5.8041,5.9027,6.0253,6.076,6.1365,6.2179,6.2219,6.2376,6.278,6.2793,6.36,6.5288,6.5288,6.6109,6.77,6.77,6.77,6.77,6.77,6.77,6.77,6.77,6.77,6.77,6.77,6.7958,6.8385,6.9192,7.0,7.0807,7.16,7.2165,7.2496,7.2496,7.2496,7.2496,7.2496,7.2496,7.2496,7.2496,7.2496,7.2496,7.2496,7.2496,7.2496,7.2496,7.2496,7.2496,7.2496,7.2496,7.2496,7.2496,7.2496,7.2496,7.2496,7.2496,7.2496,7.2496,7.2496,7.2496,7.2496,7.2496,7.2496,7.2496,7.2496,7.2496,7.2496,7.2496,7.2496,7.2496,7.2496,7.2496,7.2496,7.2775,7.2816,7.251,7.2789,7.2943,7.2943,7.2943,7.3516,7.472,7.472,7.498,7.5559,7.5848,7.6015,0.0,0.0,0.0,0.0,0.0,4.477,0.0,0.0,0.0,0.0,0.0,0.0,0.0,0.0,0.0,0.0,0.0,0.0,0.0,0.0,0.0,0.0,0.0,0.0,5.6562,5.7981,5.9622,6.1456,6.1604,6.1955,6.2755,6.2793,6.2793,6.2793,6.2793,6.36,6.5288,6.5288,6.6109,6.77,6.77,6.77,6.77,6.77,6.77,6.77,6.77,6.77,6.77,6.77,6.8274,6.9192,6.9853,7.0587,7.1417,7.2202,7.2496,7.2496,7.2496,7.2496,7.2496,7.2496,7.2496,7.2496,7.2496,7.2496,7.2496,7.2496,7.2496,7.2496,7.2496,7.2496,7.2496,7.2496,7.2496,7.2496,7.2496,7.2496,7.2496,7.2496,7.2496,7.2496,7.2496,7.2496,7.2496,7.2496,7.2496,7.2496,7.2496,7.2496,7.2496,7.2496,7.2496,7.2496,7.2496,7.2496,7.2496,7.2496,7.2957,7.301,7.251,7.3066,7.3404,7.3404,7.3492,7.4079,7.51,7.51,7.5413,7.6015,7.6015,7.6015,0.0,0.0,0.0,0.0,4.4615,0.0,0.0,0.0,4.4736,4.4838,0.0,0.0,0.0,0.0,0.0,0.0,0.0,0.0,0.0,0.0,0.0,0.0,0.0,0.0,0.0,5.7226,5.9076,6.142,6.1604,6.1955,6.2755,6.2793,6.2793,6.2793,6.2793,6.36,6.5288,6.5288,6.6109,6.77,6.77,6.77,6.77,6.77,6.77,6.77,6.77,6.77,6.77,6.77,6.8582,6.9963,7.0073,7.0587,7.1417,7.2202,7.2496,7.2496,7.2496,7.2496,7.2496,7.2496,7.2496,7.2496,7.2496,7.2496,7.2496,7.2496,7.2496,7.2496,7.2496,7.2496,7.2496,7.2496,7.2496,7.2496,7.2496,7.2496,7.2496,7.2496,7.2496,7.2496,7.2496,7.2496,7.2496,7.2496,7.2496,7.2496,7.2496,7.2496,7.2496,7.2496,7.2496,7.2496,7.2496,7.2496,7.2496,7.2496,7.2582,7.2582,7.2496,7.3066,7.3404,7.3404,7.3923,7.4516,7.51,7.51,7.5413,7.6015,7.6015,7.6015,0.0,0.0,0.0,0.0,0.0,0.0,4.4702,0.0,4.4615,0.0,0.0,0.0,0.0,0.0,0.0,0.0,4.7646,0.0,0.0,0.0,0.0,0.0,0.0,0.0,0.0,0.0,0.0,0.0,6.2298,6.2427,6.278,6.2793,6.2793,6.2793,6.2793,6.36,6.5288,6.5288,6.6109,6.77,6.77,6.77,6.77,6.77,6.77,6.77,6.77,6.77,6.7737,6.8201,6.9082,7.0146,7.0624,7.127,7.2041,7.2386,7.2496,7.2496,7.2496,7.2496,7.2496,7.2496,7.2496,7.2496,7.2496,7.2496,7.2496,7.2496,7.2496,7.2496,7.2496,7.2496,7.2496,7.2496,7.2496,7.2496,7.2496,7.2496,7.2496,7.2496,7.2496,7.2496,7.2496,7.2496,7.2496,7.2496,7.2496,7.2496,7.2496,7.2496,7.2496,7.2496,7.2496,7.2496,7.2496,7.2496,7.2496,7.2496,7.2496,7.2816,7.3516,7.3454,7.3723,7.4357,7.4632,7.5065,7.5608,7.5608,7.5733,7.6015,7.6015,7.6015,4.872,0.0,0.0,0.0,0.0,0.0,0.0,0.0,0.0,0.0,0.0,0.0,0.0,0.0,0.0,0.0,0.0,4.7613,0.0,0.0,0.0,0.0,0.0,0.0,0.0,0.0,0.0,0.0,0.0,6.2567,6.278,6.2793,6.2793,6.2793,6.2793,6.36,6.5288,6.5288,6.6109,6.77,6.77,6.77,6.77,6.77,6.77,6.77,6.77,6.77,6.7774,6.8568,6.9376,7.0183,7.0977,7.1784,7.2496,7.2496,7.2496,7.2496,7.2496,7.2496,7.2496,7.2496,7.2496,7.2496,7.2496,7.2496,7.2496,7.2496,7.2496,7.2496,7.2496,7.2496,7.2496,7.2496,7.2496,7.2496,7.2496,7.2496,7.2496,7.2496,7.2496,7.2496,7.2496,7.2496,7.2496,7.2496,7.2496,7.2496,7.2496,7.2496,7.2496,7.2496,7.2496,7.2496,7.2496,7.2496,7.2496,7.2496,7.2658,7.3132,7.4015,7.392,7.4277,7.5091,7.5263,7.5567,7.6015,7.6015,7.6015,7.6015,7.6015,7.6015,0.0,0.0,0.0,4.8836,0.0,0.0,0.0,0.0,4.5307,0.0,0.0,0.0,0.0,0.0,4.62,4.5492,0.0,0.0,0.0,0.0,0.0,0.0,0.0,0.0,0.0,0.0,0.0,0.0,0.0,0.0,6.2755,6.2793,6.2793,6.2793,6.2793,6.36,6.5288,6.5288,6.6109,6.77,6.77,6.77,6.77,6.77,6.77,6.77,6.77,6.77,6.7774,6.8568,6.9376,7.0183,7.0977,7.1784,7.2496,7.2496,7.2496,7.2496,7.2496,7.2496,7.2496,7.2496,7.2496,7.2496,7.2496,7.2496,7.2496,7.2496,7.2496,7.2496,7.2496,7.2496,7.2496,7.2496,7.2496,7.2496,7.2496,7.2496,7.2496,7.2496,7.2496,7.2496,7.2496,7.2496,7.2496,7.2496,7.2496,7.2496,7.2496,7.2496,7.2496,7.2496,7.2496,7.2496,7.2496,7.2496,7.2496,7.2496,7.3064,7.3391,7.3429,7.4489,7.5073,7.51,7.5678,7.5962,7.6015,7.6015,7.6015,7.6015,7.6015,7.6015,0.0,0.0,5.1574,5.0556,0.0,0.0,0.0,0.0,0.0,0.0,0.0,0.0,0.0,4.6921,4.6994,4.6718,4.7138,0.0,0.0,0.0,0.0,0.0,0.0,0.0,0.0,0.0,0.0,0.0,0.0,0.0,0.0,6.2793,6.2793,6.2793,6.2793,6.3343,6.4494,6.5031,6.5852,6.6916,6.7444,6.77,6.77,6.77,6.77,6.77,6.77,6.77,6.7811,6.9119,6.9853,7.022,7.1578,7.2275,7.2496,7.2496,7.2496,7.2496,7.2496,7.2496,7.2496,7.2496,7.2496,7.2496,7.2496,7.2496,7.2496,7.2496,7.2496,7.2496,7.2496,7.2496,7.2496,7.2496,7.2496,7.2496,7.2496,7.2496,7.2496,7.2496,7.2496,7.2496,7.2496,7.2496,7.2496,7.2496,7.2496,7.2496,7.2496,7.2496,7.2496,7.2496,7.2496,7.2496,7.2496,7.2885,7.308,7.308,7.3651,7.4135,7.452,7.4886,7.5289,7.5694,7.591,7.6015,7.6015,7.6015,7.6015,7.6015,7.6015,7.6015,5.4288,5.4305,0.0,5.2867,5.1869,0.0,5.0247,0.0,4.9008,0.0,0.0,0.0,0.0,0.0,4.8172,4.8172,4.7918,0.0,0.0,0.0,0.0,0.0,0.0,0.0,0.0,0.0,0.0,0.0,0.0,0.0,0.0,0.0,6.2793,6.2793,6.2793,6.3196,6.4103,6.4897,6.5705,6.6512,6.7333,6.77,6.77,6.77,6.77,6.77,6.77,6.77,6.7811,6.9463,7.011,7.0257,7.1872,7.2496,7.2496,7.2496,7.2496,7.2496,7.2496,7.2496,7.2496,7.2496,7.2496,7.2496,7.2496,7.2496,7.2459,7.2165,7.2275,7.2422,7.2165,7.2312,7.2496,7.2496,7.2496,7.2496,7.2496,7.2496,7.2496,7.2496,7.2496,7.2496,7.2496,7.2496,7.2496,7.2496,7.2496,7.2496,7.2496,7.2496,7.2496,7.2496,7.2496,7.261,7.2803,7.3366,7.3711,7.3711,7.4245,7.4759,7.5091,7.5297,7.5592,7.5969,7.6015,7.6015,7.6015,7.6015,7.6015,7.6015,7.6015,7.6169]}]]